GFSSGP_925_thetae_000.txt.gz
Theta_e
326 326 333 334 333 319 322 319 317 318 318 316 314 314 313 313 316 312 321 327 323 322 326 326 325 328 328 327 325 324 323 323 324 324 324 323 325 327 329 331 332 332 333 332 332 334 335 336 337
323 329 331 326 329 318 318 314 317 316 316 313 315 316 316 317 319 319 319 321 320 320 319 323 325 326 326 326 325 326 328 329 328 327 324 324 325 327 328 329 330 330 332 332 331 332 333 335 337
327 333 332 330 324 328 318 313 315 316 314 315 315 316 318 319 318 319 320 320 318 316 316 319 319 323 327 334 333 329 330 330 329 328 325 324 325 327 328 328 329 330 330 330 330 332 332 333 336
330 330 322 331 331 322 316 314 315 315 315 312 315 319 319 319 319 319 318 318 316 315 315 317 322 327 328 334 334 332 331 330 328 327 327 325 325 326 327 327 327 329 330 329 331 331 331 332 334
329 322 328 328 326 314 312 313 312 314 314 314 317 319 319 318 319 318 317 316 315 314 315 320 324 328 335 334 332 330 328 326 325 325 325 326 325 326 326 326 326 327 328 329 329 332 331 332 335
324 322 330 332 328 317 314 313 313 314 314 317 318 318 318 318 318 317 317 318 317 317 318 317 321 324 325 327 327 325 325 324 324 324 324 326 326 326 325 327 326 325 326 329 328 330 331 331 333
326 326 330 330 328 315 316 312 313 314 314 315 316 317 316 315 315 315 315 313 313 313 315 316 315 316 323 327 321 319 320 324 326 324 325 326 325 326 326 324 326 326 326 328 329 330 330 332 331
324 325 326 319 318 315 315 313 314 314 314 315 316 316 315 313 313 313 314 315 315 315 318 319 317 317 319 318 318 320 321 322 324 323 323 324 324 324 326 326 325 326 326 328 329 331 332 330 331
318 324 325 324 316 315 314 314 313 315 315 316 315 314 313 313 313 313 314 316 318 319 320 321 319 318 318 319 319 320 319 320 322 320 320 320 320 321 322 324 324 326 326 328 329 331 332 332 330
321 322 324 320 314 315 314 313 314 317 317 315 314 313 312 313 313 314 315 317 319 320 320 320 319 318 319 319 320 319 319 320 319 319 319 318 316 317 320 322 323 325 326 328 329 331 332 333 330
320 324 321 319 314 313 313 313 314 316 317 314 313 313 312 312 313 314 316 318 320 319 319 318 319 319 321 320 320 319 319 318 318 318 319 319 320 317 320 321 322 323 325 327 329 331 332 331 330
322 320 319 319 317 312 313 313 317 315 315 315 312 312 311 312 312 314 317 319 320 319 319 318 319 321 321 320 320 320 319 318 319 318 319 320 319 320 316 318 322 323 323 325 326 326 328 329 330
321 319 317 316 312 314 313 315 316 316 316 314 311 312 312 311 313 316 318 321 320 318 319 318 319 320 322 320 322 322 321 320 321 320 321 320 321 321 318 319 320 320 323 324 325 326 327 328 330
320 317 317 314 314 314 315 315 317 316 315 314 312 312 312 312 314 316 319 320 320 318 318 318 320 321 321 321 322 322 322 321 321 321 320 321 321 322 322 322 321 322 323 324 325 326 326 327 330
317 319 316 316 314 315 314 315 316 316 314 313 312 312 312 312 314 317 320 320 320 318 318 318 322 322 322 321 322 323 322 321 322 320 320 320 321 322 323 323 323 323 324 324 325 325 325 327 330
318 316 317 317 314 315 314 316 315 314 314 313 312 312 312 312 314 318 321 320 320 318 319 320 323 323 322 322 324 324 324 323 323 323 323 323 323 323 323 323 323 323 324 325 326 325 326 327 331
316 320 318 318 314 315 314 316 315 314 314 314 312 313 313 313 315 319 321 321 320 318 318 322 323 324 325 324 324 325 325 325 324 324 324 324 324 324 324 324 324 323 324 325 325 326 326 328 331
320 319 318 318 318 315 315 314 314 316 315 315 312 313 313 314 315 319 321 321 320 319 318 318 322 323 323 324 325 325 325 325 324 324 324 324 324 325 325 325 325 325 326 325 326 326 326 329 331
319 319 319 320 318 316 316 315 316 315 314 314 312 312 313 314 314 318 320 321 321 321 319 318 322 323 323 323 324 325 325 326 325 324 324 322 323 324 324 322 321 324 326 327 326 326 328 330 331
317 318 318 317 317 315 317 316 315 315 315 314 312 312 313 313 314 317 320 321 321 319 321 317 320 322 323 324 324 325 326 325 325 324 324 324 325 323 325 325 325 327 327 327 327 328 329 330 330
318 319 318 318 318 315 315 315 315 315 315 316 312 312 312 313 314 315 317 319 320 318 318 320 315 316 317 325 325 325 326 326 326 321 325 327 324 325 327 327 327 328 327 328 328 329 330 330 330
320 318 319 318 318 318 315 317 315 316 316 318 312 311 312 312 313 314 315 315 321 321 318 317 317 317 317 325 326 326 326 326 326 326 326 326 327 327 327 327 327 327 328 328 328 329 330 330 329
320 319 318 318 317 316 317 315 315 319 320 317 315 312 311 311 313 314 314 316 321 322 320 320 320 319 319 326 325 325 325 326 327 326 326 325 326 326 326 326 326 327 327 326 328 329 329 329 329
319 318 315 315 314 316 315 316 315 316 319 318 317 312 312 311 312 314 316 316 318 323 321 320 324 319 322 325 323 320 321 321 325 327 326 323 324 325 326 327 327 327 328 328 328 327 328 329 329
316 314 317 317 317 320 317 317 316 317 317 318 319 314 312 312 312 314 313 314 316 322 321 321 324 320 321 324 325 322 321 322 324 326 328 327 328 327 327 327 327 328 328 328 328 327 327 328 328
314 314 316 318 316 315 318 321 320 318 320 320 319 315 312 312 313 314 313 315 317 319 324 323 322 321 318 322 325 320 320 321 321 325 329 329 328 328 328 325 327 328 328 327 328 328 328 327 328
317 315 314 315 317 319 318 320 322 325 324 321 316 314 313 313 312 314 314 315 317 318 322 324 324 321 319 319 321 320 319 319 319 319 325 328 327 328 328 328 329 329 329 327 327 327 328 328 327
317 315 317 313 319 320 318 322 325 322 325 323 319 314 313 312 312 313 314 315 317 319 319 322 324 320 319 319 319 319 319 318 318 319 320 325 324 323 322 325 327 328 330 329 328 329 328 328 326
318 319 318 313 314 317 318 321 320 325 327 327 321 314 313 313 313 313 314 316 317 317 319 320 324 320 320 318 319 319 318 317 318 320 319 321 321 321 322 324 326 327 327 327 328 327 328 328 327
318 318 320 319 319 319 318 321 321 326 327 327 323 315 312 313 314 313 314 315 316 316 318 320 324 319 317 317 318 318 319 317 316 320 319 320 320 319 319 323 326 326 326 326 326 326 324 324 326

GFSSGP_925_thetae_003.txt.gz
Theta_e
327 329 332 335 340 328 332 330 321 322 321 319 317 318 320 319 324 318 322 326 323 323 325 329 329 328 327 325 326 328 325 325 330 329 328 326 325 325 327 330 332 333 334 335 333 334 336 336 336
325 330 331 333 337 333 331 322 324 323 320 317 317 318 318 318 320 322 323 326 323 322 322 324 327 326 323 325 329 328 327 329 331 330 329 328 326 326 328 330 331 332 333 334 334 333 335 336 337
330 332 337 338 335 333 332 322 322 320 318 318 318 319 320 321 321 322 321 321 321 320 318 318 321 320 321 326 326 325 326 330 331 331 330 329 327 326 328 329 330 331 331 332 334 332 333 334 336
331 333 329 336 337 333 330 330 319 320 317 316 317 320 321 320 321 321 320 320 319 317 317 318 321 325 324 330 330 326 328 330 331 330 330 330 329 327 327 328 329 330 331 332 331 333 332 333 335
328 330 335 336 335 329 321 318 318 321 319 317 318 320 322 320 319 319 317 318 317 316 316 318 321 324 327 332 336 328 329 329 328 328 328 328 328 328 327 328 328 328 329 330 332 332 332 332 333
331 331 336 336 335 331 322 318 318 319 319 319 319 321 322 318 318 317 317 317 317 317 318 319 319 322 324 327 330 329 329 328 328 329 327 326 326 327 328 328 327 327 327 328 330 329 330 332 331
331 332 331 333 334 329 324 317 318 319 318 318 320 321 320 319 316 316 315 313 313 313 314 316 318 318 318 326 329 325 320 324 324 326 326 327 327 327 325 327 327 328 327 327 328 332 329 331 332
329 331 334 331 330 331 321 317 316 318 320 318 319 321 321 318 313 313 313 314 314 315 318 319 319 317 317 318 318 319 320 320 324 325 326 325 325 327 327 326 324 323 328 328 328 331 330 330 331
324 330 329 329 329 328 318 319 316 317 319 318 318 318 316 314 312 314 316 316 317 317 318 320 320 319 317 318 320 320 320 320 321 322 322 321 324 324 324 325 326 322 327 328 329 331 331 329 330
328 329 329 328 326 325 320 318 319 320 319 319 318 315 313 313 314 316 316 317 318 320 321 319 318 317 317 320 320 320 320 321 320 321 321 322 323 321 319 322 322 323 327 328 329 330 330 329 332
326 325 324 324 325 322 320 317 318 320 320 320 320 318 315 315 315 316 316 318 320 321 320 320 317 318 320 321 321 322 321 319 319 319 319 320 321 321 321 321 323 324 326 327 329 329 331 334 332
324 324 325 324 321 318 318 317 318 319 321 319 319 317 316 317 317 316 317 319 321 320 319 319 318 319 320 321 322 324 321 320 321 320 320 319 319 320 321 321 323 325 326 326 328 330 331 333 332
324 324 321 320 317 317 316 318 319 319 319 318 316 316 317 317 317 316 319 321 321 320 320 320 319 320 321 321 322 323 323 322 321 321 320 320 320 321 320 320 322 323 323 325 327 326 328 330 331
324 322 319 316 316 316 318 317 318 319 318 318 317 317 317 317 317 318 320 322 322 321 321 320 322 321 322 322 322 323 322 321 321 321 321 320 321 322 322 321 320 320 324 326 325 326 328 329 331
321 322 319 318 317 318 317 319 319 320 319 319 317 317 316 317 317 318 321 322 322 322 321 321 323 324 323 322 323 324 323 322 322 322 319 320 321 322 322 324 323 324 325 323 323 326 326 328 331
321 320 323 319 317 317 318 322 322 319 319 320 317 316 317 318 317 318 322 322 322 321 322 321 324 325 325 325 324 324 324 324 324 323 323 322 322 322 323 325 324 325 325 324 326 326 326 328 331
321 325 325 323 318 317 318 320 321 318 319 321 318 317 317 317 318 320 322 322 322 320 321 321 322 324 323 323 325 325 325 325 325 324 325 325 325 325 325 325 325 323 324 326 327 328 327 329 329
324 323 322 323 321 317 319 319 320 319 319 320 319 317 318 318 320 321 323 322 321 319 318 319 322 323 323 323 325 326 325 326 324 323 323 323 323 324 325 325 323 322 326 327 327 328 328 330 330
323 324 324 322 321 321 322 322 322 321 319 320 319 318 319 319 319 321 323 322 322 322 322 319 322 322 321 325 325 325 327 325 325 323 321 322 323 324 326 326 327 327 326 327 328 328 329 330 332
322 323 323 322 321 321 323 322 322 321 321 321 321 319 319 320 320 321 322 323 323 321 319 322 318 318 316 324 325 324 325 325 324 323 324 323 323 324 325 325 325 326 327 327 329 329 330 331 331
322 324 324 324 321 320 320 322 322 322 319 319 320 320 319 320 321 323 323 323 322 321 320 322 317 316 316 324 326 326 327 326 325 325 325 326 325 326 324 325 326 326 327 328 329 329 330 330 332
325 322 323 323 323 324 321 325 323 323 323 321 321 319 319 319 321 322 322 322 323 322 319 318 319 318 320 325 327 328 328 328 326 325 326 327 326 326 325 327 326 327 327 328 329 328 328 330 331
324 322 323 323 324 322 322 322 321 321 324 324 325 321 319 319 320 322 322 320 322 323 323 321 323 319 324 325 324 326 326 327 326 327 326 327 327 327 326 327 326 327 327 327 329 328 328 330 331
323 322 320 320 321 324 323 322 321 322 324 324 325 323 319 319 320 322 320 319 321 323 323 322 325 319 324 325 323 323 323 325 328 328 327 326 324 325 328 327 327 326 326 327 329 330 329 330 330
322 324 326 327 327 324 321 322 323 324 324 323 324 324 320 319 320 322 321 319 320 322 323 324 326 322 321 324 326 323 321 324 326 328 328 327 326 325 327 327 327 327 327 328 328 329 329 330 330
324 325 325 327 324 324 321 323 322 325 324 326 325 324 320 319 320 322 321 319 320 321 324 324 325 323 319 322 325 320 320 322 324 328 328 328 327 326 326 327 328 327 327 327 329 331 330 330 329
321 323 323 324 322 323 323 324 325 327 328 328 325 321 320 319 320 322 321 320 320 321 324 325 325 323 319 319 321 320 319 319 319 325 327 327 327 328 326 327 328 328 328 327 328 328 329 329 328
323 321 323 321 325 327 323 325 325 325 325 329 326 323 321 320 320 321 321 320 320 322 322 325 326 323 321 318 319 320 318 318 318 319 325 324 323 322 322 327 328 328 327 327 327 328 328 328 329
321 323 322 322 322 325 327 325 327 329 331 335 330 325 321 320 320 321 321 320 320 321 321 323 327 322 321 319 318 318 317 317 319 318 320 320 319 320 321 322 326 328 327 327 327 328 329 329 329
323 323 324 324 326 324 325 325 325 330 333 334 331 324 321 321 320 321 321 320 320 320 321 322 326 323 321 320 319 318 318 316 319 318 320 318 318 320 323 324 325 326 328 328 328 327 328 329 328

GFSSGP_925_thetae_009.txt.gz
Theta_e
314 324 337 340 344 338 337 337 334 331 332 329 328 328 325 324 323 324 326 326 326 327 330 333 328 327 328 330 331 333 336 340 337 336 333 332 331 329 326 328 328 329 331 334 337 336 335 336 337
331 337 338 341 340 340 338 335 333 331 330 328 327 326 325 324 323 322 324 327 327 327 330 329 332 324 323 329 331 329 333 335 336 336 335 334 333 332 331 330 330 329 330 332 335 336 336 335 337
336 336 339 342 341 339 336 333 331 331 328 328 327 325 324 326 323 322 326 327 327 327 326 328 325 322 326 330 327 325 326 327 331 331 333 335 334 334 333 332 331 330 329 331 333 335 336 335 337
334 336 337 336 337 337 335 332 331 330 328 327 326 325 325 325 324 324 325 325 324 323 323 325 323 320 320 329 333 329 329 330 333 331 332 332 332 332 332 331 332 331 330 331 333 334 334 334 335
333 335 338 338 337 335 334 332 330 328 328 327 325 325 326 326 325 325 324 324 323 322 322 323 325 323 320 327 338 337 336 333 334 333 333 333 332 332 331 331 331 331 330 328 331 333 335 334 335
334 334 336 336 334 336 334 331 328 328 327 327 325 325 325 327 325 325 324 324 323 323 324 325 325 323 320 320 322 325 326 327 329 329 330 330 329 329 328 329 330 331 331 329 329 330 332 334 332
334 334 336 335 334 333 333 330 328 327 327 326 325 325 326 326 324 325 324 323 323 323 322 322 322 323 321 321 322 322 321 319 319 320 325 327 327 328 329 329 330 330 331 330 329 329 330 333 331
331 333 335 334 333 334 332 331 330 327 327 326 325 324 324 327 325 324 323 322 322 322 322 322 321 320 322 324 326 324 323 322 322 323 325 326 327 327 326 328 329 330 329 329 328 329 329 331 330
331 333 333 332 331 332 331 332 330 328 327 326 325 325 325 325 324 323 323 322 322 323 322 322 322 323 325 326 325 325 327 327 326 326 326 325 326 326 327 329 328 330 327 329 328 330 328 331 330
331 332 330 329 329 330 330 330 330 329 328 326 325 325 323 323 323 323 323 323 323 323 323 321 322 327 328 327 325 326 326 327 326 325 325 325 325 326 327 327 327 328 329 329 328 325 330 330 331
331 332 330 327 327 328 329 328 329 328 328 327 326 325 325 324 324 324 323 323 324 324 323 321 324 328 329 328 327 326 326 327 326 325 324 324 324 325 326 326 325 327 327 327 327 326 326 324 329
331 330 328 326 326 328 328 328 328 327 327 326 325 323 324 325 325 324 323 323 324 324 322 325 328 329 330 329 327 326 327 327 326 326 327 325 326 325 325 326 326 325 326 327 328 327 323 324 330
330 329 328 326 327 328 328 327 327 326 325 325 324 323 323 324 325 324 324 324 325 324 323 328 329 331 331 329 329 328 327 327 327 325 326 326 327 327 325 325 324 324 325 327 326 328 326 330 331
329 329 327 327 327 328 327 328 326 326 325 323 324 324 324 323 325 325 324 325 325 322 326 328 330 330 329 329 329 328 328 328 327 326 325 325 327 327 326 327 325 326 324 326 328 329 328 329 333
329 328 328 328 327 328 327 327 327 326 326 325 324 325 324 325 324 325 325 326 325 323 327 329 328 328 328 328 330 329 328 328 328 327 327 326 327 328 328 326 326 327 326 327 329 329 329 331 332
328 329 330 329 328 327 326 328 328 327 326 326 326 326 325 325 325 324 324 326 325 324 327 329 328 328 328 329 329 330 330 331 330 329 323 326 327 327 329 327 327 325 326 326 328 327 328 330 331
329 330 330 329 328 328 327 328 328 327 327 326 326 326 326 325 326 324 325 326 324 324 327 328 329 329 329 329 330 331 332 332 330 325 323 322 328 327 328 330 328 328 327 328 327 328 328 330 330
330 331 330 329 329 329 328 328 328 328 327 327 326 327 327 326 327 325 326 326 324 324 328 328 328 330 330 330 330 332 332 331 331 327 322 322 327 328 329 330 330 329 328 329 328 328 329 329 329
329 330 329 329 329 329 329 329 329 329 328 327 326 326 328 328 326 325 326 326 324 323 328 329 328 329 328 330 331 331 331 329 329 329 325 327 327 328 328 331 329 329 329 330 330 327 328 329 329
329 330 329 329 329 330 330 330 329 327 326 327 326 326 328 329 327 326 327 326 324 324 326 328 328 329 330 332 333 332 331 330 329 330 329 329 328 328 329 330 328 328 329 330 331 330 329 329 330
329 329 329 329 329 330 329 329 327 327 327 326 326 327 328 329 328 328 328 327 325 323 326 327 328 331 333 333 333 333 333 332 333 331 330 330 329 329 329 329 328 328 328 329 330 331 330 331 333
330 328 328 328 329 330 328 329 328 327 326 326 326 327 328 329 329 328 329 328 325 323 326 327 329 332 333 332 331 333 334 334 333 333 331 330 330 330 330 329 329 328 327 328 330 330 330 330 332
328 327 327 328 329 329 328 329 328 327 326 325 325 326 328 330 329 329 329 327 324 322 326 328 329 331 333 332 331 331 333 333 334 332 330 330 330 330 330 330 329 330 329 331 332 332 333 330 331
327 327 326 327 328 330 328 329 328 326 325 324 325 326 330 330 329 329 327 326 324 322 326 327 329 329 332 332 331 332 332 332 331 328 328 329 329 330 330 330 331 331 332 332 332 333 332 332 334
325 326 328 331 332 331 328 328 328 325 324 324 326 327 331 330 329 329 329 327 324 323 325 328 327 327 328 331 330 331 331 332 332 332 328 329 329 329 331 331 331 331 332 332 333 332 332 334 333
325 326 328 331 332 331 329 329 328 325 324 325 326 330 332 330 329 329 329 326 324 324 324 326 326 326 327 328 330 329 330 332 331 327 326 327 329 331 331 331 331 332 332 332 333 333 332 331 328
326 327 326 329 328 329 329 329 327 324 325 327 329 332 333 331 329 329 328 326 323 323 324 326 326 325 326 326 329 328 329 331 334 333 328 329 331 330 331 331 332 332 332 332 334 333 332 332 332
326 326 328 328 331 333 330 329 327 326 326 332 333 334 332 330 329 329 328 327 322 323 325 326 326 324 324 325 326 326 327 330 330 329 330 331 328 331 330 332 330 331 332 334 334 334 330 327 328
325 326 328 329 328 330 332 329 328 327 327 330 334 334 331 330 329 328 328 326 322 322 325 326 326 322 323 324 325 324 325 328 328 329 330 329 330 328 331 330 331 331 332 333 333 331 331 329 328
326 325 328 329 331 329 330 330 327 326 326 330 333 334 330 329 328 328 328 326 322 323 324 326 326 322 321 322 323 323 324 326 328 329 330 331 331 328 326 330 331 331 331 331 333 333 331 329 329

GFSSGP_925_thetae_012.txt.gz
Theta_e
313 317 327 335 343 343 341 338 338 333 332 330 329 328 327 325 323 326 326 327 325 335 336 331 326 326 326 328 332 333 336 339 339 339 337 334 333 330 330 331 331 330 329 330 331 336 337 335 336
324 327 337 340 347 348 341 338 335 332 330 329 328 327 326 325 323 323 327 327 326 328 332 337 332 328 320 324 333 336 338 338 338 337 338 335 334 334 333 333 333 332 331 330 330 334 337 338 335
332 337 338 340 343 344 340 336 332 331 329 328 328 327 326 326 324 323 327 327 327 327 328 330 328 325 320 326 335 339 339 338 338 335 333 333 335 335 334 334 334 333 332 331 330 331 335 337 337
338 336 337 339 338 336 337 335 332 331 329 328 327 326 327 324 324 324 325 325 324 324 328 327 324 323 321 321 331 339 339 338 333 333 333 332 333 333 332 332 333 333 333 332 330 333 334 335 335
335 335 338 340 337 337 337 335 332 329 328 328 327 326 328 325 324 324 325 324 324 323 324 328 325 324 323 320 325 335 336 333 332 330 331 333 333 333 333 332 332 332 332 332 330 332 334 335 334
334 334 337 337 335 335 335 334 330 329 328 327 326 326 329 326 325 324 324 324 324 324 324 326 326 324 323 322 319 318 319 321 323 325 327 330 331 330 330 329 329 330 330 332 332 329 332 333 333
334 335 336 335 334 333 334 334 332 330 327 327 326 326 329 328 325 324 324 324 324 324 324 323 324 324 323 322 322 322 324 324 323 321 322 326 328 328 328 329 330 330 331 332 332 328 330 331 333
333 333 333 333 335 334 333 333 332 332 328 328 326 326 326 329 326 325 324 324 323 323 323 324 323 323 322 326 328 327 325 325 327 326 326 328 327 326 327 328 329 330 331 332 330 331 330 329 330
332 333 334 334 332 331 330 331 331 331 329 328 327 325 326 327 326 324 324 323 323 323 324 324 323 324 326 328 328 327 327 328 328 328 327 326 325 326 327 328 330 330 330 330 328 329 329 329 329
331 333 333 332 331 329 329 329 330 329 330 330 327 326 325 325 324 324 324 324 324 324 325 323 322 326 329 330 328 327 327 328 329 326 326 326 325 326 326 326 328 329 330 330 330 329 331 330 328
331 333 331 332 331 328 328 328 328 328 328 328 327 326 326 324 325 325 324 324 325 325 325 323 326 328 331 331 329 328 327 328 328 326 327 326 325 325 326 326 327 326 329 328 330 329 327 329 325
332 331 331 331 330 328 327 327 329 328 328 327 326 325 326 327 326 325 325 324 325 326 325 326 328 331 332 332 330 328 328 328 326 327 327 326 325 327 327 327 327 326 327 327 328 328 327 327 325
333 332 330 330 329 328 327 328 329 328 327 326 325 324 325 326 328 326 324 325 326 326 324 328 330 331 333 332 330 330 329 328 328 327 327 327 326 326 326 326 325 326 325 326 326 327 328 325 324
331 331 329 329 329 328 327 328 328 328 327 325 324 324 325 325 327 326 326 326 326 326 325 329 330 331 331 330 330 331 330 329 328 327 327 325 325 326 326 326 324 325 325 327 327 328 329 328 330
329 330 328 329 329 328 328 328 328 327 327 327 326 326 326 326 324 327 327 326 327 325 327 329 329 329 329 330 331 330 331 329 328 329 327 327 326 326 328 327 326 324 324 326 326 326 329 330 330
328 328 328 328 329 329 329 329 328 328 328 329 327 327 327 328 327 326 327 327 328 325 327 329 330 329 329 330 330 330 331 331 330 330 327 325 324 327 327 327 326 324 324 324 326 327 328 330 330
328 329 328 329 329 329 329 329 328 328 329 330 329 329 328 329 330 327 326 327 327 325 327 329 330 330 331 330 330 331 332 331 330 330 325 323 323 329 328 326 328 326 325 325 326 328 328 330 330
329 328 328 330 330 329 329 329 329 329 329 331 331 330 330 329 330 328 326 327 327 325 327 330 329 330 331 330 330 332 331 332 331 328 327 322 323 329 329 328 326 327 325 326 327 328 329 329 330
327 327 329 331 330 330 331 333 330 330 330 331 331 331 332 332 331 328 327 328 326 325 326 331 329 330 330 331 331 332 329 330 330 329 329 327 327 328 328 328 326 328 326 327 327 327 328 330 330
326 328 329 329 329 328 329 330 330 330 331 330 329 330 332 333 331 330 329 329 326 326 326 330 329 330 332 333 333 334 333 332 330 331 329 329 328 328 329 327 327 328 329 327 327 327 328 329 330
327 329 330 329 329 328 329 331 331 330 330 329 329 328 329 333 331 331 331 330 327 326 325 329 329 332 334 334 332 333 334 331 332 331 330 329 328 328 329 330 327 326 329 331 328 328 329 330 329
329 328 328 329 329 329 328 333 333 330 330 328 326 329 330 333 332 331 332 331 329 326 326 328 331 333 334 332 333 331 332 334 332 329 330 329 330 329 329 329 328 328 328 328 328 327 328 328 331
328 328 328 329 330 330 328 330 329 330 331 328 326 326 331 333 332 331 332 331 329 325 327 328 331 333 334 333 333 333 332 331 330 327 330 329 327 330 330 329 329 328 328 327 328 328 328 326 329
327 328 328 328 328 332 329 330 330 330 327 326 325 327 331 332 332 332 331 330 328 324 328 329 330 331 333 333 332 331 332 332 331 327 329 329 330 329 330 329 330 330 328 331 331 330 329 330 330
327 332 330 333 330 331 328 330 331 331 327 325 325 328 333 333 332 332 332 331 327 324 328 329 329 329 330 332 331 332 331 331 331 326 327 330 330 330 330 330 330 332 331 331 332 331 330 329 332
329 331 331 331 332 330 331 331 329 327 326 325 325 329 334 333 332 332 331 330 327 325 327 328 328 328 329 330 331 331 331 331 328 327 328 330 329 330 330 330 330 329 333 332 331 330 330 333 332
329 330 328 329 328 330 330 332 330 328 325 325 327 333 336 334 333 332 331 329 327 326 325 327 327 327 328 329 330 330 331 331 332 329 329 330 331 330 330 330 331 331 331 330 330 330 330 329 330
330 328 328 328 332 334 329 330 329 329 326 329 334 335 337 334 332 332 331 329 326 326 326 327 327 326 326 327 328 328 331 331 329 331 332 329 331 330 326 330 331 332 331 330 332 331 330 330 328
328 329 328 330 328 332 334 331 335 332 331 337 335 336 336 333 331 331 330 329 325 325 326 327 327 325 325 325 326 326 329 329 330 331 330 329 330 331 331 329 330 332 333 332 332 332 331 330 328
328 329 330 331 334 330 332 331 332 332 330 330 336 336 333 332 331 330 330 329 324 325 327 327 327 323 324 324 325 325 328 329 330 331 331 330 326 330 331 331 331 331 331 332 328 329 328 327 328

GFSSGP_925_thetae_015.txt.gz
Theta_e
315 313 313 328 335 339 341 339 335 331 328 326 324 325 321 320 322 331 326 327 335 334 330 327 326 324 325 325 327 329 332 334 336 339 339 335 331 327 327 330 332 332 331 330 330 330 335 338 336
317 319 324 336 342 346 342 338 338 328 326 325 325 325 322 322 324 325 326 327 328 330 332 331 330 327 322 319 324 330 334 335 334 338 335 337 334 333 333 334 334 334 333 332 331 330 333 338 339
323 326 333 336 340 343 343 338 335 328 326 326 326 325 326 324 324 327 327 326 329 328 329 332 332 328 324 325 329 333 336 335 337 338 336 334 334 334 336 335 335 334 333 333 333 331 330 334 337
330 336 334 336 337 336 336 334 334 329 326 325 325 325 325 325 324 327 326 325 326 328 331 330 328 326 324 326 332 337 337 337 336 337 335 334 333 333 334 334 333 333 333 333 333 332 331 332 336
334 333 334 336 337 336 333 334 333 327 325 324 324 326 324 324 325 325 324 324 324 327 327 325 324 323 323 322 320 321 329 333 333 332 333 334 333 332 333 333 333 332 332 332 333 333 331 335 334
332 328 332 334 334 332 332 331 332 328 327 324 323 327 325 324 324 324 324 323 324 324 325 326 326 325 323 322 321 320 319 319 320 321 322 325 329 331 331 331 331 330 330 330 331 333 331 333 332
332 332 332 332 333 331 332 332 333 331 327 324 324 325 325 324 324 324 324 324 324 324 325 325 323 323 323 323 322 321 322 325 325 325 324 323 326 328 328 329 329 329 329 330 331 333 330 330 331
330 330 332 331 331 330 329 332 331 330 328 325 325 325 326 324 324 324 324 324 323 323 322 323 323 324 325 327 326 327 326 325 326 326 327 326 326 324 327 328 328 328 330 330 332 332 330 329 329
331 331 332 331 331 330 327 326 327 327 328 328 325 324 326 326 325 324 324 324 323 323 323 323 324 324 326 327 329 329 326 326 327 328 329 326 325 324 325 325 329 329 331 330 332 332 329 329 328
331 329 331 330 329 329 327 325 325 327 327 328 327 325 326 326 325 323 322 322 322 323 324 322 322 323 325 325 330 329 329 328 328 328 326 325 324 323 324 325 327 329 328 331 331 331 328 330 328
330 330 329 329 329 328 329 324 324 326 327 327 325 324 324 324 322 322 322 322 325 324 323 324 326 327 329 330 330 330 329 329 328 327 326 326 326 324 325 326 326 327 326 328 330 329 330 331 328
332 330 330 330 329 329 327 326 326 325 326 326 324 324 322 322 320 321 322 324 325 324 325 327 328 330 330 332 331 328 328 329 328 326 327 328 327 324 326 327 326 326 326 327 328 329 329 326 326
331 331 330 330 329 326 327 327 327 325 326 326 323 323 323 321 321 323 323 325 325 324 325 328 329 330 332 332 331 328 328 328 328 328 327 328 327 326 324 325 325 324 326 326 327 328 327 326 326
329 328 328 329 329 326 327 327 326 325 326 323 323 322 321 320 322 324 325 325 325 324 327 328 329 330 330 330 329 329 330 330 330 328 326 327 327 326 324 325 326 325 325 326 326 327 327 327 327
323 325 326 328 327 326 326 328 326 326 325 325 323 321 321 322 324 323 325 326 326 324 326 328 328 329 329 330 330 330 330 330 330 329 327 328 326 326 326 325 326 325 324 324 326 326 327 328 328
322 323 327 326 326 326 325 328 326 325 325 326 325 324 323 322 321 323 325 327 326 324 328 328 329 329 329 330 330 330 330 332 331 331 329 327 327 325 326 327 327 326 324 324 326 326 327 328 328
322 323 324 326 326 326 327 328 327 326 325 326 326 325 324 323 323 327 327 327 326 325 327 329 329 329 330 330 330 330 331 331 331 328 328 326 323 320 327 327 326 327 324 324 325 325 326 329 329
322 323 325 326 327 325 327 329 327 326 325 325 325 326 326 325 325 327 328 327 325 325 326 329 329 328 330 329 331 331 331 329 329 329 328 327 322 322 328 328 327 327 324 325 324 326 327 328 329
322 324 325 327 327 327 330 330 329 328 327 327 325 325 327 326 325 327 328 327 325 325 326 329 330 329 330 332 331 333 332 330 330 330 329 328 327 326 327 328 327 326 325 325 325 326 328 328 328
326 324 324 325 326 330 329 330 328 329 327 326 326 325 325 327 326 327 328 326 325 325 325 330 330 330 332 334 332 334 331 331 331 330 330 329 328 327 327 328 327 325 325 326 326 327 328 327 329
325 326 325 325 326 327 327 327 328 329 327 327 326 325 326 327 327 327 328 326 325 325 325 329 330 331 334 331 332 331 330 330 330 329 328 329 328 327 328 327 326 325 325 325 327 327 327 329 329
324 326 325 326 327 328 328 327 328 327 326 326 326 324 327 326 327 327 328 327 326 327 324 329 330 332 333 331 333 332 331 331 330 328 329 329 329 329 328 327 327 326 325 325 327 327 327 328 330
323 326 325 326 327 327 327 326 326 327 327 326 325 323 327 327 327 328 328 328 326 325 325 328 331 333 333 332 332 331 331 331 328 327 329 328 327 329 328 329 328 328 327 327 327 326 327 327 328
324 325 326 326 327 328 328 327 327 327 328 324 325 327 328 327 326 328 329 329 328 326 327 329 330 333 333 332 332 331 329 329 328 328 329 329 329 329 329 329 329 329 327 326 327 327 325 327 326
325 324 326 328 327 327 326 326 325 326 327 323 327 329 327 327 327 328 328 326 326 327 327 329 330 330 330 331 331 330 329 327 326 327 329 330 330 330 329 328 329 329 327 327 326 326 325 327 329
321 325 326 330 331 328 327 327 327 327 326 324 328 328 328 327 327 327 327 325 324 326 328 329 329 328 329 331 331 331 329 329 327 328 331 329 330 330 329 329 328 328 329 328 327 328 329 329 330
323 326 324 326 328 326 326 330 328 325 323 323 330 330 327 327 327 327 326 325 325 327 327 327 329 327 329 330 329 331 331 330 330 330 330 330 329 330 330 329 329 329 328 329 329 329 329 329 331
321 325 327 325 327 328 328 329 332 327 324 329 333 330 329 327 327 327 326 324 325 325 325 328 328 327 327 329 329 329 330 330 331 330 329 329 328 329 330 331 330 331 330 330 329 329 329 330 330
320 324 325 322 322 326 328 329 327 324 328 331 332 331 329 327 327 326 324 325 325 325 325 328 326 326 326 327 327 329 329 330 330 329 327 330 330 329 330 330 330 330 330 330 328 327 328 330 327
322 324 324 325 328 325 326 330 326 329 331 331 333 331 328 325 325 325 324 323 325 326 326 327 326 326 324 326 325 328 329 330 330 330 328 326 330 330 330 331 330 329 329 329 328 328 327 328 328

GFSSGP_925_thetae_018.txt.gz
Theta_e
310 311 314 327 335 335 341 339 333 335 327 325 323 320 320 320 322 323 334 329 336 332 326 325 322 322 322 323 325 326 327 328 329 330 332 334 330 325 330 333 332 331 331 331 330 330 329 335 337
311 315 323 332 340 345 342 336 335 332 325 322 319 318 320 322 326 325 330 332 334 332 327 325 325 324 324 324 326 328 329 330 331 334 337 336 336 334 332 333 334 334 334 333 333 332 330 332 338
317 322 328 337 338 342 341 336 334 333 324 324 323 322 322 324 325 324 327 330 332 331 329 329 327 326 325 324 326 329 330 331 335 338 337 337 335 334 333 333 335 334 334 333 332 333 332 329 335
323 333 333 335 335 333 336 334 332 332 324 323 322 324 323 323 326 326 327 328 328 329 330 330 330 328 326 325 325 326 330 334 339 338 337 336 335 333 332 334 334 334 333 332 333 334 333 331 331
332 330 334 335 336 334 331 331 331 328 325 322 323 325 323 324 327 326 327 329 329 330 331 333 329 326 323 323 322 322 324 332 335 335 335 335 334 332 332 333 332 332 332 332 333 333 334 332 333
332 326 330 332 332 331 328 329 331 331 326 322 323 323 322 325 326 325 325 326 326 329 332 328 324 323 323 322 321 321 320 320 321 322 323 325 331 332 331 331 331 331 331 331 332 332 333 332 332
331 331 333 332 332 331 330 329 329 330 330 324 323 323 324 322 325 324 323 324 324 324 324 324 324 324 323 322 322 321 321 323 325 324 325 325 325 328 329 329 329 329 329 330 330 331 331 331 331
327 328 332 330 332 331 329 324 327 329 329 324 324 326 323 321 324 324 323 323 323 323 324 324 324 323 324 323 324 325 325 325 326 325 326 326 326 326 328 328 328 328 329 328 330 331 330 330 330
328 331 333 332 330 330 328 326 324 326 327 325 323 324 325 324 323 323 323 323 324 326 325 325 324 325 325 326 327 328 327 326 326 326 327 328 326 325 324 323 327 329 331 330 330 331 331 329 330
329 331 334 333 329 328 327 325 324 324 323 326 325 325 325 324 322 321 321 321 321 321 322 323 324 324 326 327 330 329 328 328 329 330 328 327 325 325 323 324 326 328 330 329 328 331 332 330 330
330 334 332 331 328 327 327 328 325 325 324 324 324 325 323 322 321 321 321 321 321 322 323 323 324 325 328 328 329 329 329 328 328 329 327 326 326 326 323 325 325 326 325 326 329 330 331 329 330
331 331 331 331 329 329 328 328 326 325 324 324 323 325 323 322 320 319 319 322 322 323 323 325 327 329 328 329 329 327 327 328 328 328 327 327 327 326 326 324 326 326 325 326 327 327 329 329 330
331 331 331 330 329 328 328 327 326 325 325 323 323 324 323 322 320 321 320 323 323 325 327 328 328 327 329 327 328 329 328 328 328 329 328 328 327 327 327 325 325 325 324 326 326 327 328 328 328
323 326 329 329 328 327 327 327 325 326 325 323 322 322 321 320 319 319 321 323 323 326 327 328 328 328 329 328 329 329 330 329 330 330 329 327 326 327 327 325 325 325 325 325 326 326 328 327 325
318 320 321 322 323 324 324 325 325 325 324 322 320 320 320 320 320 321 323 323 323 326 328 328 328 329 328 328 329 330 330 330 330 331 330 328 327 326 326 325 325 325 325 324 325 326 326 326 327
319 319 321 322 322 324 323 327 324 323 324 323 322 320 319 318 320 321 323 324 323 327 328 328 328 328 328 329 329 329 330 330 331 330 329 329 328 326 325 325 326 326 325 324 324 326 326 326 327
318 321 321 321 321 323 324 325 324 324 325 324 323 322 321 320 319 321 323 324 324 327 328 328 329 328 329 330 328 330 330 331 330 329 328 327 328 324 321 325 326 326 326 324 324 326 326 326 328
322 320 321 322 323 323 323 323 324 325 324 323 322 323 323 322 320 323 324 323 326 327 328 328 328 328 329 329 330 331 331 330 329 329 330 328 327 322 323 326 326 326 325 324 324 325 326 326 327
321 321 321 322 323 324 324 325 326 326 324 322 321 322 323 323 324 326 324 324 326 327 327 327 329 328 329 330 331 332 332 331 330 330 329 328 327 324 323 327 327 326 325 324 324 324 325 327 328
318 320 322 322 322 322 323 326 326 325 325 323 323 323 323 325 326 326 324 324 326 326 327 330 329 329 331 334 331 332 332 331 331 330 329 329 328 327 325 327 327 326 325 325 324 325 327 326 328
320 320 321 325 324 323 323 325 326 326 326 325 324 322 324 326 326 326 324 323 325 326 327 330 329 330 333 331 331 331 330 330 330 329 328 328 329 327 327 327 326 325 325 325 325 326 327 327 328
321 322 322 324 326 326 324 327 323 324 324 324 322 322 324 324 325 326 323 322 323 324 328 328 329 331 333 331 331 331 330 330 330 328 328 328 328 327 328 327 325 324 325 325 326 326 327 327 328
320 322 323 324 326 323 324 324 323 323 325 324 323 324 324 323 325 325 323 323 325 326 327 329 331 333 332 331 331 329 329 329 327 327 329 328 327 328 328 327 327 325 325 324 326 326 327 327 327
318 321 321 322 323 325 324 325 327 324 325 325 322 325 324 324 324 325 324 324 325 324 328 329 330 333 333 331 331 329 327 326 325 326 328 329 329 328 328 328 326 327 326 325 326 327 326 327 327
317 318 322 323 326 328 324 326 327 323 324 324 325 326 325 325 326 326 325 323 324 327 328 330 330 332 331 331 330 329 327 325 326 329 330 329 329 329 328 328 328 327 327 327 326 326 327 326 327
314 317 322 327 327 326 324 325 325 323 323 323 327 326 326 325 326 326 325 323 324 326 328 330 329 329 330 330 330 330 329 329 329 329 330 329 329 329 329 328 327 327 327 327 326 325 324 325 328
315 315 318 322 325 324 324 325 325 325 325 327 326 327 326 325 326 326 323 321 323 326 328 329 328 328 330 330 329 330 330 329 330 330 329 329 329 329 329 328 328 328 328 328 327 327 328 328 329
315 319 322 320 326 327 325 326 328 323 327 328 328 326 325 325 325 325 323 320 323 327 327 328 328 327 329 329 328 330 330 330 329 329 329 328 329 330 329 329 327 328 329 329 328 329 329 328 330
315 316 321 321 322 325 325 325 322 324 322 329 327 326 326 325 326 325 322 322 323 326 325 328 327 328 327 329 328 330 330 330 328 327 329 328 328 330 331 330 330 330 330 329 329 329 329 328 329
316 316 320 324 324 322 323 323 323 321 328 328 327 327 325 325 325 324 322 321 322 324 326 327 326 326 326 326 327 329 329 329 329 327 328 330 328 330 330 330 330 330 329 328 328 328 327 326 325

GFSSGP_925_thetae_021.txt.gz
Theta_e
311 309 319 327 334 334 340 339 333 335 330 324 322 321 321 320 321 321 330 337 336 330 330 325 324 320 320 321 323 324 325 324 324 323 325 330 334 333 333 333 332 331 331 331 331 331 329 329 335
311 316 324 331 338 343 340 337 336 331 329 318 319 319 320 321 325 326 334 337 337 335 332 326 322 320 321 322 323 325 326 327 328 329 333 334 334 334 332 332 333 333 333 333 333 333 333 330 332
315 323 327 336 337 342 340 336 334 332 329 321 322 322 321 323 325 327 328 331 337 335 329 324 322 322 323 324 324 325 327 329 333 338 338 337 337 336 334 333 332 333 334 333 332 332 333 333 330
323 331 331 337 338 334 336 334 332 331 328 321 321 324 322 324 325 327 327 330 334 332 328 325 324 324 325 325 323 323 325 328 336 339 339 337 337 336 334 334 333 333 333 332 332 332 334 334 333
331 328 336 335 336 333 331 329 326 330 325 322 322 324 322 323 325 326 327 331 331 329 328 326 327 326 326 325 323 323 323 322 331 339 338 337 336 335 334 333 332 333 332 331 331 332 333 335 333
330 324 331 333 331 330 328 326 328 328 327 323 324 322 321 322 325 326 327 328 327 326 328 329 329 329 327 325 324 324 321 322 330 329 327 328 329 332 333 332 331 331 331 331 332 332 332 332 333
330 329 333 331 333 331 328 326 327 327 327 322 321 322 321 322 325 326 327 327 327 328 329 330 331 328 325 324 324 322 322 322 322 323 324 324 325 327 329 329 330 330 330 331 331 331 332 331 331
327 327 332 329 331 330 327 327 324 325 328 322 323 325 323 320 324 324 328 329 328 328 330 332 329 326 324 324 323 322 322 322 323 324 325 325 326 326 329 329 329 329 328 328 329 329 329 329 331
324 329 331 330 330 329 327 327 326 324 325 323 322 323 323 323 323 322 327 329 329 331 333 330 326 325 324 323 323 324 324 324 323 324 326 326 327 327 325 324 323 327 329 330 330 329 330 330 331
328 329 330 328 328 328 327 327 325 324 325 323 324 324 323 322 321 320 321 322 325 327 327 326 326 325 325 324 325 326 328 329 329 329 329 327 327 326 325 324 325 327 328 330 330 330 331 331 332
327 332 329 328 329 328 327 328 328 325 325 323 323 323 321 320 319 320 320 321 323 325 325 327 326 325 324 325 327 329 329 328 328 328 329 328 327 325 326 324 323 325 325 325 325 327 330 330 330
330 328 330 330 330 330 330 329 328 328 327 326 322 323 321 320 319 319 320 320 320 321 322 323 325 324 325 327 329 328 326 326 327 327 327 327 326 326 326 326 324 324 325 325 325 326 329 330 329
329 328 327 328 329 329 329 328 329 329 327 326 321 323 322 321 319 320 321 320 320 320 323 324 324 325 327 329 328 328 328 328 328 328 329 328 327 327 327 327 326 324 324 324 325 325 327 328 329
320 322 324 325 327 328 327 326 324 325 324 323 321 322 322 321 320 319 318 320 320 321 323 323 327 327 328 327 327 328 329 329 329 329 330 329 328 327 326 327 326 324 324 324 324 325 326 328 326
315 316 317 319 321 322 322 323 324 323 322 322 320 320 321 321 320 318 319 319 321 322 323 327 328 328 329 327 328 329 329 329 329 330 330 330 329 327 326 326 325 324 324 325 324 325 326 327 327
317 317 319 320 320 321 321 324 324 323 321 322 322 319 320 320 320 320 319 320 321 324 327 328 328 329 328 328 329 328 329 330 330 330 329 328 329 328 327 326 325 325 326 325 324 324 326 326 326
315 317 317 318 319 320 321 322 322 322 321 322 322 321 318 320 317 318 320 321 322 326 327 328 328 328 328 329 328 329 330 330 330 329 328 328 327 328 326 325 324 325 326 326 324 324 325 326 326
317 318 318 319 320 319 320 321 322 322 322 323 322 321 320 319 317 318 321 321 323 327 328 328 328 328 328 328 329 330 331 331 329 328 328 329 327 327 324 321 323 327 326 326 323 324 325 325 326
319 320 321 321 321 321 321 321 322 322 321 322 321 320 321 320 319 321 321 322 326 327 328 328 327 328 328 329 330 331 331 331 330 330 330 329 328 327 322 321 326 327 326 324 323 325 326 325 326
318 318 319 320 321 320 320 321 321 321 321 322 323 321 322 325 324 322 321 324 326 327 327 327 328 328 330 332 330 331 331 329 329 330 330 329 329 328 326 324 327 327 325 324 323 324 325 325 326
319 317 318 319 320 322 322 324 323 323 322 322 322 321 321 323 325 322 322 324 326 326 327 328 328 329 332 330 330 330 329 329 329 329 327 328 329 328 328 325 326 327 325 324 323 324 325 326 326
316 317 318 319 320 321 322 325 322 322 322 322 320 319 319 323 324 323 322 321 324 326 328 328 329 331 331 330 331 329 328 328 329 327 328 327 328 328 327 327 327 325 325 324 323 324 326 327 327
317 318 320 321 323 323 324 323 322 321 323 322 320 320 321 322 324 323 321 321 324 326 328 328 330 332 331 331 330 327 327 327 326 327 328 328 327 328 327 326 325 324 325 325 325 326 326 326 327
315 317 319 319 320 324 322 323 323 322 323 323 322 324 322 322 323 320 321 322 323 326 328 329 331 332 331 331 330 327 325 325 325 327 328 328 329 328 327 327 326 325 325 324 324 326 326 326 327
313 312 316 319 321 325 321 323 324 322 322 322 322 323 322 323 323 322 322 321 322 325 328 329 330 332 331 330 329 329 326 326 327 329 329 328 329 328 327 327 326 327 326 324 326 326 326 327 325
313 315 319 323 325 325 322 326 325 322 322 321 321 322 323 324 323 323 322 321 321 326 328 329 330 330 330 330 329 329 329 329 329 329 329 329 329 328 328 328 327 326 326 326 326 326 326 327 327
312 315 315 319 322 323 323 323 323 323 324 323 325 325 324 325 324 323 321 321 322 325 328 329 328 328 329 330 329 329 329 329 329 329 328 329 329 329 328 327 327 327 327 326 326 325 325 325 326
312 312 315 315 323 325 324 324 325 324 325 327 327 325 324 324 324 323 322 320 323 325 327 328 328 327 329 329 328 329 329 330 328 327 328 327 329 329 329 327 327 328 328 327 326 326 326 326 328
312 314 314 313 317 323 324 324 320 322 324 326 325 324 324 325 325 324 322 320 323 325 326 328 327 326 329 328 328 329 329 328 327 326 329 327 329 329 329 328 327 328 329 328 327 328 329 329 329
314 313 313 319 320 319 321 323 321 320 320 325 324 324 323 323 324 323 320 318 322 324 324 326 327 327 327 328 327 329 329 328 327 326 329 328 329 329 329 329 328 329 329 328 328 328 328 328 328

GFSSGP_925_thetae_024.txt.gz
Theta_e
310 311 323 326 333 333 339 338 332 335 332 323 320 319 318 320 329 324 327 333 333 329 329 320 324 323 319 319 321 321 321 322 322 322 324 329 332 332 333 332 332 331 330 330 331 332 331 330 329
311 317 325 330 337 341 338 336 337 333 330 319 318 319 319 321 324 327 333 335 335 329 332 322 324 322 319 320 321 322 323 324 325 327 330 332 333 334 334 333 333 332 332 332 333 333 334 333 330
318 323 327 335 336 341 338 335 334 331 329 321 321 321 320 321 324 328 331 335 335 330 332 326 325 321 319 320 322 323 325 326 328 332 335 336 336 336 335 332 332 332 332 332 334 332 333 334 334
324 330 330 338 340 336 335 333 331 327 328 321 320 323 321 322 324 328 329 333 334 333 334 328 325 321 320 321 323 323 324 325 328 336 337 338 336 335 332 333 333 333 332 333 333 332 332 334 335
331 328 338 338 338 334 330 330 328 327 326 321 321 323 322 321 324 328 326 330 332 335 334 329 325 322 321 322 324 325 324 324 326 335 338 338 337 335 332 333 334 333 332 333 332 331 331 331 334
329 325 333 335 332 329 328 327 327 327 325 322 323 322 321 321 324 326 326 327 330 330 331 328 325 323 323 324 326 325 324 324 324 326 335 335 332 333 333 333 333 333 332 331 332 332 332 332 332
329 328 332 331 332 330 329 325 326 326 325 325 320 323 320 320 323 325 327 327 329 329 328 327 326 325 326 327 327 326 324 324 323 323 327 326 325 327 328 330 330 330 330 331 332 332 332 332 331
326 326 331 330 330 328 327 326 324 325 326 322 322 323 321 320 323 326 329 330 330 329 327 327 327 327 328 328 328 326 325 325 323 323 325 325 325 327 327 328 329 330 329 330 328 329 330 329 330
322 328 329 329 329 328 325 328 324 323 324 322 322 322 321 322 323 328 331 332 331 330 328 328 329 330 330 329 327 326 325 324 323 325 326 326 326 326 326 324 324 326 327 329 330 330 329 329 329
327 328 329 325 325 326 326 328 327 326 326 326 323 321 323 321 321 322 325 327 330 330 330 330 331 332 329 327 325 326 325 326 330 328 325 327 327 327 327 325 324 323 328 328 329 331 331 330 330
326 331 328 326 325 327 328 328 329 327 327 327 325 326 322 319 319 320 322 324 326 328 328 330 333 331 327 325 324 324 324 327 328 329 328 328 329 328 326 325 325 323 324 325 325 325 325 330 330
329 328 328 326 327 328 329 327 329 329 328 327 326 324 321 318 318 318 320 322 324 325 326 331 332 328 325 325 325 324 324 325 327 327 327 328 329 328 326 325 325 324 323 325 325 324 325 329 330
326 326 326 325 324 326 327 329 329 328 328 326 324 320 320 319 319 320 320 321 320 321 323 326 326 326 325 325 325 324 326 326 327 327 327 327 327 327 326 326 326 326 324 323 323 324 325 327 329
321 324 322 322 323 323 326 325 325 325 325 322 322 320 320 319 318 318 319 319 320 319 320 323 325 325 325 326 325 325 327 328 328 328 329 329 329 328 327 326 326 326 324 324 324 323 325 326 328
315 315 314 315 316 318 320 319 321 321 321 321 320 320 319 320 319 317 319 319 319 318 319 321 324 324 327 326 326 327 328 328 328 329 329 330 329 329 328 326 326 326 324 324 324 323 325 326 328
317 315 317 317 318 317 318 319 319 320 320 321 320 320 318 319 319 320 320 319 319 319 320 323 324 327 327 327 327 328 328 328 329 329 330 329 328 328 328 327 325 325 324 325 325 323 324 326 327
314 315 314 314 315 317 319 319 319 320 320 320 320 320 320 318 318 320 320 318 319 320 321 324 327 327 328 327 328 328 328 329 329 330 329 328 328 327 328 327 325 325 324 325 325 323 324 325 326
315 314 315 314 317 316 316 317 319 319 319 319 319 319 319 319 317 317 318 319 321 321 323 327 327 328 327 328 327 328 330 330 330 329 328 328 329 327 327 326 324 323 324 326 325 323 324 325 325
314 314 315 316 318 319 318 318 319 320 318 318 319 319 319 318 317 317 319 320 322 324 327 327 328 327 328 327 329 329 330 330 330 330 329 329 329 328 326 324 322 324 326 325 325 323 324 325 325
316 317 318 318 319 319 319 319 319 319 319 318 320 320 319 320 322 319 319 322 324 325 327 327 327 328 327 329 330 330 330 329 329 329 329 329 328 328 327 323 321 326 326 325 323 324 325 325 326
318 318 318 318 318 317 317 318 318 319 320 319 319 320 319 319 322 320 321 322 324 325 327 327 327 327 329 330 329 329 327 327 328 328 328 327 328 328 328 327 325 326 326 324 323 324 324 325 326
318 319 320 321 319 318 318 322 319 320 321 320 320 317 317 321 322 320 322 322 324 326 326 327 327 329 330 329 330 328 326 326 327 327 326 327 326 327 327 326 325 326 325 324 323 323 324 325 325
318 319 320 319 317 319 320 322 322 320 321 321 320 319 317 321 321 321 322 323 325 326 327 327 328 331 330 330 330 327 325 325 325 326 326 328 328 327 327 327 326 325 324 323 323 323 325 326 325
316 316 315 316 316 319 317 321 320 321 322 321 320 321 322 322 320 320 321 322 324 326 327 328 329 331 330 330 329 326 324 325 326 327 328 327 328 328 327 326 325 324 324 324 324 325 325 326 326
313 312 313 315 316 319 319 320 319 320 320 320 320 319 321 322 320 321 321 320 322 325 327 328 330 331 331 330 329 328 326 326 327 328 328 328 328 327 327 327 326 325 324 323 324 325 326 326 326
314 312 314 316 321 322 319 323 322 320 321 320 319 319 322 321 320 321 320 320 322 325 327 329 329 331 331 329 328 328 328 328 328 328 328 328 328 328 327 327 326 326 325 324 325 325 326 326 326
312 315 312 315 319 321 321 321 321 320 321 320 320 323 323 322 320 320 320 320 322 325 327 328 329 329 330 329 328 329 329 329 329 328 328 328 328 328 327 327 326 326 326 326 326 325 325 326 327
312 312 314 313 319 323 322 323 323 323 322 325 325 323 322 322 321 321 320 319 322 326 327 327 328 328 328 329 328 329 329 329 327 327 327 328 328 328 327 327 327 327 327 326 325 324 325 325 326
309 312 311 311 315 319 322 322 319 321 321 324 323 322 322 323 322 322 320 320 322 325 326 327 327 326 328 328 327 328 329 328 326 327 327 328 329 328 328 327 327 327 327 326 325 325 325 325 327
312 311 311 314 314 315 319 320 319 319 319 321 322 322 321 322 322 321 320 319 321 323 325 326 326 326 328 327 327 328 329 328 326 327 328 328 329 329 328 327 326 327 328 327 327 327 326 326 324

GFSSGP_925_thetae_027.txt.gz
Theta_e
310 310 319 326 337 338 342 343 336 339 336 326 325 328 329 330 335 330 326 331 333 329 321 320 321 323 316 316 318 319 319 319 319 319 320 322 323 327 329 327 328 326 327 331 332 332 333 331 329
310 319 325 334 343 345 344 340 342 338 335 332 323 322 322 326 324 328 335 332 332 330 324 321 320 324 318 317 319 320 320 320 321 321 323 326 329 333 334 334 334 333 332 331 332 333 334 334 334
314 323 332 340 345 346 341 339 338 336 332 330 326 322 323 326 327 329 333 333 332 330 327 328 321 324 321 318 319 320 321 321 322 323 327 331 332 334 333 335 334 332 331 330 330 332 335 335 335
323 330 334 340 343 342 340 338 336 335 332 326 325 326 324 323 326 327 330 334 333 331 330 330 324 325 322 319 320 321 321 322 325 329 334 335 336 336 335 336 335 334 333 332 331 335 334 332 333
330 335 339 344 342 339 337 336 335 334 331 330 324 327 327 324 323 324 330 334 332 332 328 333 325 325 323 320 320 322 323 324 326 327 334 337 337 337 337 336 335 334 334 333 332 334 332 332 332
333 332 339 339 337 335 333 332 332 332 330 329 324 325 327 323 324 326 329 332 331 332 329 332 327 325 323 321 321 323 324 325 326 326 332 334 336 335 335 335 334 334 334 334 333 333 332 331 330
332 335 332 334 332 332 332 330 331 329 329 329 324 327 328 326 324 325 327 330 329 333 330 332 330 326 324 322 322 324 326 326 326 327 329 332 329 329 334 332 331 331 332 332 332 332 333 332 331
332 333 331 332 329 329 330 329 328 330 330 325 324 329 331 328 322 324 329 332 331 333 333 332 333 339 339 336 324 326 327 326 326 327 329 329 327 328 326 327 327 329 330 330 331 331 331 330 329
327 331 330 328 329 328 329 330 327 327 330 328 328 329 328 324 323 328 332 332 332 334 333 334 337 339 340 339 338 329 329 328 328 332 333 328 331 330 330 330 326 327 329 328 329 330 330 330 329
331 332 330 328 327 328 328 328 329 330 330 330 330 329 325 324 324 327 331 331 332 333 333 334 333 336 338 339 339 340 338 336 337 335 334 333 331 331 329 328 326 325 327 328 328 329 331 330 331
331 333 330 329 328 327 329 329 329 330 330 329 330 330 331 330 326 326 327 329 330 331 332 331 331 335 337 338 337 336 334 333 331 329 330 330 330 331 331 330 329 328 327 327 327 327 328 328 330
330 330 330 329 329 329 330 329 330 330 330 329 329 330 330 329 328 326 326 327 329 329 331 332 332 332 333 335 330 327 324 325 327 326 327 329 331 331 330 329 328 327 327 326 327 327 327 328 330
330 329 329 330 330 330 329 329 329 328 328 327 329 329 328 327 328 326 325 326 326 327 328 330 331 332 334 330 326 324 325 325 327 325 326 327 329 330 330 329 328 327 327 327 326 326 327 328 330
324 327 326 327 328 328 327 326 324 324 325 325 325 324 325 326 327 326 325 325 324 325 325 326 328 332 331 326 324 325 324 324 326 327 328 328 329 329 329 329 328 328 328 327 326 326 326 328 329
319 322 322 322 322 321 319 319 319 321 321 322 322 324 325 326 325 326 326 325 324 324 323 323 328 330 326 325 325 325 323 326 327 328 328 328 329 329 329 330 329 328 326 326 326 326 326 328 329
318 319 320 320 319 319 318 320 320 321 322 323 324 324 325 326 326 325 325 325 325 323 323 320 324 326 325 325 326 325 325 327 328 328 329 329 329 329 329 330 329 328 326 325 326 327 326 327 328
318 320 319 319 317 318 320 320 320 321 322 323 324 324 324 325 327 327 325 325 323 322 322 321 324 327 325 326 326 326 327 327 329 329 330 330 330 328 328 329 328 327 327 326 327 327 326 327 328
319 318 318 318 317 317 318 319 320 322 322 323 324 325 325 326 327 326 324 323 324 324 320 320 324 326 327 328 326 327 327 329 329 330 331 330 330 329 329 327 328 326 327 327 326 327 326 327 328
319 319 321 318 318 318 321 322 323 323 323 323 324 325 326 328 327 322 322 323 325 325 327 327 328 329 328 329 330 330 331 332 332 331 330 330 331 330 328 328 326 326 326 327 327 327 326 327 327
314 316 317 318 318 320 322 322 322 322 322 322 324 325 326 328 327 325 323 325 326 327 328 329 330 328 328 327 330 331 332 332 330 330 329 330 330 330 328 327 323 325 327 326 326 326 326 328 328
316 316 317 319 321 320 321 322 322 322 323 322 323 326 327 327 328 327 325 326 327 328 328 330 330 327 327 327 330 329 328 328 330 330 330 329 327 329 327 327 324 326 327 327 326 326 327 327 328
318 317 317 318 319 324 321 326 323 322 321 323 325 327 327 326 327 327 327 327 327 328 329 330 329 328 330 330 330 331 330 330 329 329 328 329 327 328 328 327 328 327 327 327 326 326 327 327 328
317 317 318 318 321 322 322 323 322 323 322 323 322 326 327 325 328 328 328 327 328 328 329 329 329 331 331 330 331 330 329 329 328 328 329 329 329 327 328 328 328 328 327 326 326 326 327 326 328
317 319 320 321 322 325 324 323 323 321 321 321 323 326 328 328 327 327 327 327 328 328 328 329 331 332 331 331 329 328 328 328 329 330 331 330 328 328 329 327 328 327 326 326 326 326 325 325 326
319 320 322 323 324 328 321 321 322 321 321 323 325 328 329 329 328 328 328 329 329 328 329 330 332 332 332 332 330 329 328 328 330 330 330 330 330 329 329 328 325 326 327 327 327 327 328 328 327
319 321 323 325 323 322 320 320 319 322 323 322 325 326 328 329 328 328 329 329 328 329 329 330 331 332 332 331 331 330 329 330 330 330 330 330 330 330 329 327 326 327 326 326 327 328 328 328 327
318 319 319 320 322 322 321 323 324 325 326 326 325 326 329 330 328 328 328 328 328 329 330 331 331 332 332 331 331 330 330 331 331 330 330 331 330 330 329 328 328 328 328 327 327 328 329 329 327
317 318 317 319 318 318 322 326 323 327 328 328 328 329 330 329 328 328 328 327 328 329 330 330 331 331 332 331 330 331 331 330 329 330 329 331 330 330 329 329 329 329 328 327 328 328 329 329 330
315 318 318 318 318 317 319 322 329 328 329 330 331 330 330 329 328 328 327 326 328 328 329 329 330 329 330 330 330 330 331 330 328 330 329 331 331 330 330 329 329 329 328 328 328 329 328 328 327
314 317 318 317 319 318 321 321 324 328 327 329 330 329 329 329 328 327 327 326 327 328 328 329 329 328 329 330 329 331 331 329 329 330 330 331 331 330 330 329 329 327 326 326 328 327 328 328 328

GFSSGP_925_thetae_030.txt.gz
Theta_e
310 320 325 330 335 332 335 342 341 340 339 334 333 334 333 332 333 334 333 338 338 332 336 326 321 320 318 314 316 318 318 318 318 318 319 319 319 319 321 321 322 322 329 331 332 333 333 333 331
321 321 328 335 335 341 340 343 342 339 336 335 335 333 331 331 330 329 334 337 336 332 336 337 322 321 321 314 316 318 319 319 319 320 321 324 325 330 331 331 331 331 331 332 332 333 334 335 335
322 327 336 341 344 343 341 341 340 336 334 334 333 329 329 331 329 330 336 337 336 333 335 339 323 321 323 315 316 319 319 320 320 322 324 326 329 331 333 335 336 335 333 332 331 332 333 336 336
324 331 334 339 339 339 342 339 338 336 334 332 331 332 329 328 329 330 336 337 335 334 335 338 326 320 324 319 317 319 320 321 322 324 325 328 333 334 333 336 337 336 334 333 333 332 334 337 334
328 332 332 336 337 337 338 338 335 336 334 333 330 333 332 329 328 329 335 336 334 334 333 338 330 322 324 323 318 319 320 321 323 324 325 328 333 335 338 337 337 336 335 335 334 333 334 335 334
332 332 335 336 335 335 335 333 333 333 334 333 330 330 331 328 329 329 333 336 334 333 334 338 335 323 323 324 320 319 321 322 323 324 326 327 331 336 336 337 336 336 335 335 335 334 333 332 332
331 332 331 333 333 333 332 332 333 333 333 333 331 331 332 332 330 330 332 334 336 334 335 338 341 329 323 325 323 320 321 323 324 325 327 328 330 336 335 334 335 333 332 333 333 333 333 333 333
330 331 333 332 332 332 331 331 331 332 333 331 330 333 333 334 330 330 332 332 335 335 335 335 340 340 340 339 328 323 322 325 327 328 329 329 333 336 333 331 328 329 331 331 331 332 332 332 332
331 333 333 332 331 331 331 331 331 331 331 330 331 331 331 330 330 331 332 332 333 333 335 334 337 338 340 339 339 331 327 329 331 331 330 330 334 332 333 331 330 329 329 330 329 329 330 331 329
333 333 332 331 331 331 331 330 330 331 332 331 330 330 330 330 332 332 332 331 333 333 333 334 337 338 339 337 338 343 339 338 336 336 337 336 334 333 332 331 330 329 327 329 327 329 330 330 331
333 334 332 332 331 331 331 331 330 331 332 332 331 330 330 330 330 331 332 332 331 331 333 333 338 339 339 337 339 340 339 337 337 338 336 334 333 332 332 332 332 332 331 329 328 328 328 327 329
333 332 332 332 331 331 332 332 331 331 331 330 329 328 328 330 330 329 328 332 332 330 331 334 335 340 341 338 338 338 336 335 334 332 333 334 334 333 333 332 332 331 330 329 329 327 328 328 328
329 330 330 330 331 332 331 332 332 331 329 329 327 326 327 327 327 325 326 328 332 330 331 334 336 340 342 341 338 336 333 330 330 330 331 333 332 332 333 332 332 331 329 329 329 327 327 328 328
327 327 327 329 331 331 331 331 330 329 327 326 325 325 325 325 326 326 327 330 332 331 331 333 336 340 341 341 338 335 333 330 331 329 331 333 333 332 333 332 332 331 330 330 330 327 327 327 328
326 327 327 327 327 328 328 328 327 325 324 324 324 325 325 325 325 328 329 330 331 332 332 333 336 339 341 339 337 333 331 331 329 330 333 334 334 333 333 332 332 331 331 331 331 328 328 328 328
324 326 327 327 326 325 325 326 326 325 325 325 326 326 326 325 327 326 327 329 331 332 331 332 333 337 339 336 334 331 331 331 330 332 333 334 334 334 333 332 332 330 331 331 331 328 328 328 329
325 327 328 327 326 324 324 326 326 325 325 326 326 327 326 325 327 327 328 330 331 332 332 331 331 335 337 335 333 333 333 331 331 333 333 333 334 334 333 332 331 333 330 330 329 328 328 328 329
326 327 327 329 328 322 323 324 325 324 324 327 327 327 326 326 327 327 330 329 330 331 331 331 331 333 335 334 333 332 331 330 332 333 333 334 334 333 332 332 332 331 329 330 329 328 329 328 328
325 327 328 326 326 325 325 326 326 327 327 328 328 328 327 327 330 329 330 329 330 330 331 331 332 334 333 333 332 331 330 331 333 333 334 334 333 333 331 332 331 330 330 329 328 328 329 328 329
321 324 326 326 326 326 324 326 327 328 328 328 328 327 327 328 331 331 331 331 331 331 332 332 333 335 333 332 331 330 331 333 333 333 333 333 333 332 333 331 331 329 328 328 328 328 328 328 329
320 321 323 324 325 324 325 325 327 328 328 328 327 326 326 326 332 333 332 332 332 332 333 333 334 335 333 333 332 334 334 332 332 333 333 333 333 332 332 331 330 326 328 328 329 329 328 329 329
321 320 320 321 322 323 323 330 329 329 330 329 328 327 326 329 331 333 334 334 333 333 333 334 334 334 334 333 333 333 331 331 331 331 332 332 332 331 331 331 330 329 329 329 329 328 328 329 329
319 320 320 320 322 324 324 327 329 329 330 329 328 327 326 331 331 334 334 333 332 332 333 334 334 333 334 334 333 333 331 332 332 331 332 333 333 331 331 330 330 329 330 330 328 328 329 329 331
317 319 321 322 323 327 325 327 330 331 331 330 329 325 325 334 333 334 333 332 332 332 333 333 333 334 334 335 335 333 333 332 332 332 333 333 332 332 331 330 330 330 330 329 328 328 329 330 331
317 320 324 326 327 328 326 329 330 329 327 329 326 325 332 334 335 335 334 334 332 332 332 332 334 334 335 334 334 333 333 333 334 333 332 333 333 332 330 330 329 330 330 329 328 329 329 326 330
319 322 324 326 330 330 328 330 330 325 327 327 325 325 333 334 335 335 334 334 332 332 332 332 333 333 333 333 333 333 334 333 332 333 333 332 332 331 331 330 330 330 330 330 330 331 331 332 331
320 323 322 327 328 327 329 328 325 324 324 324 324 324 332 334 335 335 334 333 332 332 332 332 332 331 332 333 333 334 334 334 333 333 333 333 332 330 330 330 330 330 330 330 331 331 331 332 330
320 321 324 325 331 331 327 325 326 325 326 326 330 329 331 335 335 334 334 333 332 332 333 332 330 331 332 333 332 333 334 333 332 333 332 332 332 330 330 330 330 330 330 330 331 331 331 332 330
319 322 323 325 325 329 327 325 324 325 326 330 331 332 335 335 335 334 334 332 332 332 332 330 330 332 332 332 332 333 333 332 332 333 332 333 332 331 329 330 330 330 331 330 331 331 331 331 332
318 320 323 324 326 323 323 322 327 328 331 329 331 335 335 334 334 333 333 332 332 332 330 329 330 330 331 331 331 332 333 332 332 332 332 332 332 331 329 330 330 330 330 331 331 330 330 330 331

GFSSGP_925_thetae_033.txt.gz
Theta_e
310 313 328 331 334 329 335 335 339 339 339 337 336 336 336 334 334 335 337 338 335 334 345 323 318 317 315 313 315 317 318 317 317 317 318 319 319 319 320 321 326 329 331 331 331 332 333 334 333
320 324 328 334 333 337 336 337 340 339 338 337 337 336 336 334 333 332 335 338 335 334 344 336 320 318 317 314 315 318 319 318 318 319 320 322 323 325 327 329 330 333 334 333 333 333 333 335 335
327 326 334 336 339 339 340 341 339 339 336 335 335 334 332 334 332 332 337 337 335 334 342 339 325 320 319 315 315 318 319 319 319 320 322 324 325 329 333 335 336 336 336 334 334 333 333 334 337
327 329 333 341 341 338 337 339 339 337 336 334 334 333 333 331 331 331 335 336 335 333 337 341 333 321 321 320 315 317 319 320 320 321 323 325 327 329 331 335 336 336 337 335 335 334 333 334 337
327 331 334 334 333 334 336 336 337 335 335 334 333 332 333 332 330 331 335 336 335 334 334 341 336 323 321 322 317 316 319 320 321 322 325 328 331 331 334 338 339 338 337 336 336 336 335 334 335
330 331 335 334 333 334 335 334 334 333 332 333 333 332 332 332 332 332 333 336 335 334 334 337 335 331 321 323 321 317 319 320 322 323 325 327 327 331 338 339 338 338 336 337 335 335 334 335 334
330 333 333 333 333 334 335 333 332 332 333 333 333 332 332 333 333 333 333 334 336 334 335 335 345 337 327 322 324 320 319 320 322 323 325 326 326 329 338 338 337 336 334 332 332 333 334 335 334
329 332 333 333 332 332 332 332 332 332 332 334 333 333 333 335 333 333 333 334 334 336 335 335 339 345 344 339 329 325 321 321 322 325 325 327 329 329 329 329 330 329 331 332 331 331 332 333 333
330 332 334 333 333 332 331 332 333 332 332 331 331 331 332 332 332 332 333 333 334 334 335 336 335 339 342 339 341 336 329 323 325 329 329 331 335 335 337 337 334 332 331 330 331 330 329 329 330
333 336 335 333 333 332 333 332 332 332 332 332 332 332 330 331 331 332 331 331 331 333 335 335 336 337 339 338 339 345 340 338 337 337 337 340 340 336 334 334 333 331 329 328 328 325 325 329 327
333 335 334 333 332 333 333 333 332 332 333 332 333 332 331 331 330 330 330 330 329 330 332 334 337 337 339 339 338 342 342 339 339 339 339 339 337 332 334 334 334 333 334 334 332 331 331 330 327
331 332 334 334 333 333 333 332 333 333 333 332 332 332 331 329 329 329 329 328 328 328 332 333 336 339 340 339 338 339 341 340 338 338 340 339 336 335 336 334 333 333 333 333 331 330 329 329 329
328 328 329 331 332 332 332 333 333 333 333 332 331 331 330 328 328 327 327 326 326 327 328 333 336 340 342 341 338 339 339 338 337 335 335 335 334 334 335 334 335 333 333 332 331 330 330 328 328
329 330 329 329 329 330 332 332 333 333 333 333 331 330 329 328 328 328 327 327 328 329 331 333 336 340 343 344 343 340 340 336 334 333 333 334 335 335 335 335 334 333 333 333 332 329 329 329 327
329 331 331 331 330 330 329 331 332 332 332 332 330 328 328 328 328 329 327 328 329 332 333 335 336 341 344 345 344 342 338 335 333 333 332 334 336 336 336 334 334 334 333 334 333 332 331 329 328
327 330 332 330 330 329 329 332 330 330 331 330 329 328 328 329 329 328 326 326 330 333 333 336 335 341 344 345 344 340 335 335 332 332 333 336 337 337 335 335 334 334 334 334 333 331 331 330 328
328 331 331 330 330 330 330 331 329 328 329 329 329 328 328 329 330 329 326 328 330 333 335 337 337 339 343 345 343 338 335 334 333 332 333 334 336 336 335 335 334 334 334 333 332 330 332 329 329
326 328 328 329 329 329 330 330 330 328 328 328 330 328 328 330 330 329 328 328 334 334 336 338 338 337 342 342 339 336 335 335 332 332 333 335 336 335 336 336 335 334 334 333 330 330 331 330 330
325 326 328 329 329 329 330 331 331 328 327 328 328 329 330 331 331 328 330 335 334 336 337 337 336 338 341 339 336 334 334 334 332 333 334 336 336 335 335 336 334 334 333 332 331 331 330 330 331
321 323 326 328 329 330 330 330 329 329 328 328 329 331 331 331 331 328 335 336 335 337 337 336 336 338 339 337 335 333 333 332 334 334 335 336 335 334 336 334 334 334 333 331 330 330 331 330 331
321 323 325 327 328 328 329 330 330 329 329 328 327 328 330 331 330 329 337 337 337 337 337 337 338 339 337 335 334 336 336 336 334 333 334 335 335 335 334 334 334 333 332 329 329 330 330 330 330
321 321 323 325 326 329 328 331 329 327 327 328 329 331 331 330 330 329 339 339 337 337 337 338 339 338 336 336 335 335 333 332 332 333 331 334 333 333 333 333 333 331 329 330 331 330 331 330 331
320 321 323 324 324 326 325 326 326 325 327 329 330 331 331 331 328 333 338 338 337 337 337 338 338 337 337 336 335 336 333 330 332 332 334 335 335 335 333 332 332 332 331 331 332 331 330 330 331
319 320 322 324 325 327 326 326 328 327 328 329 331 332 331 330 329 335 337 337 336 336 337 338 337 337 337 335 336 336 334 334 333 334 334 336 336 336 333 330 331 331 332 332 330 330 330 332 332
320 321 323 326 328 330 325 327 328 327 328 330 330 331 329 328 336 338 338 338 337 336 337 337 336 338 336 336 335 334 335 335 334 334 335 335 336 335 332 330 332 333 332 330 330 328 331 332 332
320 321 323 326 328 326 325 329 328 330 330 330 331 329 327 335 337 338 338 338 336 336 336 335 337 337 336 335 334 334 334 333 334 335 336 335 335 333 332 331 331 332 330 329 330 330 333 333 332
320 323 322 324 326 326 328 330 331 330 330 329 329 330 328 336 338 338 338 337 336 336 335 336 336 335 334 333 333 333 333 335 335 335 336 335 334 332 331 331 332 331 330 332 333 334 333 330 330
319 321 322 325 327 329 330 331 332 328 327 327 326 326 329 336 338 338 338 337 335 335 335 336 335 334 333 332 332 332 334 334 333 335 335 335 333 330 330 332 332 331 331 331 332 333 333 333 327
319 321 322 324 325 328 331 333 330 328 328 329 327 328 329 337 338 338 337 336 335 335 335 335 333 332 332 332 332 333 333 333 333 334 334 334 333 330 331 331 331 331 331 332 333 333 332 331 332
319 321 323 327 328 327 330 331 325 327 328 330 332 331 332 338 337 337 337 336 336 335 335 332 332 332 332 331 331 332 333 332 334 333 334 334 333 330 329 330 330 330 331 332 332 332 332 332 332

GFSSGP_925_thetae_036.txt.gz
Theta_e
311 310 323 328 336 329 335 334 334 340 338 336 335 335 335 334 333 337 338 337 338 344 330 318 318 317 314 313 314 316 317 317 316 316 316 316 316 317 321 323 325 330 331 331 331 331 333 333 334
320 320 329 332 333 336 332 336 341 339 339 336 335 335 335 335 332 336 337 336 337 343 335 321 318 317 316 314 314 317 317 317 317 317 318 319 320 320 321 322 326 329 333 333 332 332 332 333 335
325 324 329 332 337 336 336 340 341 340 338 335 334 335 333 334 333 336 338 336 336 345 339 329 319 318 317 315 314 317 318 318 318 319 319 321 322 325 327 329 333 335 336 336 335 335 334 333 334
329 328 329 336 341 339 339 341 340 341 337 335 334 333 333 332 333 332 335 336 335 341 345 337 322 319 318 318 314 317 318 319 319 320 321 322 323 327 330 332 335 336 337 337 337 336 335 334 334
328 329 332 333 333 333 333 336 337 338 336 334 334 333 334 332 332 332 336 336 335 335 342 340 335 320 319 319 316 316 319 319 320 321 322 323 324 326 329 333 338 339 339 337 337 337 336 334 334
328 329 332 335 334 333 333 336 335 334 333 333 333 334 333 333 333 332 334 336 335 335 336 340 334 329 321 320 319 316 318 320 320 322 323 324 326 329 333 335 339 337 339 337 337 336 336 334 334
329 329 331 332 333 334 334 336 335 333 332 334 334 333 333 334 334 334 333 334 336 335 335 338 336 334 326 321 321 319 317 319 320 322 324 325 327 328 329 329 335 335 336 335 332 330 332 334 334
329 329 331 333 335 333 332 332 333 332 332 333 333 334 333 336 334 334 334 334 336 337 336 336 338 336 336 326 323 324 320 319 320 322 324 325 327 328 325 324 329 329 328 329 328 328 326 329 333
327 328 330 331 332 332 332 332 332 332 332 332 332 331 331 331 331 331 332 332 332 333 336 338 340 343 341 342 339 330 325 322 322 323 325 326 329 333 335 337 338 336 332 332 331 328 325 322 323
330 330 330 331 332 333 333 333 333 333 333 333 333 333 332 332 331 332 332 331 330 330 330 337 338 342 345 343 341 340 332 330 328 330 330 332 335 338 338 335 338 336 333 331 329 328 327 324 327
333 333 331 332 333 333 333 333 333 334 334 333 333 333 333 333 333 332 330 329 330 330 329 330 337 338 343 342 340 341 342 340 338 335 337 339 340 342 337 334 334 333 332 331 333 334 329 331 331
327 332 332 332 333 333 333 333 333 333 334 333 334 334 333 333 333 331 330 329 328 328 329 327 338 337 339 342 341 344 345 343 340 339 339 340 341 339 334 334 335 335 334 335 333 332 332 331 331
328 327 328 331 332 332 332 333 333 333 333 333 333 333 334 333 333 331 329 329 329 329 329 328 340 336 338 340 341 343 345 344 342 342 341 341 340 337 336 337 336 336 335 334 334 332 331 330 329
328 327 328 329 329 329 330 330 330 331 332 333 333 334 334 334 332 330 330 332 332 329 328 331 342 337 338 339 341 341 341 343 342 340 339 338 337 335 335 337 335 335 334 334 333 332 332 331 329
326 329 330 330 329 331 331 332 332 331 331 331 333 333 333 333 331 331 330 333 328 329 330 336 338 339 342 344 340 346 342 341 339 336 335 335 334 335 337 337 336 335 333 333 332 332 331 331 328
326 327 330 329 330 330 331 333 332 331 331 332 331 332 333 333 331 330 329 331 328 328 332 336 336 343 345 347 344 342 343 341 337 334 334 333 335 337 338 337 335 334 335 334 333 332 333 331 331
327 329 328 329 328 329 331 332 332 332 331 332 332 331 331 331 332 331 333 331 330 330 332 336 337 348 348 348 348 345 343 339 335 335 333 335 336 337 337 335 335 336 335 332 332 331 331 329 331
327 327 328 329 329 329 330 331 332 332 332 333 332 331 330 330 332 331 332 332 334 336 336 339 339 346 347 348 347 346 340 338 336 334 334 334 336 337 335 335 336 336 334 332 332 331 329 330 329
325 327 327 328 328 330 330 331 331 332 332 332 333 332 331 332 332 332 331 335 336 337 340 342 341 340 347 348 346 343 340 337 335 334 334 335 336 336 334 336 336 334 334 332 332 331 329 331 330
319 323 325 326 326 328 329 330 332 332 332 332 333 331 332 332 334 336 336 339 337 338 340 341 340 341 345 345 343 339 337 337 335 334 335 335 336 335 335 336 336 334 333 331 331 331 330 330 330
319 320 323 324 324 326 327 329 332 331 332 332 331 332 332 332 331 331 338 342 339 340 340 340 341 345 343 341 339 338 335 337 336 336 335 336 336 335 336 336 334 333 332 330 330 330 330 332 330
321 319 319 321 323 326 324 330 333 332 332 333 332 332 331 331 332 334 340 344 342 340 340 340 342 343 340 339 338 337 337 336 334 333 335 337 336 335 333 333 333 332 331 330 329 330 330 330 330
320 318 320 321 323 325 324 328 329 330 331 329 330 330 331 332 334 335 343 343 340 340 340 341 342 341 340 336 337 338 337 335 333 332 334 334 335 335 335 334 333 332 330 331 330 332 329 330 330
319 319 320 321 323 327 328 328 328 329 330 329 330 330 330 333 333 335 342 341 340 340 341 342 341 341 339 336 339 336 335 335 335 334 336 335 337 336 334 333 332 332 332 331 332 331 330 330 330
317 323 324 325 325 327 326 327 328 329 328 328 329 330 331 333 333 341 343 341 340 340 341 341 341 341 339 338 337 336 336 336 335 335 334 336 336 336 332 332 331 332 331 331 331 330 329 331 332
318 322 324 324 325 325 323 327 328 329 328 329 332 331 333 333 340 342 342 341 340 341 340 340 340 340 339 338 336 335 335 335 335 335 336 334 334 334 332 332 331 332 332 331 329 328 331 329 331
318 319 321 325 323 324 325 327 328 328 330 331 330 333 334 340 342 342 341 340 340 340 340 339 340 339 338 336 335 334 334 335 336 334 337 334 335 334 331 332 332 332 330 330 330 331 332 330 330
318 319 321 324 326 328 326 328 330 333 333 332 333 332 334 341 341 340 340 340 340 339 339 339 339 338 337 335 334 334 331 333 333 332 336 335 331 332 331 332 332 331 331 330 330 330 332 327 329
318 319 320 325 324 327 329 328 331 335 333 330 332 331 334 341 341 340 339 340 339 338 338 339 338 336 334 334 333 332 332 333 333 333 335 334 331 331 332 333 333 332 331 332 332 331 332 329 329
319 319 321 324 328 326 326 328 331 329 328 329 331 330 337 340 340 339 339 339 338 338 338 338 336 334 333 333 332 333 332 333 334 333 335 335 333 331 330 331 330 331 332 332 332 333 332 332 331

GFSSGP_925_thetae_039.txt.gz
Theta_e
320 310 320 329 332 331 330 330 329 337 339 336 333 333 334 330 335 341 337 339 339 330 320 318 317 316 315 312 315 316 316 315 315 315 315 315 315 316 320 323 326 328 328 328 330 330 331 332 333
317 317 328 330 332 333 332 328 338 339 339 337 335 334 331 334 335 336 338 339 337 330 321 318 317 317 316 313 315 317 317 316 316 316 316 317 318 318 320 322 324 330 332 332 332 332 332 332 333
320 320 322 328 332 332 330 337 339 340 338 337 335 333 332 333 338 338 337 339 338 332 322 319 317 318 317 314 315 317 317 317 317 317 318 318 319 320 322 325 326 331 334 335 335 334 334 333 333
324 327 324 330 334 335 335 336 340 339 338 339 334 332 331 332 332 337 337 336 338 336 327 320 318 318 318 316 314 317 318 318 318 318 319 320 320 321 322 325 330 335 336 337 337 337 336 335 334
327 326 326 329 331 333 332 337 336 339 339 339 337 333 331 331 334 335 338 336 335 339 332 323 320 318 318 317 314 316 318 318 318 319 319 320 321 322 324 326 329 333 337 338 337 337 337 336 335
324 324 327 330 331 331 331 332 336 336 336 331 332 332 332 332 333 335 335 336 335 335 337 332 323 321 319 318 316 315 318 319 319 319 320 320 321 323 325 326 329 335 339 338 337 337 335 333 333
332 326 325 326 328 329 330 331 331 332 332 332 332 332 332 332 332 333 334 335 336 335 335 338 330 325 322 321 319 316 316 319 319 320 320 321 322 324 325 325 325 329 337 336 333 331 328 328 328
331 326 326 326 328 329 330 330 331 331 332 332 331 332 331 332 333 333 333 335 334 338 336 338 337 330 325 321 320 320 316 317 319 321 322 323 323 324 325 324 323 326 331 332 328 327 326 326 325
333 330 325 325 326 328 328 330 331 332 332 331 331 331 330 331 333 333 333 331 334 336 336 337 338 334 330 325 322 321 321 317 318 321 323 325 327 325 324 326 333 333 333 330 329 330 330 327 325
336 332 328 326 326 327 329 331 331 332 333 332 332 332 332 331 331 330 330 329 329 329 338 337 337 336 335 332 327 324 324 323 323 323 324 328 327 326 326 336 336 337 337 334 331 330 330 327 325
331 332 329 327 327 328 330 331 332 332 332 332 332 331 330 330 331 330 329 328 328 328 328 338 339 337 337 337 335 331 328 329 329 325 324 327 327 329 338 338 337 334 337 335 331 331 332 331 329
327 328 331 331 330 329 329 330 332 331 330 329 330 331 332 330 330 328 328 329 329 328 328 328 337 339 340 342 339 337 334 334 331 327 327 329 333 336 340 339 336 335 334 333 332 333 331 331 330
326 325 325 329 330 329 330 331 331 329 330 329 329 329 328 329 328 330 330 329 329 329 329 327 328 336 343 344 342 340 338 338 337 337 333 333 337 338 341 338 333 335 335 334 334 334 332 330 330
322 325 327 326 325 325 327 328 328 328 327 328 328 327 327 328 328 329 329 329 330 329 327 327 329 333 340 343 341 340 341 341 340 341 338 337 338 341 340 335 337 337 335 334 334 333 333 331 330
320 321 322 323 325 326 326 327 328 327 328 328 328 327 327 327 328 327 329 328 331 327 326 328 332 335 338 341 341 342 343 343 344 342 340 341 341 340 336 336 336 336 335 334 334 333 332 331 330
325 324 324 323 324 325 327 329 327 327 328 328 328 328 327 326 327 329 329 327 330 329 328 329 336 338 339 340 344 343 343 345 344 342 341 341 339 335 334 335 336 335 335 334 334 332 332 331 331
321 326 324 324 324 325 327 328 327 327 328 328 328 328 328 326 325 328 328 329 331 330 330 332 339 338 340 342 341 345 344 343 340 336 335 335 334 334 335 336 336 336 335 335 334 332 331 331 330
322 325 325 325 324 325 325 326 326 326 326 327 328 328 328 327 325 325 328 328 332 335 335 335 340 342 345 346 344 343 345 341 338 336 334 334 333 334 336 336 336 335 336 335 333 331 331 330 329
319 324 325 325 324 324 324 325 326 326 325 325 326 326 327 327 325 326 328 330 336 336 337 341 343 348 347 347 347 345 341 338 335 335 333 334 335 336 337 336 335 335 335 334 332 331 331 330 329
317 317 318 321 324 324 324 325 326 326 326 326 326 327 327 326 327 328 331 336 336 339 341 343 347 348 347 347 346 345 341 338 336 335 334 333 335 336 336 335 335 335 334 332 331 331 330 329 330
315 316 316 317 318 319 320 321 322 323 324 326 327 326 326 326 325 325 332 336 339 341 341 340 341 347 347 346 344 341 339 337 336 336 334 336 335 336 335 335 334 332 332 332 331 331 329 329 329
316 316 316 317 318 319 319 321 320 321 322 324 325 325 325 325 327 325 334 337 339 340 340 339 344 345 344 343 341 339 338 337 337 336 335 336 336 335 334 334 334 333 332 331 330 330 329 329 329
316 318 317 318 317 317 318 319 320 323 325 326 326 325 325 324 324 325 336 339 340 339 340 342 344 342 341 338 338 337 335 335 334 334 334 335 335 335 334 334 333 332 331 330 330 329 329 329 329
314 316 317 316 316 317 318 319 320 320 321 324 324 324 324 322 323 335 338 339 339 340 342 342 341 340 340 338 336 336 336 336 335 335 335 335 335 333 333 333 333 331 331 330 330 330 330 328 329
311 312 314 318 318 319 318 320 321 321 322 324 324 323 324 324 329 339 339 338 338 340 342 341 339 341 336 339 337 337 336 334 334 334 334 334 335 333 333 332 332 330 330 330 330 329 329 329 330
309 313 314 318 320 319 319 321 320 322 323 323 323 323 325 324 337 338 338 337 339 340 341 340 341 338 337 338 335 335 335 331 334 336 334 335 333 332 330 331 329 331 330 331 329 329 328 330 330
308 309 314 315 317 319 319 319 319 319 320 322 323 326 326 336 339 338 337 336 339 340 339 340 339 338 338 336 335 334 334 336 334 333 335 334 333 333 331 331 330 331 331 329 328 328 329 329 329
315 311 315 315 317 320 321 320 320 320 322 324 326 325 335 338 338 338 336 337 339 339 339 339 339 338 338 335 334 333 333 333 333 332 334 333 333 332 331 331 331 331 331 330 330 329 329 328 329
315 310 310 314 315 319 322 321 320 322 329 325 326 325 338 338 338 337 337 337 338 339 339 339 339 338 337 334 333 332 332 332 332 333 335 331 331 331 331 332 332 330 330 331 330 330 328 326 325
316 312 310 314 317 318 320 321 320 323 329 326 326 327 337 336 337 336 337 337 337 337 339 339 338 336 335 333 332 330 333 334 333 334 334 331 331 330 331 331 331 331 331 331 331 330 329 328 326

GFSSGP_925_thetae_042.txt.gz
Theta_e
322 313 321 326 328 328 330 330 330 330 336 335 334 331 330 331 335 337 335 339 340 331 320 317 315 314 313 314 316 315 315 314 313 313 313 313 313 313 314 317 319 322 326 327 328 327 326 329 331
320 315 327 328 330 333 330 327 328 337 337 335 335 335 334 337 336 335 340 340 339 324 321 317 316 315 313 313 316 316 315 314 314 314 314 315 315 316 317 318 321 325 329 331 331 331 331 331 331
316 320 320 328 330 328 329 331 337 339 337 338 337 334 332 336 336 336 337 339 336 325 321 318 317 316 314 313 316 316 316 315 315 315 316 316 317 318 319 320 323 329 332 334 334 334 334 334 333
323 326 323 327 332 331 331 332 334 337 336 337 336 334 330 333 336 336 338 339 336 325 322 320 318 317 316 313 316 317 317 316 316 316 317 318 319 319 321 322 323 326 334 336 337 337 336 336 335
326 322 325 327 329 330 330 331 332 337 337 336 335 334 330 332 336 336 337 338 336 327 322 320 320 319 319 316 315 317 317 317 317 317 318 319 320 321 321 321 323 329 335 337 338 337 338 338 337
323 321 325 328 328 328 328 327 333 337 337 336 335 333 330 333 337 336 337 336 335 333 325 321 320 320 318 318 314 316 317 318 318 318 318 319 320 321 323 323 323 327 332 338 338 338 336 335 334
330 324 325 326 327 327 328 327 330 332 335 332 330 332 330 330 335 337 336 336 335 335 332 323 320 319 319 319 318 315 317 318 318 318 319 319 320 322 323 324 324 324 329 335 336 335 332 329 327
328 326 327 324 327 327 327 327 327 329 331 330 330 331 332 329 332 335 337 336 336 336 336 331 324 319 319 319 319 317 316 318 318 319 319 320 321 322 323 324 324 323 327 330 330 330 328 326 326
329 331 327 325 326 326 325 328 328 329 330 330 330 329 329 333 333 332 332 332 338 339 338 336 330 323 320 319 319 319 316 316 318 319 320 321 324 323 325 324 324 325 329 332 330 328 329 330 329
332 335 333 325 325 324 325 325 327 330 330 331 330 330 331 332 331 330 329 328 330 335 339 338 338 331 325 321 322 319 319 317 317 319 321 322 324 324 324 325 326 331 334 335 334 331 331 331 329
333 337 335 333 328 326 326 327 328 329 330 330 331 330 329 329 328 327 327 327 328 326 332 338 337 338 335 328 327 327 324 323 320 320 321 323 325 326 326 326 332 335 336 337 336 333 331 331 331
328 332 333 332 330 330 330 329 329 328 329 328 328 329 329 329 327 326 326 328 329 329 327 331 337 338 338 336 332 330 332 328 327 326 323 325 327 327 326 328 337 338 337 335 336 334 331 331 332
325 327 327 326 326 329 329 329 329 329 329 328 327 326 326 326 326 328 329 329 330 329 328 328 334 337 338 339 337 336 335 331 328 332 328 326 326 326 326 335 339 337 335 335 335 333 332 332 331
318 321 324 324 323 322 324 326 326 327 326 326 326 325 324 324 324 326 327 328 328 328 328 329 330 333 338 340 339 338 338 336 333 332 329 328 328 327 331 339 339 335 334 335 334 333 333 333 332
317 317 318 319 319 321 323 324 325 325 325 326 326 325 324 324 324 324 327 328 328 328 329 327 327 330 337 340 340 340 340 339 337 335 333 333 332 330 336 339 337 335 337 335 334 334 333 333 331
318 319 320 320 321 321 322 324 325 325 325 326 325 326 326 325 324 326 328 327 328 329 328 327 327 328 333 339 341 342 342 341 340 339 338 340 337 336 339 340 335 336 336 335 334 333 332 332 331
315 322 323 323 322 322 322 324 324 324 325 325 325 325 325 325 324 324 326 327 328 329 328 328 329 330 334 339 340 342 342 342 341 341 341 340 339 339 341 337 335 335 335 335 334 334 333 331 331
318 319 321 323 324 323 324 323 323 323 324 324 324 324 325 325 325 325 326 328 327 327 329 329 331 336 338 341 343 342 343 343 344 344 343 341 341 341 334 334 335 334 335 335 335 333 332 331 330
317 320 322 323 323 323 323 324 323 323 322 322 323 323 323 324 324 325 325 325 327 330 335 332 336 341 342 343 345 344 342 338 337 336 335 335 336 333 334 335 335 335 335 335 333 332 332 330 330
313 315 316 316 316 320 323 323 323 323 323 323 323 324 323 321 323 324 324 329 333 336 337 338 341 344 345 345 344 342 340 337 336 335 334 333 334 334 335 336 336 335 335 334 332 332 331 330 329
313 313 315 316 316 315 315 316 317 318 318 319 320 322 322 322 322 323 324 332 335 338 339 342 345 346 347 346 344 343 339 336 335 335 334 334 335 336 336 336 335 333 333 332 332 331 330 329 328
313 314 314 314 314 315 315 316 316 317 318 318 318 320 318 320 322 322 323 332 336 339 342 345 346 347 347 345 344 343 339 336 336 335 335 334 335 336 336 335 333 331 332 332 331 330 330 329 328
311 314 315 315 315 314 315 314 316 317 318 318 318 319 320 321 320 322 326 334 337 339 340 344 347 346 345 344 342 339 338 337 336 335 335 336 336 335 335 334 333 332 332 330 330 329 329 329 328
308 312 313 314 313 316 315 315 316 316 316 317 320 321 320 319 319 325 332 336 337 339 341 344 344 342 343 340 338 337 336 335 334 335 335 335 334 334 334 333 332 332 331 331 329 329 329 329 328
306 306 311 313 316 317 315 315 317 316 317 316 317 319 319 319 328 336 337 336 337 339 341 342 340 340 339 337 336 335 334 334 334 334 334 334 334 333 332 333 332 331 330 331 330 329 330 329 328
304 305 310 313 317 317 316 317 316 316 316 317 317 319 320 318 333 336 337 337 338 339 339 339 339 337 338 336 336 335 334 333 334 333 334 334 334 332 331 331 331 330 330 330 329 329 329 329 329
309 306 306 310 312 313 316 316 317 317 317 317 317 319 319 323 335 336 335 337 338 338 338 339 337 337 336 335 335 334 333 333 334 333 332 334 332 331 331 330 329 329 330 329 328 328 328 330 329
310 311 308 308 314 315 316 318 318 317 317 317 317 317 325 335 336 336 337 337 338 337 338 339 337 337 335 334 333 332 333 334 334 332 333 332 332 331 330 331 330 331 329 329 328 329 329 329 329
313 313 310 308 310 315 315 316 316 317 316 317 320 320 336 337 337 336 337 337 337 337 338 337 337 337 335 334 333 333 332 333 332 332 333 332 332 331 331 331 331 330 331 330 329 329 328 328 328
313 314 313 309 309 313 315 315 316 315 315 318 320 336 337 337 336 337 337 336 336 336 337 337 337 337 335 333 332 333 333 332 332 334 333 330 331 330 331 331 330 330 330 331 329 329 327 326 327

GFSSGP_925_thetae_045.txt.gz
Theta_e
324 318 321 324 324 326 327 326 330 330 333 334 332 329 329 330 336 332 333 335 336 328 326 320 315 312 311 314 314 314 313 312 312 312 312 312 312 312 312 313 314 316 320 320 320 320 321 323 326
322 313 327 326 326 333 325 325 326 328 335 334 331 330 333 336 335 335 335 338 338 334 321 319 315 313 312 314 315 314 313 313 313 313 313 313 313 313 314 315 316 318 325 328 329 329 329 330 330
317 320 321 327 328 326 325 328 336 336 335 336 336 331 332 336 336 336 335 338 339 336 321 319 316 314 314 314 316 315 314 314 314 314 314 315 315 315 315 316 317 319 330 332 333 333 333 334 333
323 324 321 326 330 329 327 330 331 331 333 335 335 332 329 332 335 335 336 338 338 330 322 319 317 316 315 314 316 315 315 314 314 315 315 316 316 317 318 319 321 323 332 334 336 336 336 336 336
325 320 324 325 327 328 329 328 327 331 335 335 333 332 330 333 334 336 336 338 337 325 322 320 319 317 315 314 315 316 316 315 315 316 316 317 318 319 319 320 322 327 334 336 337 337 338 338 338
323 320 325 326 325 327 326 326 326 334 335 335 335 330 331 330 336 337 337 337 337 329 323 320 317 317 317 316 314 316 316 316 316 316 317 318 319 320 321 321 323 328 336 337 338 338 336 334 333
324 321 325 325 326 327 326 325 328 327 330 333 329 331 329 331 336 337 335 336 337 332 324 321 319 317 317 317 315 316 317 317 317 317 318 318 319 321 322 322 323 325 329 335 338 338 334 333 332
325 325 329 324 325 326 325 326 326 328 330 328 329 331 330 327 336 337 338 338 337 333 326 323 320 318 317 316 317 314 316 317 317 317 318 318 320 321 322 323 325 325 327 330 335 335 329 330 328
324 327 327 326 325 325 322 323 325 327 329 328 328 329 328 331 332 335 340 341 339 336 332 325 322 320 318 317 317 316 315 317 317 318 318 319 320 322 322 324 325 325 326 329 332 332 329 330 330
330 329 328 325 325 325 328 325 324 327 327 328 328 328 330 330 330 328 328 331 338 340 338 334 328 324 321 320 319 319 316 316 318 318 319 319 321 321 322 324 325 325 326 330 332 333 331 331 330
331 334 329 328 329 328 327 327 326 327 326 327 329 328 327 328 327 326 327 328 331 336 337 337 337 332 326 323 323 322 322 321 321 319 320 321 322 323 325 325 325 326 331 334 335 335 334 331 331
330 332 331 330 330 333 333 331 330 329 327 327 327 328 327 326 325 324 325 329 327 327 331 334 336 337 334 329 326 324 330 328 327 322 324 324 325 324 325 325 324 326 334 335 336 336 335 333 331
321 326 329 332 332 330 328 329 329 329 328 327 327 328 325 325 324 326 327 327 328 325 326 327 333 337 338 336 331 329 329 330 330 329 327 326 327 324 325 326 325 328 336 337 337 336 336 333 331
316 319 323 324 323 323 325 325 324 325 326 326 324 324 323 322 322 322 323 325 326 328 329 327 328 332 338 338 337 335 334 334 333 331 330 330 328 324 324 325 324 330 338 336 334 335 334 332 332
314 315 316 316 317 318 321 322 324 324 323 324 324 324 323 323 322 321 325 326 327 328 328 327 327 331 336 337 338 338 337 337 336 334 332 332 330 327 324 324 325 336 338 334 334 335 333 333 333
317 317 318 319 318 318 320 324 324 323 323 324 324 323 323 322 322 324 325 326 326 326 327 327 328 329 332 335 337 338 338 338 338 337 335 333 332 331 329 327 329 339 336 336 336 334 332 333 333
314 320 320 321 320 321 321 324 323 323 323 323 322 323 323 323 321 322 324 325 326 326 326 327 327 327 329 334 338 339 339 339 339 338 338 334 333 334 333 331 335 336 335 336 334 334 332 332 332
317 317 319 321 322 322 323 322 321 322 322 322 321 322 322 322 322 322 323 324 324 326 326 326 327 326 328 335 340 340 340 341 341 341 339 338 338 339 336 335 338 335 335 335 334 334 333 333 332
315 317 319 320 320 323 323 323 323 322 320 321 321 321 321 320 320 321 322 324 324 325 324 326 327 328 335 338 339 340 341 341 341 341 341 340 341 339 338 339 337 334 335 334 334 334 333 332 331
311 312 313 315 316 316 317 320 318 319 321 321 321 321 321 321 319 320 321 322 325 325 326 327 329 332 338 340 340 341 341 341 342 342 342 342 340 339 340 335 333 335 335 334 334 333 331 331 330
311 312 313 315 315 314 314 316 315 315 315 316 317 317 318 319 319 319 318 321 325 328 330 334 334 338 342 342 343 340 337 336 335 336 337 335 334 339 333 332 334 335 335 333 331 331 330 328 328
309 311 313 313 313 315 314 317 314 314 314 314 315 316 314 316 318 317 318 319 328 330 334 339 341 344 344 343 342 339 336 334 334 334 334 334 333 334 334 335 335 334 333 332 331 330 330 329 327
307 308 310 312 313 312 313 312 314 314 314 315 315 315 314 316 315 315 316 319 327 334 338 342 344 345 345 343 342 340 338 336 335 334 334 334 334 336 336 336 334 332 331 331 330 329 329 329 327
307 308 310 310 311 313 313 313 313 313 313 314 314 314 316 315 315 315 318 328 334 337 343 344 345 344 344 344 342 341 339 336 335 334 335 335 335 335 334 334 333 332 331 330 329 329 328 329 328
305 304 309 311 312 315 313 313 314 313 315 314 313 313 314 314 313 322 331 332 334 337 341 343 344 341 342 341 340 338 336 335 335 334 334 335 334 333 333 332 332 331 330 330 330 329 329 328 328
302 303 307 313 316 313 314 316 315 314 315 315 315 313 313 313 313 322 331 332 335 337 338 339 341 339 338 336 335 334 334 333 333 333 333 333 333 332 332 332 332 330 329 330 330 329 329 329 328
308 304 304 305 308 310 313 314 315 315 314 315 313 313 312 313 315 329 332 333 336 337 337 337 337 336 336 334 333 333 333 333 333 333 333 333 333 331 329 330 329 329 328 329 329 328 328 328 328
306 308 305 303 309 313 313 314 316 315 314 314 313 313 313 313 325 333 335 336 336 336 337 337 337 335 334 334 333 332 331 333 333 332 333 333 331 330 330 329 329 329 329 329 328 328 327 329 329
308 312 312 305 306 311 313 314 312 314 314 315 314 314 317 321 333 335 336 336 335 336 335 335 334 334 333 333 332 332 334 333 332 331 332 331 330 330 330 330 329 330 330 329 329 328 328 328 328
308 312 311 310 310 309 311 312 312 313 311 312 313 314 330 334 333 336 337 335 335 335 334 334 334 334 333 332 331 332 332 332 331 332 332 331 331 331 330 330 330 330 329 329 330 329 327 327 327

GFSSGP_925_thetae_048.txt.gz
Theta_e
323 321 320 323 319 322 323 320 326 326 330 332 329 332 335 333 335 334 331 334 328 332 327 321 315 312 311 313 314 313 312 311 311 311 310 310 310 310 311 311 312 313 314 315 317 318 319 318 320
323 313 326 323 320 327 319 322 325 324 328 333 331 329 332 334 331 333 332 335 331 327 325 321 316 313 312 313 314 313 312 312 312 311 312 312 312 312 312 313 314 318 321 320 320 321 324 326 326
316 321 322 327 324 323 320 325 327 330 330 334 333 330 332 334 334 333 331 334 335 327 327 320 317 315 313 313 314 314 313 312 312 312 313 313 313 314 314 315 316 322 328 330 331 331 331 332 333
320 321 319 325 329 326 321 327 328 327 327 332 333 331 328 333 334 332 331 334 336 328 329 321 318 316 314 313 315 314 313 313 313 313 314 314 315 315 315 316 318 324 331 333 334 335 335 335 336
324 320 322 325 326 326 326 327 326 327 329 333 332 332 330 331 335 332 333 335 335 334 328 321 319 316 314 313 315 315 314 313 313 314 315 315 316 317 317 318 320 324 333 335 336 337 338 338 337
321 319 324 324 324 325 324 323 325 327 328 334 332 329 331 329 335 336 335 335 336 334 329 321 320 317 316 314 314 315 315 314 314 315 316 317 318 318 319 319 323 332 334 335 337 336 337 335 332
321 320 325 325 325 325 324 323 325 326 327 331 330 330 328 329 334 336 336 337 337 335 329 323 322 316 316 314 314 315 315 315 315 315 316 317 318 319 320 321 321 329 335 333 336 336 334 331 329
322 323 328 324 325 325 324 323 325 327 328 327 327 330 329 328 334 337 337 338 337 335 328 324 322 320 316 315 315 314 315 316 315 315 316 317 318 319 321 321 322 324 328 330 333 337 333 331 329
321 323 324 326 324 324 322 325 322 323 327 326 327 328 328 329 332 337 340 339 338 336 333 327 324 322 319 320 317 314 314 316 316 316 316 317 318 319 321 322 323 324 325 328 332 334 332 330 330
328 324 322 323 324 323 325 326 325 324 324 326 327 327 327 329 329 330 333 336 337 338 336 333 328 324 323 321 320 320 317 318 317 317 318 318 319 319 320 322 323 323 325 326 330 333 333 331 330
329 332 327 324 324 325 326 328 326 327 327 324 327 325 325 326 326 325 328 334 336 335 337 336 334 330 325 323 324 322 323 322 321 320 320 321 321 320 322 323 324 324 325 327 331 333 334 333 331
331 330 330 327 326 331 331 329 330 327 328 325 326 325 325 325 323 322 325 328 332 334 335 335 336 336 332 326 326 326 325 327 327 325 324 324 325 324 323 324 324 324 325 328 333 335 335 336 333
327 327 329 331 331 331 330 331 330 329 327 326 326 326 325 324 323 323 324 325 327 328 328 329 331 334 336 335 331 329 327 327 329 328 327 327 327 326 323 324 324 324 325 327 334 335 336 336 335
317 322 325 324 323 324 325 326 325 325 325 324 323 324 322 321 321 321 322 323 324 325 325 326 325 326 330 335 336 334 331 330 330 330 329 329 330 328 322 323 324 325 325 326 334 337 337 335 335
313 315 314 315 316 318 322 323 325 324 323 323 323 323 321 320 320 319 323 323 325 326 326 325 326 325 327 331 334 336 334 333 332 332 332 331 331 330 324 323 323 324 323 326 336 336 335 335 335
315 314 317 318 315 317 321 324 324 323 323 323 323 323 322 320 320 322 323 323 323 324 324 324 324 324 325 329 335 337 336 335 334 335 335 334 332 331 328 324 323 323 324 330 337 334 334 335 333
313 318 317 318 318 319 319 322 322 322 322 322 321 320 320 319 319 320 322 323 324 324 324 324 324 324 325 329 335 337 337 337 337 337 336 336 335 333 331 329 325 325 327 337 335 334 335 333 331
314 316 316 318 319 318 319 320 320 321 321 320 319 319 319 320 320 320 322 323 324 323 323 323 324 324 325 332 337 338 338 338 338 338 337 337 336 335 334 333 331 329 333 336 335 334 334 333 332
313 315 317 318 317 321 320 320 320 319 319 320 321 321 321 321 320 320 322 322 323 322 322 323 323 323 324 335 338 338 338 338 339 339 339 339 337 335 334 335 334 334 337 334 334 334 333 332 331
311 312 312 313 314 315 315 314 313 315 316 318 320 320 319 319 317 318 320 321 320 320 322 324 325 323 326 329 335 338 338 339 340 340 340 339 338 337 338 337 337 337 336 334 334 333 332 331 330
309 311 312 314 313 313 313 315 315 315 313 313 314 314 316 318 317 318 317 316 319 319 321 323 327 326 329 335 336 338 338 339 339 339 340 340 339 340 339 338 338 336 334 334 332 331 330 327 327
308 310 312 313 313 314 313 316 314 314 314 313 313 313 313 313 314 315 315 315 317 319 321 325 332 334 336 339 339 339 339 335 337 340 340 340 340 338 339 338 335 332 334 333 331 331 330 328 326
307 309 310 311 311 312 312 311 312 311 312 312 312 313 312 310 312 312 312 313 316 318 324 332 338 339 340 341 341 339 337 335 336 335 337 334 333 333 338 335 333 334 333 332 331 330 330 329 327
307 307 307 309 310 312 311 311 312 311 311 311 311 311 311 311 310 311 311 314 319 328 334 339 341 342 341 341 339 339 336 334 333 333 333 333 333 334 334 334 335 334 332 331 330 329 328 328 328
304 303 307 310 311 311 311 311 312 311 311 312 312 311 310 310 310 310 312 323 328 333 338 341 341 340 340 340 338 338 336 336 335 333 333 334 334 334 334 334 333 332 331 330 329 329 328 328 328
302 301 307 312 313 309 312 314 313 312 312 312 312 311 310 310 308 309 310 321 329 335 338 340 339 338 339 339 338 338 337 335 334 334 334 334 334 333 333 332 331 331 330 329 329 329 328 328 328
306 302 302 303 306 306 310 311 311 312 312 312 312 311 310 309 310 310 313 327 332 335 337 339 338 337 338 337 336 335 334 334 333 333 333 332 332 332 331 331 331 330 329 328 328 328 328 328 328
305 304 305 301 307 310 310 311 313 312 312 311 312 311 311 311 312 312 327 332 334 335 337 338 338 336 334 333 333 333 333 333 332 332 332 331 331 330 329 329 328 328 328 328 328 327 327 327 328
307 307 308 303 304 310 311 311 309 311 312 313 311 310 310 321 328 330 333 333 334 334 334 335 335 333 332 332 332 332 332 332 332 331 331 331 330 329 329 329 328 328 328 328 328 328 328 328 328
306 308 310 310 310 306 307 308 309 310 309 309 309 312 314 331 331 333 333 334 334 333 333 332 333 332 332 332 332 332 332 332 331 331 331 331 329 329 329 329 329 329 329 329 329 328 328 327 327

GFSSGP_925_thetae_051.txt.gz
Theta_e
317 322 319 324 323 325 321 320 321 330 333 331 332 339 340 339 336 338 333 332 330 331 332 322 317 315 311 311 313 313 312 312 311 311 311 311 310 310 310 310 310 311 315 318 322 321 319 318 318
323 316 326 327 322 321 320 322 323 326 326 330 335 332 337 340 335 335 335 333 329 331 328 323 317 314 311 311 313 313 312 312 311 311 310 310 310 311 311 312 313 324 328 324 322 322 324 323 322
317 321 323 326 321 320 320 322 322 329 331 332 336 332 334 336 336 336 332 332 328 332 325 323 319 314 312 312 313 313 312 312 311 311 311 311 311 312 313 314 315 322 327 327 325 326 328 330 331
320 322 324 326 324 322 321 327 331 329 330 332 335 335 331 334 337 335 329 331 330 331 326 323 320 315 313 312 314 314 313 312 312 312 312 312 313 314 314 315 317 322 329 331 332 333 333 333 334
322 324 321 324 322 324 327 325 326 328 330 332 335 335 333 334 334 332 329 332 332 329 327 323 320 317 313 312 314 314 313 312 312 312 313 313 314 315 315 317 318 321 328 334 335 335 335 336 337
320 325 324 318 320 322 324 326 327 327 329 331 335 332 335 332 337 335 333 333 334 330 327 327 321 318 314 313 313 315 314 313 313 313 313 314 315 316 317 318 319 321 326 333 335 336 335 334 332
323 327 320 323 321 320 321 323 324 326 329 332 332 334 333 332 337 335 334 332 335 334 329 330 325 320 315 313 313 314 315 314 313 313 314 315 316 317 318 319 320 322 324 328 332 332 332 334 330
320 326 323 323 321 322 325 326 326 328 330 329 330 334 334 331 337 338 338 337 336 336 335 332 326 332 323 318 313 313 314 315 314 314 314 315 316 318 319 320 321 322 323 329 331 332 331 330 329
324 322 322 321 323 321 324 325 327 325 327 327 329 330 329 330 339 340 340 339 338 336 335 333 329 329 328 325 322 315 315 315 315 315 315 316 330 332 331 328 324 322 323 328 330 332 334 332 331
329 328 324 321 322 324 323 327 327 327 328 329 328 329 329 329 331 336 340 340 340 340 337 335 330 326 328 333 329 333 337 337 335 333 334 333 334 335 333 333 322 323 325 325 330 333 334 335 337
329 331 326 323 322 323 324 324 326 326 328 329 329 330 330 329 329 329 330 334 337 338 339 336 335 331 327 332 333 335 336 338 338 336 333 336 335 334 333 334 334 334 330 334 334 337 339 339 338
325 327 328 327 325 325 325 325 325 327 327 328 329 330 330 329 329 329 329 329 331 332 333 335 335 336 335 331 333 334 334 336 336 336 336 335 335 334 333 333 333 336 334 335 336 338 339 340 339
324 323 326 328 328 327 327 328 328 329 329 329 330 329 329 329 329 329 327 327 327 328 328 331 330 328 331 335 333 332 332 334 335 335 337 335 333 334 333 333 332 332 333 334 335 338 339 339 339
322 324 323 324 330 331 331 331 331 330 329 329 328 328 328 327 327 326 327 327 327 326 327 326 325 325 326 328 332 334 333 334 335 336 336 338 334 335 333 332 332 332 332 332 333 335 339 338 336
319 320 321 326 326 328 326 329 329 327 327 327 327 327 327 327 325 326 326 327 328 326 325 325 324 324 325 325 327 333 336 335 336 337 337 337 336 335 335 333 332 332 328 327 331 327 337 339 339
316 317 320 321 319 322 324 328 327 326 326 326 327 327 326 327 326 325 326 326 323 323 323 323 322 322 322 323 328 334 336 336 337 337 337 337 337 336 335 333 332 331 331 327 328 332 338 338 337
316 319 320 320 320 320 321 325 325 324 324 326 327 327 326 326 326 325 325 323 322 323 323 323 322 322 322 323 332 337 337 337 338 338 338 338 338 337 336 335 334 328 326 327 331 334 337 336 335
316 317 318 320 320 320 321 323 324 324 324 325 326 326 326 326 326 325 324 323 322 322 323 322 322 322 322 329 337 338 338 338 339 338 339 339 338 338 337 336 335 330 325 328 332 337 335 337 337
315 316 317 317 319 320 322 324 323 322 323 323 324 325 326 327 327 324 323 323 322 322 322 322 320 322 324 336 338 339 340 339 339 339 339 339 339 338 337 337 336 334 333 332 336 335 336 335 331
314 315 317 317 317 319 321 323 323 320 321 323 324 324 325 326 325 326 323 323 323 322 320 320 320 322 325 336 339 340 340 337 339 340 340 340 339 338 338 337 334 333 333 337 338 334 334 334 332
313 315 316 317 316 317 317 320 320 320 320 320 320 320 321 322 322 325 324 324 323 323 320 320 319 323 326 333 337 338 339 339 339 340 341 339 339 339 338 337 335 335 337 338 336 334 334 333 328
314 313 313 314 316 319 317 321 321 321 320 320 319 320 320 319 319 321 323 325 323 323 322 318 321 328 332 334 338 339 340 341 341 341 341 341 340 340 339 339 337 337 338 336 334 332 331 331 329
311 312 314 314 316 316 317 316 318 318 318 318 320 319 319 319 320 320 321 321 320 320 320 329 337 339 339 338 339 340 342 341 340 341 341 341 340 340 339 338 337 336 335 335 335 332 330 330 331
310 310 310 311 313 315 316 316 317 317 317 317 317 317 317 317 317 317 318 317 318 319 330 338 341 342 340 340 340 341 341 339 340 340 340 338 337 337 338 337 335 335 336 333 333 333 332 330 331
307 311 313 313 314 315 314 315 316 317 316 315 316 317 317 318 318 319 319 320 320 326 336 341 342 342 341 340 340 340 339 339 339 338 337 336 336 336 336 335 336 336 333 331 332 332 331 330 330
308 310 311 311 313 312 312 314 314 315 316 316 315 317 317 319 320 320 321 321 321 329 339 342 343 342 341 340 339 338 338 338 338 337 336 337 337 337 335 335 334 333 332 331 331 331 331 331 330
307 307 309 309 310 312 312 313 313 314 314 315 315 318 320 321 323 329 331 323 323 334 340 343 343 342 341 340 338 338 337 337 336 335 336 336 335 335 333 334 333 333 332 331 331 331 331 331 331
308 308 308 308 310 310 312 313 313 317 316 316 315 317 319 326 331 336 334 330 333 338 342 342 342 341 339 338 337 336 336 336 335 335 335 334 333 333 333 333 333 332 331 331 331 330 330 330 330
309 309 309 309 309 311 312 314 316 317 316 316 315 316 317 323 333 337 335 334 337 340 342 341 340 338 337 336 336 335 335 335 335 335 334 334 333 332 332 331 331 330 331 331 331 331 330 330 331
310 309 310 311 310 310 311 312 315 314 314 315 316 316 316 321 332 336 334 334 338 340 341 340 338 337 335 335 335 335 334 334 335 334 334 333 332 331 331 331 330 331 331 331 331 331 330 330 330

GFSSGP_925_thetae_054.txt.gz
Theta_e
316 326 320 324 327 324 324 323 325 335 336 333 336 340 341 340 341 342 339 340 338 339 343 322 318 316 315 315 315 315 315 316 317 321 326 327 326 323 322 321 319 317 321 321 321 320 318 322 327
324 324 323 325 324 324 324 324 325 330 334 334 335 339 340 342 338 337 337 339 339 341 344 335 317 316 314 314 314 314 314 313 314 314 315 317 318 318 316 313 311 311 322 327 327 325 320 320 321
327 320 324 323 324 324 324 324 328 328 334 335 337 337 337 342 340 335 338 338 340 343 344 340 318 316 314 313 313 314 313 312 312 312 312 312 311 312 311 311 312 316 324 328 328 328 328 328 329
322 321 323 324 324 323 324 328 327 333 335 336 336 338 335 337 339 336 338 337 340 341 342 340 320 317 314 312 313 314 313 312 312 311 311 311 311 311 312 314 316 323 329 330 330 329 329 330 331
322 322 321 322 322 323 324 324 326 331 333 335 338 339 337 337 339 338 338 336 338 339 340 342 322 317 315 312 312 314 313 313 312 312 312 312 312 313 314 316 318 323 331 332 334 332 332 333 334
324 324 323 321 322 322 323 324 326 328 331 334 337 338 338 338 339 338 338 338 336 339 340 339 326 318 315 312 312 314 314 313 312 312 312 312 313 314 315 317 319 323 331 334 334 334 335 335 334
326 322 323 322 322 321 322 324 325 327 331 335 336 338 338 337 337 338 338 339 339 339 341 341 342 329 316 314 312 313 315 314 313 312 312 313 314 315 316 317 319 322 329 332 333 334 335 334 331
326 325 323 321 321 323 323 323 324 325 330 332 333 338 338 337 341 340 339 339 340 341 340 342 343 341 339 333 315 313 315 315 314 313 313 313 314 316 318 318 320 322 326 329 331 333 333 334 333
326 326 326 324 321 321 321 323 325 328 331 331 332 334 332 336 341 340 340 339 338 338 341 341 340 341 340 336 335 321 321 318 317 318 316 321 330 332 331 330 331 322 324 326 330 332 333 332 331
329 329 328 325 323 322 321 323 324 329 330 332 331 332 332 333 338 340 340 338 338 338 339 341 342 340 341 339 338 341 337 337 336 333 334 332 331 331 332 332 330 327 324 326 331 333 334 334 338
330 331 328 327 325 322 322 323 324 327 331 332 333 333 333 332 333 334 333 335 337 338 339 341 342 341 341 340 339 339 339 339 339 337 334 334 331 331 333 333 335 334 331 334 333 336 338 338 338
329 329 330 329 327 325 324 324 324 323 326 329 330 332 331 332 333 333 333 333 332 333 335 337 344 343 340 340 340 339 339 339 340 340 338 336 336 334 335 333 334 335 333 334 334 336 338 339 338
325 326 327 328 328 328 327 327 327 326 326 326 328 329 331 332 332 332 331 331 331 331 332 335 341 347 343 341 340 340 340 339 340 340 341 340 337 336 335 333 332 333 333 333 334 335 338 338 338
321 323 325 325 327 328 328 329 330 330 328 329 330 331 331 330 331 330 330 330 330 331 333 336 338 341 344 341 343 342 342 340 340 340 340 342 339 337 335 334 333 332 332 332 333 334 336 337 339
318 321 323 325 326 326 329 331 331 330 330 332 331 330 330 330 329 330 329 329 331 332 333 333 334 335 337 340 342 343 341 342 340 340 340 341 342 337 336 335 334 332 331 332 333 334 335 336 339
316 318 321 322 324 326 326 331 329 329 330 331 330 330 329 330 330 329 329 330 331 332 331 332 332 331 332 333 338 341 340 340 340 340 341 342 343 341 339 337 335 334 332 333 332 332 332 331 339
317 318 320 321 323 324 327 329 329 329 329 330 331 330 329 330 330 329 330 329 330 330 331 331 333 334 334 333 337 339 341 341 340 340 341 342 343 342 340 340 338 337 334 333 332 331 330 333 339
316 317 318 320 321 322 323 327 327 327 328 329 329 329 330 330 330 329 329 329 328 329 329 331 335 334 336 334 339 339 341 342 341 341 342 343 343 342 342 341 340 338 336 333 332 330 331 339 337
314 317 318 319 320 323 323 325 325 326 326 328 328 329 330 330 329 327 327 327 327 328 331 334 334 337 337 337 339 341 342 342 342 343 343 344 344 343 342 342 341 339 336 334 333 335 336 337 338
312 315 318 318 319 320 323 324 324 325 326 327 328 328 328 329 329 329 327 327 327 328 329 332 334 336 338 337 340 341 343 344 344 344 344 345 344 344 343 342 341 339 338 336 337 339 338 338 337
312 314 317 318 319 320 321 323 324 324 325 326 326 326 326 326 326 326 326 325 326 327 328 330 332 335 337 338 342 344 345 344 344 344 345 345 345 345 343 342 342 342 339 339 340 340 338 337 336
310 311 314 317 319 322 321 324 324 323 324 325 325 325 325 325 325 325 325 326 325 325 325 326 330 332 337 341 341 343 343 343 343 345 345 345 345 344 343 343 343 341 340 340 339 338 337 337 335
309 310 313 315 318 320 321 323 322 322 323 324 324 324 324 323 323 323 323 323 322 322 323 324 328 335 341 343 341 343 342 344 346 345 347 346 346 345 345 345 344 343 340 339 337 337 336 335 334
310 310 313 316 317 320 319 321 321 321 322 322 322 322 321 321 321 322 322 321 321 321 322 324 335 342 345 344 343 344 344 345 346 347 347 347 346 346 345 343 342 341 339 339 338 337 336 334 333
311 311 318 320 320 320 318 319 320 321 320 320 321 319 320 321 322 323 323 324 324 324 323 329 340 346 346 345 346 347 348 348 349 348 346 344 343 342 342 342 341 340 339 338 336 336 334 334 333
311 312 314 317 316 317 316 318 319 319 320 320 319 319 320 324 325 327 329 331 330 325 328 334 342 347 347 347 347 348 348 347 346 344 343 341 338 338 342 341 341 340 339 337 335 334 333 333 333
309 310 311 313 314 315 316 317 317 318 318 319 319 319 322 326 331 334 337 337 333 327 333 340 345 347 347 347 346 346 345 344 343 343 341 339 339 340 341 340 339 338 336 335 334 332 333 332 333
309 310 310 312 314 315 316 317 318 318 318 318 318 319 321 324 328 335 340 338 334 333 340 344 347 347 347 346 345 345 344 343 342 341 339 339 339 337 339 338 337 335 334 333 333 332 332 332 332
309 310 311 311 311 313 314 316 317 320 320 320 320 320 320 321 325 334 340 337 339 340 343 346 347 346 346 345 343 342 340 340 340 340 339 339 338 337 336 335 334 333 332 332 332 333 332 332 332
311 313 313 310 313 312 315 319 318 320 320 319 319 320 320 320 321 333 340 337 341 343 345 346 345 345 344 341 340 340 339 339 339 338 338 337 336 335 334 332 332 331 332 333 333 333 332 332 332

GFSSGP_925_thetae_057.txt.gz
Theta_e
315 322 326 325 328 326 327 326 328 328 329 333 335 339 340 339 342 346 341 337 336 338 349 325 318 317 315 316 317 319 320 322 329 335 341 346 347 346 341 336 329 325 323 320 317 316 320 322 321
319 322 324 327 327 329 327 327 326 328 336 337 338 339 342 342 340 341 341 337 337 342 347 339 319 317 315 314 316 318 318 320 324 330 336 341 343 339 332 327 323 320 323 327 327 326 326 327 327
330 325 324 325 327 327 328 328 327 331 335 336 337 339 341 342 341 337 338 338 338 343 345 342 320 317 315 314 315 316 317 318 319 322 326 330 327 324 323 320 316 315 331 332 330 328 326 326 327
326 323 324 326 325 327 326 328 328 333 333 337 338 339 338 339 341 338 338 338 339 342 343 340 324 318 316 314 314 315 315 315 317 317 318 318 317 317 315 313 312 318 332 333 332 331 329 332 334
324 324 323 324 325 326 327 327 330 331 336 338 339 340 338 338 340 338 336 336 338 339 342 343 336 318 316 314 313 314 314 314 314 314 314 313 312 312 312 313 314 319 331 333 334 333 331 332 334
326 324 325 324 324 325 326 327 326 328 335 337 338 340 341 339 339 338 335 336 337 338 341 348 341 320 317 315 313 313 314 314 313 312 313 311 311 312 313 314 316 319 328 334 336 336 333 332 332
328 327 324 324 326 326 326 326 326 328 333 335 337 340 340 339 339 337 334 335 335 338 341 347 349 331 318 317 313 312 314 314 313 313 313 312 312 313 314 315 317 319 327 331 335 337 336 334 333
329 328 327 325 324 325 326 325 325 327 332 334 336 339 340 339 338 337 335 335 336 338 340 341 350 342 339 337 316 312 313 314 314 314 314 313 313 313 315 316 317 319 324 330 334 336 337 335 334
328 331 330 327 325 323 322 323 325 327 329 332 335 337 337 339 340 337 335 336 336 337 339 342 344 345 341 338 339 318 316 316 316 319 318 316 330 332 331 328 328 320 324 329 332 334 336 335 335
330 332 331 328 327 326 324 324 324 325 329 332 335 334 334 339 338 337 336 337 337 337 338 340 342 343 344 340 338 342 339 337 337 335 335 333 330 330 332 331 327 331 324 327 330 333 335 337 337
330 332 330 329 328 327 326 325 325 324 327 332 334 334 334 336 338 338 337 336 336 336 337 338 345 345 344 343 340 341 344 341 340 338 336 336 332 331 332 332 334 334 334 334 334 336 338 338 338
328 330 330 330 329 329 327 325 325 325 325 330 334 335 335 335 335 336 337 337 337 338 338 339 344 348 346 344 343 342 342 343 342 342 340 337 337 333 333 333 334 336 335 335 335 336 337 339 339
323 325 327 329 330 330 329 328 329 327 326 326 330 333 334 334 335 335 335 335 335 335 335 335 337 350 349 347 343 342 342 342 342 343 344 341 338 337 335 335 335 335 337 336 336 334 336 339 339
320 322 323 326 327 329 330 330 330 330 329 328 326 328 331 332 334 334 334 334 334 333 334 335 339 349 352 351 348 344 345 342 343 342 344 344 342 340 338 338 337 334 335 335 334 335 335 337 337
318 318 320 322 323 325 328 329 331 330 330 330 329 329 330 332 333 334 333 333 333 333 334 336 338 340 344 347 349 348 345 344 343 343 343 345 345 343 341 340 338 336 334 334 335 335 336 336 337
316 319 319 319 322 324 326 329 329 329 331 331 331 331 332 333 333 332 332 332 332 333 334 336 335 333 335 338 340 342 341 344 343 343 343 344 346 345 343 341 339 338 337 335 334 334 334 335 335
312 315 320 319 320 322 324 329 328 328 329 331 332 332 331 332 332 332 331 332 332 334 335 334 334 334 336 337 338 339 341 343 343 343 342 344 345 347 345 342 341 340 338 336 335 336 334 334 332
311 312 314 318 320 320 322 325 327 328 328 329 331 332 332 331 331 332 331 331 332 333 333 335 335 334 337 339 339 338 340 343 344 343 343 344 347 346 346 344 344 342 340 338 337 336 334 333 332
313 312 312 316 318 319 321 323 324 326 328 330 330 332 332 332 331 330 331 331 331 332 333 334 334 339 340 339 337 337 341 343 344 343 344 346 347 346 346 345 344 344 342 340 338 336 335 333 340
312 312 313 313 315 319 321 321 324 324 326 328 329 330 330 331 332 332 331 331 331 332 333 335 338 339 341 340 338 338 340 342 345 345 346 347 347 347 346 345 345 343 342 340 338 337 338 339 339
313 313 312 313 314 317 320 321 322 323 325 326 327 329 330 330 331 332 332 332 331 332 333 334 336 338 341 339 338 343 346 347 347 347 348 348 348 347 346 346 346 344 343 342 340 340 341 339 339
312 312 311 311 314 318 320 323 323 323 324 326 326 327 328 329 329 330 330 333 331 329 329 333 334 337 338 340 337 342 345 347 346 347 348 348 348 346 346 345 345 345 343 342 343 342 340 339 339
312 311 311 311 313 316 319 322 323 323 324 324 326 326 327 328 329 328 328 329 327 327 328 329 331 334 336 339 340 342 347 344 345 346 350 348 347 346 346 345 345 344 343 343 341 340 340 337 338
310 310 311 311 312 316 317 321 323 324 324 324 325 326 326 327 327 327 327 325 324 324 324 327 330 333 335 342 347 347 347 347 347 349 350 349 347 346 346 346 346 345 342 343 340 340 339 339 336
310 312 313 314 314 316 318 322 323 324 324 323 324 325 325 325 324 324 324 325 325 325 325 325 329 333 342 346 348 347 349 350 352 352 349 348 348 347 346 346 345 344 342 341 340 340 338 337 336
311 314 316 319 315 316 318 321 322 322 322 321 322 323 323 322 324 325 325 327 327 327 327 326 330 340 347 348 348 348 350 350 351 351 349 347 346 345 345 344 342 340 341 340 339 337 336 335 335
312 312 314 317 317 320 319 319 319 321 321 322 322 322 324 326 328 331 333 334 336 334 328 329 332 342 348 349 350 352 352 351 349 349 346 343 341 343 343 341 340 340 339 338 337 335 335 334 335
314 311 315 313 315 318 318 318 321 320 321 321 322 322 323 324 326 331 337 340 339 334 330 335 339 347 349 350 351 351 349 348 348 347 343 340 340 339 339 338 340 338 336 335 334 333 333 334 334
313 313 313 315 315 317 319 320 321 321 321 322 322 323 322 323 324 332 340 340 340 335 338 342 347 349 349 349 349 348 347 347 345 342 342 341 340 338 337 337 336 336 335 334 334 334 333 332 333
313 314 316 319 315 315 316 317 322 322 322 322 323 322 322 322 322 327 341 339 342 341 344 347 347 348 348 348 347 346 344 343 342 341 340 340 338 337 336 336 335 333 332 333 334 333 333 333 333

GFSSGP_925_thetae_060.txt.gz
Theta_e
315 317 325 328 327 327 327 326 327 328 329 330 333 335 336 338 344 349 338 337 345 333 324 322 319 317 315 316 317 319 321 326 334 341 345 345 344 342 342 339 335 328 323 321 319 316 315 316 318
321 320 323 327 327 327 328 326 327 327 330 330 334 336 340 342 341 340 338 338 345 334 325 323 319 317 315 315 316 317 319 322 330 338 340 342 342 341 339 333 327 323 321 315 313 317 320 321 323
322 323 325 324 326 328 327 328 328 328 330 336 336 337 338 342 341 340 337 339 344 339 326 323 320 318 316 315 315 315 317 319 325 333 336 338 338 338 332 326 321 318 316 321 327 328 326 323 324
328 329 324 325 326 325 327 328 329 328 329 336 336 338 338 340 341 339 337 338 346 343 330 326 320 318 316 315 314 315 316 317 318 323 331 335 334 331 325 320 317 314 317 330 332 330 330 329 331
324 325 323 323 324 326 327 327 328 328 332 333 336 338 339 339 340 338 338 339 342 344 343 336 320 318 317 315 314 315 315 316 316 317 321 325 324 323 319 316 313 313 320 328 332 331 330 330 333
327 325 325 324 324 324 325 326 327 328 331 333 337 338 339 338 340 337 337 338 339 342 342 341 333 318 318 316 314 314 315 315 315 315 316 317 317 317 315 312 312 314 319 327 330 329 329 330 332
328 328 326 324 324 325 326 327 326 326 327 329 335 338 339 339 339 337 335 337 338 341 343 343 339 332 318 316 314 314 314 314 314 314 314 314 314 313 313 313 313 315 320 327 329 331 332 331 331
330 329 328 327 326 324 325 325 325 325 326 329 333 337 338 341 339 336 335 336 337 340 345 345 345 339 325 317 316 314 313 314 314 314 313 313 313 312 313 314 315 316 320 327 328 332 333 332 331
328 331 332 330 328 327 326 325 324 325 325 327 332 335 338 339 339 337 335 335 336 339 343 349 351 345 335 331 327 317 314 313 315 315 315 314 315 317 316 316 317 317 320 324 327 332 334 334 334
326 331 331 329 329 329 326 326 325 325 325 326 329 335 335 338 339 339 337 337 336 338 340 342 348 347 341 339 339 335 319 318 317 323 325 320 321 327 327 329 325 329 323 322 328 331 333 336 338
327 332 330 329 329 329 329 328 326 325 325 325 329 333 335 336 341 339 338 337 337 338 338 342 344 346 345 342 340 339 339 336 334 331 333 335 329 328 333 332 332 329 329 328 331 332 334 339 338
322 326 329 329 329 329 329 329 328 326 326 326 327 332 335 336 340 338 337 337 337 337 337 343 343 344 345 345 342 342 345 344 342 340 336 336 337 333 332 334 335 332 332 333 334 335 337 335 338
317 319 322 326 328 330 330 330 330 329 328 327 327 328 336 337 338 337 337 337 336 338 338 340 344 344 344 344 346 343 344 344 345 343 342 339 340 337 336 335 334 337 334 337 334 337 336 337 337
318 318 319 320 323 326 328 330 330 331 329 329 329 328 329 335 336 337 337 338 336 336 336 335 347 347 346 345 344 346 345 343 345 346 345 343 340 341 338 336 337 334 338 337 338 334 337 339 340
315 318 319 319 320 322 324 328 329 330 331 331 331 330 330 330 336 336 336 337 336 335 334 335 344 346 348 340 337 340 340 345 344 345 345 347 344 340 342 340 335 339 336 340 338 338 336 336 338
313 315 317 319 319 320 321 324 326 328 330 331 331 331 331 330 330 332 334 337 335 335 334 334 337 343 341 340 345 350 350 347 345 346 345 346 348 345 341 343 342 338 340 336 337 338 339 338 337
314 313 313 314 318 319 320 322 324 325 327 330 331 332 332 332 333 332 333 335 334 335 334 336 336 340 340 341 337 338 340 341 346 345 345 346 349 348 347 346 344 342 340 339 338 336 335 336 337
312 313 313 312 314 315 318 320 322 325 327 328 329 330 333 332 333 334 335 334 335 334 334 336 337 337 336 336 338 341 341 341 343 345 346 344 346 350 346 347 344 343 343 340 339 338 336 337 336
314 314 314 315 314 314 316 318 322 323 324 325 330 330 330 333 335 332 334 334 334 334 337 337 335 336 335 340 341 342 341 339 344 345 345 344 348 347 349 345 347 344 344 342 340 338 338 338 335
314 314 314 315 314 314 316 316 318 322 324 325 328 331 331 332 332 336 335 336 338 337 334 334 337 335 331 342 339 342 341 341 342 345 345 346 348 348 348 348 347 345 345 343 342 340 338 336 334
314 314 314 314 314 314 314 316 317 319 322 324 327 329 330 331 334 333 336 338 337 336 336 336 334 333 336 341 343 338 339 341 348 347 347 347 348 348 348 347 347 346 343 345 342 339 337 341 340
314 313 313 313 313 313 313 315 319 318 322 324 325 328 330 330 331 334 336 340 340 337 334 332 331 330 334 337 339 342 344 347 347 348 349 349 348 349 348 347 345 347 343 344 341 339 340 340 339
314 312 312 312 313 313 312 314 315 319 321 324 325 327 329 329 329 331 334 336 333 332 331 330 331 336 335 339 343 339 347 346 348 348 350 350 348 349 348 344 347 345 342 345 342 343 340 339 339
313 312 311 311 311 312 312 313 314 317 322 324 325 325 327 329 328 328 331 331 331 331 332 331 329 339 335 339 340 341 345 345 349 348 353 351 349 347 344 344 346 345 343 345 343 341 339 339 337
313 312 313 311 312 315 313 312 314 316 318 322 325 326 327 327 328 329 330 330 332 331 329 330 335 338 340 341 342 344 349 344 354 353 352 350 347 346 347 345 345 345 343 343 341 340 339 338 338
314 313 314 316 317 320 318 319 315 317 317 321 324 325 327 327 328 328 329 330 328 327 328 327 328 340 339 338 346 349 352 349 357 352 352 349 346 345 345 345 346 346 343 341 340 338 337 337 336
315 313 313 313 314 318 318 319 317 318 319 320 323 323 324 325 326 326 327 331 333 331 334 333 330 334 338 348 351 351 351 353 354 350 352 350 348 349 346 346 344 341 341 340 338 336 335 336 335
314 314 316 317 319 319 317 317 318 320 321 322 323 325 326 326 327 329 331 336 339 338 337 334 330 338 349 350 352 352 354 352 352 353 350 346 347 347 345 344 341 339 337 337 336 334 336 334 334
314 313 313 313 314 315 316 316 319 320 322 323 322 324 326 324 324 326 332 338 340 340 340 336 333 348 351 352 354 354 354 352 350 348 345 344 343 342 341 340 337 337 336 336 334 335 334 333 334
314 316 317 319 316 318 320 321 318 322 323 323 323 324 324 323 323 323 341 342 340 339 339 340 345 350 352 353 353 352 350 349 347 345 344 341 341 338 338 338 333 335 336 334 334 335 334 332 333

GFSSGP_925_thetae_063.txt.gz
Theta_e
316 314 320 324 323 320 321 323 322 322 322 327 332 333 338 341 343 345 340 340 335 324 321 318 317 317 316 316 317 318 322 328 335 339 341 340 339 338 336 332 329 326 322 319 318 318 316 318 317
316 319 320 321 321 322 323 324 323 323 323 329 332 333 337 342 339 336 347 342 326 324 320 318 318 317 316 316 316 317 318 324 332 335 336 337 337 336 333 329 325 322 318 316 314 314 317 318 318
318 322 318 320 320 324 323 323 323 325 325 332 335 335 337 342 338 335 344 337 325 324 321 319 319 317 316 315 316 316 317 319 326 329 330 332 335 333 330 327 323 320 317 314 315 318 317 320 321
327 326 325 320 321 322 323 324 324 324 324 334 334 336 336 339 337 341 344 337 325 325 322 320 320 318 316 316 316 316 316 317 320 323 325 329 331 330 327 324 320 318 314 318 319 320 321 323 325
325 321 320 319 321 323 324 324 323 323 323 333 333 334 337 339 337 344 343 337 327 326 324 321 320 319 317 317 316 315 316 316 316 318 322 324 326 327 324 321 318 316 314 320 322 323 326 327 328
328 321 322 321 321 322 322 322 322 322 321 328 331 334 336 339 337 343 341 338 331 327 327 322 320 320 318 317 316 315 315 315 315 316 318 319 323 323 320 318 316 314 314 321 322 326 327 328 328
331 326 325 323 322 322 323 321 321 321 321 323 326 330 338 337 337 339 340 340 338 333 330 327 320 319 319 317 316 315 315 315 315 315 315 316 317 318 317 315 314 313 314 319 322 327 328 328 328
327 326 328 328 326 325 325 323 321 321 323 323 325 328 339 336 337 338 340 341 344 342 338 335 323 319 318 317 316 315 315 315 315 315 315 314 315 315 314 314 313 313 315 318 321 328 329 330 330
321 328 330 330 329 327 324 324 324 323 323 323 324 331 338 339 335 335 338 342 344 344 342 340 336 326 319 318 317 315 314 314 315 315 315 314 314 314 313 313 314 314 316 318 321 328 329 332 332
321 323 330 329 328 328 327 327 326 324 323 324 323 333 336 337 337 335 334 334 344 349 345 343 342 338 329 320 318 317 316 314 314 315 315 315 315 315 315 315 314 315 316 318 322 327 329 333 333
320 322 323 326 327 328 328 328 327 326 323 323 323 325 333 335 336 336 333 333 337 344 346 345 342 341 334 327 321 321 318 316 316 315 315 317 318 318 321 322 323 322 322 324 322 327 330 331 332
313 317 322 324 326 328 328 327 328 328 326 326 325 325 325 333 333 336 336 334 334 341 344 347 346 344 341 333 334 334 336 335 329 322 318 321 322 322 322 330 331 329 329 325 326 324 326 328 330
314 315 315 317 319 322 325 327 328 328 328 328 327 327 325 327 331 335 336 336 336 338 341 346 344 344 344 342 340 340 339 339 340 341 339 334 331 328 327 325 333 333 332 330 329 328 328 330 328
311 312 314 315 315 316 318 321 325 327 328 329 329 327 326 326 331 334 335 335 337 337 344 345 343 339 342 345 343 342 341 342 343 343 343 342 339 336 335 331 331 334 335 334 332 333 332 334 334
312 311 312 313 315 316 317 319 320 323 326 328 329 329 328 326 328 331 333 335 337 336 336 342 340 338 340 346 347 345 344 345 343 343 344 344 343 340 339 336 334 335 335 337 335 335 335 335 337
310 309 310 313 315 316 316 317 318 319 324 326 327 329 329 328 326 329 333 334 335 335 338 338 340 341 341 344 343 344 345 344 347 348 347 346 345 343 341 341 337 335 337 336 338 338 338 336 336
309 310 310 311 312 313 314 317 317 318 320 324 324 327 328 328 327 328 330 333 334 336 335 345 344 346 346 346 338 334 335 337 339 343 345 346 348 346 343 342 341 339 337 338 339 339 339 339 337
310 309 310 311 311 310 309 311 313 316 318 320 322 323 327 328 327 328 329 331 332 337 334 335 346 348 349 342 338 338 344 341 341 344 346 346 346 348 346 343 343 342 342 339 338 339 338 336 337
312 313 313 313 313 312 312 313 313 313 313 316 320 323 324 325 325 326 327 330 331 336 336 335 336 340 340 343 344 346 344 343 342 341 341 346 346 348 348 347 344 345 344 343 339 340 338 337 337
313 313 313 313 313 312 312 312 313 313 313 313 314 319 323 325 324 325 326 327 332 337 336 334 334 336 337 336 334 332 335 337 336 334 343 344 345 347 350 348 346 347 344 343 343 340 340 338 337
312 312 313 313 313 312 312 313 313 313 312 313 314 315 319 325 325 326 327 327 330 339 338 335 334 334 334 334 333 334 341 340 341 343 343 344 345 348 348 348 346 346 346 345 343 342 341 337 336
313 314 315 314 311 311 311 312 311 312 312 313 314 314 316 320 325 324 325 326 339 339 338 335 334 334 333 331 331 334 342 341 339 342 345 347 348 347 347 347 347 345 347 345 344 343 340 337 340
315 314 313 313 311 308 309 309 310 311 312 312 312 314 316 319 324 325 325 325 335 336 335 333 333 333 332 331 330 337 342 340 341 344 348 347 348 348 348 347 346 345 347 344 344 342 339 337 338
314 315 314 312 308 309 309 309 309 309 310 312 312 313 316 319 322 324 323 325 331 336 335 334 333 333 332 331 332 336 337 337 343 350 349 348 348 348 348 347 347 344 348 343 345 341 340 340 338
311 315 317 313 310 311 310 313 313 314 313 311 312 313 313 314 317 323 321 322 326 330 333 332 332 333 332 332 333 333 335 337 344 349 351 350 349 349 349 346 343 346 345 344 343 342 340 338 338
310 313 316 318 314 313 311 313 311 313 314 314 313 313 312 313 317 323 323 321 321 327 328 332 332 331 332 334 338 337 340 340 344 351 351 349 348 348 345 343 343 344 344 343 341 340 339 338 337
308 312 310 314 315 318 315 313 313 313 315 317 318 316 314 315 321 321 320 321 320 325 328 329 329 333 333 337 341 343 342 341 347 351 350 349 348 345 344 343 344 345 344 342 340 338 336 335 335
312 311 312 317 317 319 315 315 315 322 321 318 317 318 318 317 323 324 324 327 333 336 338 338 332 333 337 342 342 341 346 347 352 352 350 349 347 345 345 345 345 344 342 340 338 334 336 336 335
314 315 316 317 318 319 317 314 321 319 318 317 315 316 318 319 322 320 325 334 336 338 338 339 334 336 338 340 347 350 349 350 354 351 352 349 347 346 346 346 343 340 337 337 335 335 335 334 334
313 313 316 319 317 315 317 317 317 316 316 316 315 317 320 321 319 326 338 338 338 338 339 338 335 341 348 350 350 349 352 354 352 350 348 349 349 347 345 342 339 334 335 336 335 333 334 332 333

GFSSGP_925_thetae_066.txt.gz
Theta_e
316 316 318 322 322 317 320 322 322 322 321 320 321 333 339 341 343 341 339 340 327 321 319 317 320 318 318 318 318 320 324 329 332 336 337 335 334 332 331 331 330 327 321 318 317 317 315 316 316
317 319 319 318 320 321 320 320 322 321 321 320 323 330 340 342 337 343 342 339 324 321 319 317 318 317 317 317 317 318 321 325 329 333 336 334 333 331 330 328 326 322 318 316 315 314 316 319 319
322 322 316 320 318 321 321 322 322 322 322 322 324 330 338 340 339 342 341 335 324 321 319 317 317 317 317 318 317 317 319 321 326 330 332 332 332 330 328 325 323 320 316 314 313 315 318 321 321
325 324 321 321 320 320 321 322 321 322 322 320 324 334 339 337 338 341 341 334 324 322 319 318 316 316 317 318 317 317 317 319 325 328 330 330 330 328 326 324 321 318 315 313 315 317 320 322 323
325 317 322 318 318 319 320 321 320 320 319 320 321 330 338 335 337 340 340 328 324 322 320 318 317 316 317 317 317 317 316 317 319 323 323 324 324 323 325 322 320 318 315 314 316 318 321 324 326
328 320 320 322 322 321 321 320 319 320 320 320 321 321 337 338 344 342 334 326 325 323 320 318 316 316 317 317 317 316 316 316 317 318 319 320 320 321 323 322 319 318 314 314 318 320 323 326 327
330 322 323 321 323 325 324 322 322 320 320 321 321 325 336 340 346 342 333 329 325 323 321 320 318 316 317 316 317 316 316 316 316 316 316 317 318 320 320 320 319 316 315 314 320 325 326 326 327
326 324 327 326 327 326 325 324 321 321 324 322 322 325 338 334 346 345 339 334 330 326 324 322 321 317 316 316 316 316 316 316 316 315 315 315 315 317 318 317 317 316 314 314 319 324 326 328 328
320 325 329 328 329 327 326 324 326 325 322 323 323 327 335 336 339 339 342 340 336 335 329 324 322 320 317 317 316 315 315 315 315 315 315 315 315 315 317 315 315 315 313 314 318 323 326 329 329
320 320 328 328 328 328 327 327 327 327 325 324 323 324 326 333 336 337 341 346 345 342 335 329 323 321 319 319 318 316 315 315 315 315 315 315 315 315 315 315 314 314 314 314 316 321 326 329 330
317 322 324 323 325 326 327 327 327 328 327 326 323 324 323 326 332 335 338 344 345 340 341 337 329 321 320 320 319 318 317 316 315 315 315 315 315 316 318 317 317 317 315 316 317 321 326 329 328
312 313 316 321 321 322 323 324 326 327 327 326 327 325 324 325 329 334 332 338 344 347 342 340 337 333 327 321 320 320 318 318 317 317 316 315 316 318 319 319 319 320 318 318 317 320 322 325 327
311 312 313 313 313 314 318 319 320 319 322 326 327 327 325 325 324 327 329 333 339 347 348 344 341 339 336 332 325 321 320 319 320 321 320 319 317 318 320 320 321 324 324 325 323 324 324 324 324
309 310 310 310 311 312 314 315 316 317 319 321 324 327 325 325 325 326 332 334 333 340 346 346 345 342 339 335 330 325 326 330 335 336 336 336 330 328 326 324 324 326 327 329 329 329 329 328 328
309 309 309 310 311 312 314 315 317 317 318 319 321 324 325 326 325 324 327 335 335 337 342 345 345 344 342 338 339 338 339 339 339 339 340 341 340 340 339 336 332 329 328 331 332 333 332 332 332
308 307 308 310 310 312 314 315 316 316 316 318 320 323 324 325 326 327 328 328 335 338 340 341 345 344 344 342 342 342 342 342 341 341 342 343 342 342 341 340 337 337 332 332 334 335 334 334 334
306 307 308 309 310 311 311 311 312 314 316 316 317 318 322 324 324 326 328 328 329 335 338 341 343 344 341 340 342 343 343 344 343 343 344 344 345 345 343 342 341 340 337 334 335 335 336 337 336
309 308 309 311 311 311 310 311 311 312 312 312 312 314 317 322 323 325 328 328 328 330 336 339 342 339 338 339 340 342 345 346 346 345 345 343 344 346 346 344 343 341 339 336 336 337 337 338 338
310 311 311 312 311 311 311 311 311 312 311 311 311 312 312 315 319 322 326 327 327 327 332 338 342 339 341 341 342 344 343 338 339 342 342 345 346 345 347 345 344 342 341 339 338 338 339 338 337
310 310 310 312 312 312 311 311 311 311 311 310 311 312 312 312 313 319 323 324 325 325 327 335 344 341 342 343 344 345 341 341 341 340 340 340 341 344 347 347 346 344 343 342 342 339 339 339 337
311 311 313 314 314 312 310 311 311 311 311 310 310 310 311 312 313 315 319 323 324 324 327 332 343 344 344 343 345 344 342 338 338 337 338 337 340 345 347 347 347 346 344 344 343 342 340 338 337
313 313 313 314 314 312 310 311 309 309 309 310 310 309 309 309 311 313 317 322 323 326 327 331 336 342 346 345 343 338 335 337 334 333 336 340 342 345 345 348 348 347 346 346 343 343 341 340 336
314 312 312 314 314 311 311 307 309 308 309 309 308 309 309 310 311 311 314 318 323 324 329 332 334 336 340 339 336 335 334 331 330 334 335 336 343 346 347 348 347 346 345 345 345 343 342 340 338
311 312 312 310 309 311 310 307 308 308 308 308 309 311 311 309 309 311 311 313 316 323 328 332 336 336 336 336 334 333 331 331 338 340 340 346 347 348 347 347 347 347 345 347 344 343 343 340 337
308 312 312 314 310 311 309 310 309 310 311 312 313 315 315 315 314 312 311 312 315 324 332 334 335 335 335 334 333 332 330 329 333 340 341 348 348 348 347 347 347 346 345 346 344 344 342 339 339
306 309 312 317 316 313 312 313 310 309 316 317 316 314 314 313 314 315 314 311 312 318 330 333 334 334 334 334 333 332 331 332 335 336 341 348 348 347 347 348 347 344 345 344 343 343 341 340 338
310 307 309 314 313 312 312 312 311 319 318 316 315 314 313 313 313 316 317 314 316 319 327 331 332 332 332 332 332 333 334 336 335 337 342 348 348 347 348 347 343 343 345 343 343 341 340 338 337
311 310 312 312 314 316 315 313 312 319 318 316 314 312 312 312 314 318 317 318 320 320 325 328 330 329 330 331 332 334 335 337 337 338 345 349 348 348 347 344 343 344 344 342 341 339 337 336 335
311 312 315 313 316 318 318 314 317 318 317 316 314 314 314 315 317 319 316 321 323 324 327 326 326 328 330 330 333 337 339 340 342 343 345 349 348 347 345 343 344 345 343 340 339 335 335 335 335
310 312 312 310 314 315 314 314 315 315 314 314 315 314 314 315 317 317 318 316 331 332 335 335 332 331 331 333 337 341 344 345 346 349 348 348 347 345 344 344 344 344 341 338 335 334 335 335 334

GFSSGP_925_thetae_069.txt.gz
Theta_e
317 316 317 322 322 317 319 321 319 320 321 319 319 323 330 330 342 341 337 330 325 322 324 327 320 322 325 328 326 327 328 330 332 334 335 334 333 333 332 332 330 326 321 318 317 317 315 315 316
319 320 318 316 321 320 318 319 321 319 320 319 319 321 337 341 337 340 337 328 325 320 324 320 319 320 322 325 324 324 326 328 330 333 334 334 332 331 329 328 326 322 319 317 317 316 315 318 318
322 322 316 319 318 320 319 320 320 320 319 320 319 321 330 340 338 340 339 330 324 320 322 319 318 320 321 321 321 321 322 324 327 330 331 332 330 328 326 324 322 320 317 318 316 315 317 320 320
325 324 318 322 320 320 321 319 318 319 319 318 319 322 331 336 340 340 337 331 323 323 321 318 318 319 322 319 320 319 320 322 324 326 327 329 328 326 325 323 320 319 317 316 317 317 318 321 322
324 319 324 320 321 320 320 319 319 319 317 318 319 321 325 335 339 340 336 329 322 323 320 318 318 318 321 318 319 318 319 320 321 322 324 327 329 328 325 323 320 318 317 316 319 319 320 323 323
326 318 320 322 319 321 320 320 320 319 318 321 320 320 327 337 341 340 336 328 322 321 319 318 317 317 318 319 318 317 318 318 319 319 320 322 325 325 323 322 320 319 317 315 320 321 324 325 325
329 321 323 321 321 323 323 322 323 321 320 324 319 321 329 343 342 339 335 332 330 325 321 318 317 317 318 318 317 317 318 318 318 318 318 319 319 320 321 321 321 319 317 316 318 324 326 326 326
327 324 327 325 325 324 324 324 321 323 326 322 321 322 325 333 342 337 334 334 332 331 326 321 318 317 318 319 317 317 317 317 317 317 317 318 318 319 320 320 321 319 317 316 316 322 327 327 326
320 327 329 327 326 325 325 325 324 325 324 325 321 324 329 342 342 336 334 334 334 334 330 322 319 318 319 319 318 317 317 316 316 316 316 316 318 319 320 319 319 318 317 315 314 317 324 326 328
319 320 327 327 327 327 327 326 326 326 326 326 325 324 328 337 340 338 335 334 337 337 332 323 320 319 319 319 319 317 318 318 317 317 316 316 316 317 317 317 316 316 316 315 314 314 322 326 326
317 321 324 324 322 323 323 323 323 325 326 326 325 323 323 325 330 334 338 336 335 333 333 327 321 320 319 319 319 318 318 318 318 317 317 316 316 316 317 316 316 316 315 316 315 316 321 324 326
311 312 313 315 316 318 320 320 321 322 323 324 323 324 323 325 325 329 333 337 340 336 331 329 325 321 321 322 319 319 317 318 318 318 317 317 317 317 318 317 316 316 317 318 316 316 320 322 325
309 310 310 310 310 311 312 313 314 315 316 317 318 321 324 323 324 325 327 327 331 341 341 331 328 323 322 322 321 320 319 318 318 318 318 318 317 317 317 319 318 318 319 320 319 319 320 322 324
308 309 309 310 310 310 312 313 314 316 317 317 317 318 320 322 324 324 326 328 331 334 340 343 333 330 326 324 324 322 321 320 319 320 320 320 320 319 319 320 319 320 322 321 321 323 324 324 326
309 308 307 309 310 311 312 312 313 315 316 316 317 317 319 322 323 322 325 327 331 334 340 344 343 338 333 327 325 324 323 322 321 320 320 323 326 326 327 327 328 325 325 325 325 327 329 330 331
307 305 304 307 308 309 311 313 314 314 314 316 315 316 317 317 321 324 325 327 329 333 333 341 345 343 340 337 335 333 330 326 323 324 332 336 337 337 338 338 337 335 332 331 329 329 331 332 333
305 307 308 308 308 308 310 309 310 311 311 312 312 312 313 313 314 320 323 325 327 327 330 336 345 346 343 342 339 336 333 333 335 336 339 340 340 341 342 341 341 339 337 335 333 331 333 333 334
310 309 308 308 309 310 309 310 310 311 311 311 311 311 312 313 312 313 314 317 322 327 329 335 340 345 345 343 341 339 339 340 340 341 341 341 342 343 344 344 343 340 339 337 335 333 334 334 335
309 310 309 309 310 309 309 311 311 310 310 310 310 311 311 311 312 312 313 314 319 325 329 330 334 339 344 344 343 343 343 342 344 344 343 344 345 342 342 344 343 342 341 341 338 335 335 335 336
309 310 310 311 312 312 311 312 312 310 309 309 310 310 310 309 310 311 312 312 314 318 323 327 330 334 341 344 343 342 343 343 345 344 345 345 339 339 342 345 344 344 343 341 339 337 336 337 337
311 311 311 313 312 311 311 311 310 309 309 309 309 308 308 308 308 309 310 310 312 314 318 323 326 328 331 338 343 343 343 343 342 343 338 337 339 340 342 343 344 345 344 342 341 339 337 336 336
313 311 312 311 312 313 311 313 310 309 308 308 307 306 306 306 307 307 308 309 310 311 313 319 324 327 332 338 344 343 341 342 341 339 335 340 336 336 339 342 345 346 345 344 343 343 341 339 336
311 311 310 311 313 313 312 308 310 309 309 307 306 306 307 312 313 314 314 312 310 310 312 312 319 327 329 340 344 343 342 340 339 339 337 336 337 340 341 344 345 346 346 345 344 343 342 340 338
310 309 309 310 307 311 311 309 311 308 308 307 308 314 314 314 313 312 313 314 314 314 311 312 319 327 330 339 342 342 341 337 336 334 334 335 338 340 344 345 346 347 347 346 345 345 342 341 340
305 306 307 310 311 311 308 309 309 309 309 311 316 316 314 312 311 311 311 312 314 315 314 311 317 324 330 334 339 341 339 336 336 333 332 336 341 345 346 347 347 346 346 345 344 344 343 341 339
307 305 306 311 313 310 310 312 310 308 315 317 316 314 313 312 310 310 311 312 314 316 316 313 313 323 331 333 336 338 337 335 334 331 333 335 336 341 346 347 346 346 346 345 345 344 342 341 338
308 307 306 310 311 311 310 310 310 310 317 316 314 313 311 311 312 311 312 314 316 316 317 317 313 323 330 333 334 335 336 335 332 331 333 336 337 343 346 346 346 346 345 344 345 343 342 340 339
308 308 311 304 308 313 313 313 312 310 310 315 314 312 312 312 312 312 312 314 317 317 317 320 320 320 329 332 333 334 335 333 333 333 335 335 340 346 346 346 347 346 344 345 343 342 341 339 338
307 309 312 308 314 315 316 313 309 313 315 314 313 312 312 313 313 313 314 315 316 317 315 323 319 323 329 330 331 333 333 334 334 334 334 337 343 346 346 347 346 343 344 343 342 340 339 337 335
308 309 309 308 312 312 313 313 310 313 313 313 312 313 313 311 313 314 315 316 317 317 317 325 320 326 327 329 330 332 334 334 336 336 337 341 345 347 347 347 343 343 343 342 340 338 335 334 334

GFSSGP_925_thetae_072.txt.gz
Theta_e
319 316 317 320 320 316 318 318 318 320 320 319 318 320 325 324 340 340 338 335 324 322 326 331 336 332 334 333 332 331 330 330 330 329 329 330 331 331 331 330 331 329 324 319 317 317 316 315 314
320 319 318 315 320 319 317 318 320 319 319 318 317 319 319 321 324 338 335 330 323 320 326 331 334 329 329 330 330 330 328 328 328 327 329 329 329 329 329 330 329 325 319 318 317 317 316 317 317
323 322 317 319 317 319 319 319 319 318 317 318 319 318 319 337 336 338 337 328 323 319 323 329 332 326 325 328 329 329 326 326 326 326 328 328 328 327 327 327 324 321 318 317 316 315 317 320 320
324 322 317 320 319 320 320 320 317 317 318 317 318 319 320 334 338 340 336 329 324 320 321 325 329 328 324 326 327 328 326 324 325 325 327 327 327 325 326 325 323 320 319 317 315 316 317 320 321
322 317 321 322 320 320 319 319 318 318 318 318 319 320 320 329 339 339 331 329 324 320 321 324 326 328 321 325 327 327 325 324 324 325 325 326 325 324 325 324 322 320 319 317 315 316 318 320 322
322 317 321 321 318 320 319 319 319 319 319 320 321 318 319 338 340 337 332 331 326 320 321 327 330 327 321 323 327 326 324 323 323 323 323 324 323 323 325 325 323 320 318 316 315 317 319 321 323
324 320 322 320 320 322 321 321 321 321 322 325 321 320 322 329 339 337 334 333 329 325 323 327 333 330 320 320 322 324 324 324 322 321 321 320 321 323 325 325 324 321 319 317 315 317 320 322 324
325 323 327 324 324 323 323 325 323 322 325 322 320 322 324 334 335 337 334 333 332 329 325 327 328 328 324 323 320 321 324 323 321 320 321 320 320 322 322 323 324 322 319 318 316 317 321 323 325
321 329 329 327 325 325 324 326 324 324 324 324 323 323 325 340 335 335 334 334 334 332 330 330 327 327 322 322 321 320 323 325 324 322 322 323 323 323 322 322 324 322 320 318 316 316 318 323 325
317 321 326 326 325 326 325 325 324 325 323 324 324 324 323 336 339 336 334 334 336 337 335 333 331 327 322 322 321 319 320 322 323 322 322 327 325 324 322 323 325 323 321 319 317 315 316 322 324
314 319 322 323 321 321 321 320 321 321 322 322 322 321 320 324 329 338 336 334 334 335 335 337 335 328 323 321 320 320 320 320 320 322 321 324 324 326 327 324 322 320 319 318 318 317 318 319 322
311 312 310 311 311 311 314 314 314 315 317 318 316 315 321 321 322 326 335 336 337 333 332 334 335 333 323 321 319 320 319 318 318 318 319 322 322 323 325 323 319 319 320 319 319 318 319 320 322
309 309 309 309 309 310 311 312 313 314 314 315 316 315 316 318 321 325 325 330 336 337 333 332 332 333 329 323 320 320 319 318 318 317 319 319 320 321 321 322 319 318 319 320 321 320 321 322 322
308 308 308 308 309 309 311 312 313 315 315 315 316 315 315 315 321 325 325 325 327 330 335 333 329 329 330 327 323 321 320 319 319 319 319 318 319 320 319 321 320 319 320 320 321 321 322 322 323
308 307 305 307 309 309 309 310 312 313 314 315 315 314 314 314 316 319 323 325 325 327 330 336 337 331 325 326 326 324 321 322 322 321 321 320 320 320 320 321 321 322 322 323 324 324 325 327 328
306 303 304 305 307 309 309 310 311 310 311 313 312 312 312 312 311 313 314 315 317 322 329 332 337 340 333 327 327 328 324 324 324 323 322 322 322 322 323 326 328 331 329 331 330 328 328 329 331
305 307 307 307 307 308 309 309 310 310 311 311 312 311 311 311 311 312 313 313 314 315 318 323 333 337 342 338 333 329 327 326 325 326 325 323 323 325 331 335 337 337 336 337 336 332 330 331 331
308 309 308 308 308 308 309 310 309 310 310 310 311 311 311 311 311 311 312 312 312 313 314 321 327 341 342 343 340 337 333 331 332 332 329 325 328 336 338 339 340 340 339 339 338 334 333 332 332
308 309 309 308 308 310 309 310 310 310 309 309 309 310 311 311 311 311 311 311 311 311 311 313 318 330 344 343 341 339 338 338 336 333 332 334 337 339 340 341 342 342 341 341 340 336 333 333 333
308 309 308 309 310 310 309 311 310 310 309 308 309 309 309 309 310 310 309 309 310 310 310 311 312 316 326 340 342 342 341 340 339 339 339 340 341 341 342 343 342 342 342 341 341 337 333 334 334
309 310 309 311 311 310 310 310 309 308 308 308 307 307 307 307 307 308 310 311 311 312 312 310 311 312 316 328 341 343 342 342 342 342 342 341 343 343 345 341 341 342 342 343 342 338 336 336 335
311 309 311 311 310 310 311 313 310 308 308 308 306 305 304 304 311 312 313 313 313 313 314 313 313 312 312 314 336 342 342 342 342 341 341 343 344 345 341 342 342 341 342 343 343 340 339 337 336
308 310 310 309 310 312 311 310 308 308 308 307 306 304 306 311 312 312 312 312 312 312 313 314 315 314 314 313 322 338 340 340 340 340 340 340 341 338 340 339 339 340 343 344 343 341 340 339 337
309 308 305 306 306 309 308 310 308 307 307 307 306 308 312 313 312 310 310 310 310 311 312 313 314 315 314 313 317 332 340 340 339 339 339 339 337 338 335 338 339 342 344 345 344 343 343 342 339
305 304 306 305 307 309 308 309 308 307 308 308 308 312 313 311 310 309 309 309 310 310 311 313 315 317 316 315 317 326 339 341 339 338 339 337 336 334 335 339 341 344 345 346 345 344 344 342 340
307 306 306 309 312 307 306 309 307 307 307 311 315 313 312 311 307 309 310 311 311 311 312 314 316 316 317 313 316 321 333 340 339 337 337 335 333 331 334 338 343 345 346 346 345 344 344 342 340
308 306 304 306 308 308 308 308 307 308 309 314 313 312 311 309 310 311 310 311 312 312 312 314 316 316 316 317 316 322 328 336 338 337 336 338 333 332 335 339 345 346 345 345 344 344 343 342 340
308 306 309 302 307 306 308 310 310 309 309 310 312 310 310 310 310 310 310 311 312 313 314 314 315 315 315 319 318 324 327 333 336 335 336 337 332 334 336 343 346 345 345 345 344 344 342 341 339
306 307 310 305 305 309 313 309 308 309 308 309 310 310 310 310 310 311 310 315 314 314 314 315 316 317 317 321 319 324 329 332 334 334 335 333 331 333 340 344 346 345 345 344 343 343 341 340 339
305 307 307 307 311 311 311 312 309 309 309 311 311 311 310 310 311 311 313 317 315 316 316 316 318 321 319 320 319 326 329 332 333 334 334 331 332 338 340 344 345 345 345 343 343 341 340 339 337

GFSSGP_925_thetae_075.txt.gz
Theta_e
320 317 316 323 323 322 322 321 321 322 322 322 322 323 324 325 331 334 338 338 333 330 344 336 341 340 337 334 333 332 335 341 345 344 337 337 338 338 339 338 333 330 327 323 318 316 316 315 314
321 317 318 322 321 320 320 321 322 322 322 322 322 322 323 325 325 328 335 337 332 322 332 345 341 340 337 334 333 332 331 330 330 329 329 331 331 333 335 332 329 328 322 317 317 316 315 316 317
322 322 322 324 324 319 320 321 322 322 321 321 323 322 323 327 335 330 338 334 330 330 335 332 337 340 338 334 332 330 328 326 324 325 325 327 327 328 328 328 327 323 318 317 318 316 317 318 318
325 324 321 322 322 321 321 322 322 321 321 321 324 325 324 330 335 341 339 334 329 336 341 327 331 337 338 334 332 329 326 325 322 323 324 325 325 325 326 326 325 321 318 318 317 317 318 320 321
321 324 320 323 321 321 321 321 321 322 321 323 326 327 327 329 339 340 338 333 332 335 340 331 329 335 335 333 332 331 328 324 322 323 323 324 324 324 325 324 323 320 318 316 316 316 318 320 321
324 323 324 320 319 320 321 321 321 323 325 326 328 325 328 328 339 338 337 333 332 337 341 340 329 334 335 332 330 331 329 327 324 323 323 323 324 324 324 323 321 320 318 317 316 316 318 320 321
322 325 325 323 322 320 320 322 323 324 327 328 327 327 328 328 338 337 336 335 334 338 341 345 335 331 334 336 330 331 331 330 326 324 324 324 325 325 324 323 322 321 319 319 317 316 318 320 321
327 326 325 324 323 323 324 325 326 326 327 326 326 329 328 328 338 337 336 336 335 337 338 343 345 343 345 345 333 327 329 330 329 326 329 328 328 328 328 326 325 323 321 320 318 317 319 321 322
325 326 326 326 325 324 326 326 325 326 327 326 326 326 324 323 338 337 337 336 336 336 339 342 344 345 346 346 343 330 329 332 331 330 331 330 341 342 341 336 331 326 323 321 321 321 322 325 326
322 322 323 326 325 326 325 325 323 324 325 325 325 324 321 320 331 334 337 335 336 335 338 341 344 345 346 345 345 341 338 337 335 338 343 342 346 344 344 342 331 330 327 323 321 320 321 327 332
318 320 323 325 324 321 322 321 321 324 325 325 323 320 319 321 323 327 333 336 334 336 335 339 343 341 342 342 343 344 343 343 339 332 337 344 343 334 339 342 341 341 337 337 334 334 332 331 333
314 315 314 319 314 314 316 313 316 319 321 319 317 318 319 320 322 325 328 333 336 335 332 336 337 336 338 341 340 339 339 335 329 328 328 336 330 334 338 339 338 340 338 338 336 334 334 334 332
312 312 312 312 312 313 313 313 315 317 318 316 316 318 318 319 320 324 328 328 329 337 335 330 329 330 335 337 338 333 327 322 321 323 326 332 335 334 331 332 332 331 334 334 334 333 333 333 333
311 311 311 311 312 312 312 314 313 315 315 315 316 317 317 318 319 322 326 330 329 328 330 338 328 325 326 328 331 337 327 327 326 328 326 323 325 327 329 327 327 325 327 331 332 332 332 332 332
310 310 310 310 311 311 312 313 313 313 314 315 319 321 317 316 315 317 318 323 321 317 318 326 335 333 328 325 323 328 327 329 325 324 323 321 321 322 321 326 323 323 324 322 326 332 333 332 333
310 308 309 309 310 311 311 312 312 312 313 314 314 314 314 315 315 315 316 317 314 315 320 318 325 333 337 333 329 328 324 325 325 323 322 320 321 322 323 322 323 322 324 326 332 334 334 334 334
310 311 311 312 311 311 312 313 313 313 313 313 314 313 314 314 316 315 315 315 312 312 328 318 315 323 327 339 335 333 330 327 323 326 324 322 322 324 322 323 323 324 329 332 334 335 336 336 336
311 311 311 311 311 312 312 313 312 312 312 313 313 314 313 314 315 315 314 313 310 311 310 320 314 315 327 341 341 337 335 330 327 325 325 325 325 326 324 324 326 329 332 336 336 337 337 337 337
310 311 311 311 311 312 312 312 312 312 312 312 312 314 315 314 315 313 313 312 313 312 312 312 312 313 316 340 343 341 340 338 335 330 326 325 329 331 330 326 332 336 337 339 338 339 338 338 337
310 311 311 311 312 311 311 312 313 313 313 313 312 313 315 314 312 311 313 315 316 316 315 314 313 313 312 313 340 342 343 342 341 339 333 334 335 334 334 335 339 339 340 340 340 339 339 339 337
311 312 311 311 311 311 312 311 312 312 312 312 313 313 312 311 310 313 315 316 316 316 316 315 313 314 313 315 330 341 343 343 344 343 343 339 336 333 334 338 340 341 341 341 341 340 340 340 337
311 311 311 311 311 310 311 310 311 311 312 312 312 312 312 310 313 315 316 315 314 314 314 315 313 312 315 316 322 331 335 340 341 344 344 342 337 335 337 340 341 343 342 342 342 341 341 340 339
310 311 311 311 311 312 311 312 311 312 311 311 312 312 312 312 316 317 315 313 312 312 313 314 314 314 313 315 317 322 333 336 340 342 344 342 339 334 341 342 344 342 342 342 342 341 340 339 341
311 311 310 310 310 311 310 310 310 311 312 312 311 312 312 315 316 315 313 313 313 313 313 314 314 315 314 317 319 321 327 332 335 341 342 342 344 345 343 346 343 343 341 342 342 342 341 340 341
310 311 312 311 310 309 311 310 310 311 311 311 310 311 314 316 315 314 315 314 313 313 314 314 314 315 316 319 320 321 322 329 335 339 340 341 342 344 344 342 341 342 338 340 343 343 342 342 342
311 312 312 313 309 309 309 310 309 310 310 310 311 315 316 315 314 315 315 314 314 316 316 316 315 316 317 318 320 320 320 325 331 336 338 340 340 342 340 338 337 337 338 342 344 344 344 343 343
310 312 309 312 311 312 310 309 309 310 311 312 313 315 314 314 315 315 315 314 314 318 318 317 317 317 318 319 319 319 318 322 328 333 336 338 339 341 338 338 336 335 340 344 345 345 345 344 343
311 310 313 315 314 313 309 309 310 310 310 312 312 313 313 314 314 315 315 315 316 317 316 315 316 318 318 319 320 319 321 321 325 330 336 337 338 339 337 337 336 338 345 346 346 346 346 344 341
311 312 313 313 312 312 311 311 311 311 311 312 312 314 312 313 315 315 316 315 314 313 313 315 314 315 318 320 322 322 323 324 327 331 334 336 338 337 340 337 339 345 347 347 347 346 344 342 340
310 312 312 314 312 313 313 314 311 311 311 314 313 312 312 316 316 315 315 315 314 313 313 314 313 314 318 321 325 327 325 326 329 333 334 337 339 341 343 344 345 347 347 347 346 345 342 341 339

GFSSGP_925_thetae_078.txt.gz
Theta_e
326 320 318 325 331 323 327 326 324 325 326 325 326 326 327 328 331 339 344 342 337 336 348 342 338 337 343 345 346 347 348 348 347 347 345 343 342 340 338 337 335 332 327 326 324 319 317 317 315
325 321 320 326 334 328 326 324 324 324 324 325 326 326 326 328 330 334 332 341 335 339 349 345 338 337 339 346 345 346 346 347 347 346 344 341 337 337 334 334 332 327 324 320 317 317 317 316 316
325 321 320 331 336 337 331 323 324 324 324 325 327 328 327 329 333 337 337 341 336 341 347 347 336 337 336 341 342 342 342 344 345 343 336 334 332 333 333 332 328 325 320 317 317 317 318 318 317
325 323 321 321 329 334 330 327 325 324 323 323 325 329 328 330 333 339 342 341 336 340 345 349 332 335 336 335 336 338 339 341 339 333 329 327 328 330 330 328 326 323 318 317 317 317 319 321 320
325 324 325 322 321 325 326 326 323 324 324 324 327 330 330 330 334 341 342 341 336 338 342 351 333 334 336 336 335 334 335 335 331 328 326 325 327 328 328 326 325 321 318 317 317 318 319 321 322
325 325 327 326 323 321 322 323 327 327 325 326 328 330 331 329 334 338 341 341 337 336 341 350 339 334 335 336 335 334 332 331 329 329 325 325 326 328 328 326 325 321 318 317 317 317 318 321 323
325 326 326 327 326 323 321 322 324 329 328 327 329 330 331 329 332 338 341 338 335 336 341 348 348 341 333 335 336 335 332 330 330 329 327 326 326 326 328 327 325 322 319 318 317 317 318 320 322
326 325 326 326 328 327 324 324 323 326 329 328 328 330 330 328 326 333 341 338 335 337 340 344 346 344 345 344 335 336 335 332 331 329 329 328 328 328 329 328 327 324 322 320 320 318 319 320 321
323 328 326 326 327 327 325 325 325 327 328 328 328 329 328 325 324 328 335 340 336 337 339 342 342 343 342 342 344 337 336 335 333 333 332 332 340 341 342 337 338 328 325 324 324 321 322 323 324
323 324 324 325 326 327 326 326 327 327 328 329 330 328 326 324 325 326 332 339 337 336 337 340 341 341 341 340 343 347 345 344 344 344 346 344 342 343 343 342 337 335 329 327 327 325 325 328 330
320 323 321 323 324 326 327 327 325 326 327 328 330 327 325 324 324 325 330 332 340 335 336 339 344 344 343 340 342 344 342 343 343 345 346 346 343 344 345 342 344 342 338 338 336 335 333 331 331
318 319 321 321 323 324 324 325 324 324 325 324 328 325 323 325 323 324 326 332 332 338 336 338 343 347 347 343 342 342 341 341 342 343 347 347 346 345 343 340 339 342 340 340 337 336 335 334 332
315 316 316 317 318 318 319 322 322 323 323 318 321 322 322 322 322 322 325 329 331 331 338 338 340 344 346 346 341 341 340 339 340 342 345 345 344 342 341 339 338 337 337 336 337 335 334 335 334
315 315 315 316 316 316 316 317 318 319 318 317 323 326 324 322 322 320 323 329 334 329 328 332 340 339 342 336 336 339 341 338 339 338 339 345 342 341 339 340 338 335 334 333 334 335 335 336 335
314 314 315 315 315 315 316 316 317 318 316 316 316 319 323 323 325 321 320 322 324 323 320 327 339 343 344 342 342 335 337 338 337 337 337 340 343 340 340 336 335 333 333 335 334 335 336 336 337
313 313 313 314 313 314 313 316 317 316 316 316 316 315 318 317 321 319 318 319 321 323 328 326 321 333 344 344 340 339 339 337 337 336 335 339 341 339 340 334 334 334 334 334 335 337 338 339 339
314 312 313 314 314 314 315 315 316 315 316 316 316 315 315 316 317 318 317 317 318 319 314 322 327 328 335 345 342 342 341 340 337 336 335 337 339 339 336 334 335 335 334 334 337 339 340 342 342
314 314 313 314 314 314 314 315 315 316 315 316 316 315 315 316 316 317 317 316 317 319 321 314 324 328 326 337 346 343 342 341 340 336 336 335 338 337 337 336 332 331 332 334 339 342 343 343 344
313 314 314 314 314 313 314 314 315 315 315 315 315 315 316 316 316 315 315 316 318 320 323 323 320 327 326 328 333 338 343 343 342 342 338 337 338 338 336 334 330 326 331 330 342 345 345 345 344
312 313 314 314 313 313 314 314 314 314 315 315 315 316 316 316 316 315 314 317 319 320 321 321 323 319 319 321 327 330 335 337 345 343 343 340 339 338 337 332 335 331 330 342 346 346 346 346 346
313 313 313 313 312 313 313 314 314 314 315 315 314 315 315 315 314 314 316 318 318 319 319 319 321 322 321 315 318 322 331 335 339 341 345 345 341 341 340 339 339 343 343 345 347 348 346 346 346
313 312 312 312 313 314 313 314 314 314 314 314 315 315 315 315 314 316 318 317 317 317 317 318 319 321 321 322 321 320 322 333 336 337 341 346 347 344 343 345 346 345 345 345 347 348 347 348 347
313 312 312 313 314 314 313 315 314 314 314 315 315 314 314 314 315 317 317 316 316 317 317 317 319 320 321 323 325 323 326 326 330 334 338 346 349 348 346 346 345 347 348 349 348 348 348 348 347
312 313 313 314 314 315 314 314 312 313 314 315 314 312 313 316 317 318 317 316 316 317 317 318 319 320 321 321 322 325 327 329 329 333 339 342 346 349 348 346 347 349 350 350 349 349 348 348 347
313 314 315 314 315 315 314 313 313 314 313 313 312 312 313 314 317 317 317 317 317 317 318 320 320 321 321 321 322 323 325 328 332 334 330 337 342 344 348 348 349 351 352 351 349 349 349 348 346
314 314 315 315 314 313 313 313 314 313 312 312 313 314 315 316 316 316 317 317 317 317 319 321 320 320 321 322 322 322 324 325 325 328 330 332 338 342 343 352 352 352 352 351 350 349 349 346 347
314 315 314 314 314 315 315 314 313 313 312 312 313 315 314 315 315 316 316 317 318 318 319 318 318 319 319 321 322 323 324 325 326 326 331 333 336 340 343 350 352 352 350 349 349 348 348 348 349
313 313 314 315 317 317 314 313 313 313 313 313 313 314 314 316 314 315 317 317 318 318 317 316 316 316 318 318 320 322 323 324 325 326 330 332 336 340 340 349 351 351 350 349 349 349 350 350 349
314 313 313 315 317 318 315 313 315 314 314 314 314 314 315 314 314 316 317 316 316 316 316 316 315 316 318 318 319 322 324 325 326 327 328 331 336 339 339 346 349 350 348 349 350 350 350 350 348
313 313 314 318 316 316 316 315 315 314 313 314 315 315 315 315 315 317 316 316 316 317 314 314 314 315 317 317 319 322 324 326 329 329 331 332 335 337 336 344 347 346 347 350 351 351 349 348 347

GFSSGP_925_thetae_081.txt.gz
Theta_e
326 326 320 325 336 333 334 334 331 329 329 329 328 328 329 330 331 336 339 341 338 346 345 341 336 335 338 345 346 347 346 345 344 343 342 342 339 337 335 335 335 334 329 327 323 320 317 316 315
322 325 321 331 337 343 337 333 328 329 328 327 328 328 328 328 332 336 338 341 337 346 347 345 336 335 336 344 346 347 346 347 345 345 343 342 339 336 335 334 334 329 325 324 319 317 316 315 315
324 324 324 330 341 346 343 331 328 328 326 326 327 329 329 330 333 336 340 343 339 344 348 345 336 335 334 342 348 348 347 347 346 345 343 341 338 334 333 334 330 325 322 319 318 317 316 317 317
325 326 325 325 333 338 340 339 328 327 327 326 326 328 329 331 332 337 341 343 343 341 348 346 337 333 332 338 346 348 348 348 347 346 343 339 337 334 334 333 329 324 320 319 319 317 318 318 318
324 326 328 328 326 327 333 336 333 328 326 326 326 328 330 332 331 337 343 343 343 339 346 348 337 335 332 332 343 347 348 348 347 347 345 340 336 333 333 331 328 325 320 319 320 319 319 320 320
328 327 328 328 328 326 325 327 332 330 329 327 327 329 331 332 328 335 343 343 343 338 344 353 338 337 334 331 336 343 346 347 348 348 345 341 336 332 330 329 328 326 322 322 320 320 321 323 322
326 328 328 327 327 327 325 324 325 330 332 333 329 329 331 331 329 329 337 343 342 339 343 355 347 344 336 333 332 336 342 346 347 346 341 339 336 333 329 328 327 326 323 323 319 319 320 322 324
325 326 327 327 327 327 327 325 324 325 328 331 332 329 331 331 327 328 333 343 339 339 342 351 346 346 347 345 333 333 336 338 340 340 337 336 335 332 330 328 328 326 323 322 319 318 318 320 323
323 325 326 326 326 327 327 327 325 325 325 327 331 331 329 329 327 328 330 338 341 338 341 346 345 345 344 343 345 335 335 335 335 337 337 335 341 341 342 337 339 331 325 323 322 321 319 320 323
322 325 324 325 326 325 326 327 326 327 327 328 329 330 329 328 327 327 328 334 343 339 340 342 344 343 343 341 344 345 344 343 343 342 345 344 341 341 343 341 339 336 336 328 326 326 325 325 330
321 323 324 324 324 324 325 327 328 328 328 328 329 330 330 328 327 327 326 331 336 340 338 340 343 343 343 340 341 346 341 342 343 344 344 346 341 341 343 343 345 345 343 340 337 337 336 333 332
319 320 321 322 322 323 324 327 327 328 328 327 326 327 330 330 327 326 325 328 333 340 338 338 343 345 344 342 340 342 341 341 342 344 346 346 347 344 344 344 342 346 344 344 340 340 339 338 335
318 319 319 320 319 321 323 325 325 326 326 325 324 323 328 330 326 324 324 325 331 336 341 339 340 346 350 350 346 343 343 341 342 342 345 347 347 345 346 345 341 339 340 340 342 340 338 338 338
318 318 318 318 318 319 319 320 320 321 324 324 324 322 324 328 326 323 324 323 328 335 332 335 341 342 348 349 348 345 344 341 342 342 343 347 347 346 344 344 342 340 337 336 336 337 338 338 338
316 316 317 317 318 318 318 318 318 319 321 322 321 320 321 326 326 327 326 324 325 331 330 333 341 343 346 346 346 346 344 342 340 340 341 344 347 346 345 342 341 339 336 336 336 337 338 340 340
316 315 315 316 317 318 317 318 318 320 320 321 320 320 319 319 321 322 324 323 324 326 332 327 329 339 348 348 345 346 343 340 339 337 339 340 342 344 344 341 338 337 336 336 337 338 339 340 342
315 315 316 316 316 316 317 317 318 319 319 320 320 320 320 319 320 321 321 320 321 325 324 320 330 330 338 346 347 347 343 343 340 338 338 337 341 343 342 341 337 337 336 336 336 336 341 342 344
316 317 316 316 317 316 316 317 317 318 319 319 319 320 320 319 318 318 320 319 320 325 325 325 321 328 328 333 345 346 345 345 345 343 341 338 337 341 342 340 337 338 337 337 336 339 343 344 344
316 316 317 317 317 316 316 317 317 317 317 318 318 319 319 319 319 317 318 318 320 324 327 327 323 323 327 329 331 334 343 345 344 344 343 341 338 340 341 341 337 338 336 336 339 343 347 347 346
314 314 315 316 316 316 316 316 317 317 317 317 317 318 318 318 319 319 318 318 322 323 323 324 326 327 324 325 324 329 332 334 336 344 344 345 343 341 340 341 339 337 336 340 342 345 347 348 347
314 315 315 316 316 316 316 316 317 317 317 317 317 317 317 318 318 319 318 319 320 321 321 321 323 325 323 324 323 323 325 331 333 337 341 346 348 345 342 342 341 339 341 340 344 349 350 347 345
315 315 315 315 315 315 316 317 317 318 317 317 317 317 317 318 318 318 318 319 320 319 319 320 322 323 324 326 324 323 328 329 332 336 336 337 343 349 348 344 344 343 345 341 348 351 351 351 344
314 314 315 315 316 316 315 316 316 317 317 317 317 317 318 318 318 318 319 318 318 318 319 320 321 321 323 325 326 327 326 326 328 329 332 331 329 338 351 348 347 346 348 348 348 352 352 350 347
314 314 314 315 316 317 316 317 317 316 317 317 317 316 315 316 317 318 319 319 318 318 319 320 321 323 323 323 324 326 327 330 331 332 333 330 329 331 337 344 350 349 351 349 352 354 354 350 350
314 316 317 317 317 317 317 316 316 316 315 315 317 316 314 315 316 318 319 319 318 318 319 319 321 322 323 324 324 325 326 327 331 331 331 333 339 333 331 334 347 350 351 352 354 354 353 353 351
315 317 319 321 319 317 316 317 317 316 316 315 314 314 315 316 316 318 318 318 318 318 318 319 321 322 322 322 323 325 326 326 326 328 329 331 332 337 342 335 347 351 351 354 355 354 354 352 351
315 316 316 317 317 316 317 316 316 316 315 314 314 315 317 317 318 317 317 316 317 318 319 320 320 320 319 320 321 322 325 326 327 327 328 332 331 332 336 342 350 354 354 355 356 354 354 352 352
315 315 316 320 320 318 315 315 316 316 316 315 314 315 316 316 316 317 316 315 317 318 318 319 319 319 319 318 319 321 322 324 326 328 329 329 330 334 337 341 345 354 356 356 355 354 353 352 351
315 316 315 315 317 321 321 318 317 316 316 316 316 316 316 316 317 316 316 315 316 316 317 317 318 317 317 317 318 320 321 322 324 327 329 330 331 332 331 341 346 352 355 356 355 353 351 351 352
315 315 316 322 318 315 315 315 318 317 316 315 316 317 317 317 317 317 316 316 316 316 316 317 317 316 316 316 317 318 319 321 324 327 329 331 332 333 336 340 338 350 353 354 354 352 350 352 353

GFSSGP_925_thetae_084.txt.gz
Theta_e
317 324 325 325 336 339 341 336 333 331 330 330 329 329 329 329 335 346 342 342 350 346 335 337 337 337 340 346 347 344 342 341 340 339 341 338 335 336 337 334 334 331 327 325 323 320 318 316 315
317 324 326 326 338 344 345 337 334 331 329 328 328 328 328 330 335 337 340 342 348 347 335 339 338 336 335 341 348 347 344 343 342 341 341 339 336 335 333 333 332 327 324 322 320 317 317 316 315
322 326 325 326 335 341 346 343 341 332 327 327 327 329 329 332 334 336 338 343 346 349 339 344 336 335 331 337 345 348 346 344 343 343 342 340 337 335 333 333 330 326 323 320 318 317 317 317 317
324 326 326 326 326 335 340 340 338 337 327 327 327 328 330 332 332 334 340 343 343 350 346 345 336 335 330 332 341 348 347 346 345 344 343 341 339 336 334 332 329 325 323 321 318 318 318 319 318
324 325 328 328 326 325 334 335 337 337 332 327 327 327 331 332 329 331 338 343 343 345 348 346 336 337 334 330 337 346 348 348 347 346 344 342 340 338 334 332 328 325 322 320 321 319 318 319 320
323 326 328 326 327 327 326 329 335 335 335 331 328 327 330 331 330 328 331 344 344 343 348 345 338 336 338 333 335 345 348 349 349 347 346 342 340 339 335 332 327 325 321 320 323 320 319 320 321
322 325 328 327 326 326 327 326 328 328 331 333 330 333 331 331 329 328 329 343 343 343 350 347 341 336 339 338 334 341 347 349 349 349 348 343 340 338 334 331 327 326 323 320 323 325 322 320 320
322 323 324 326 328 327 326 326 325 325 327 329 331 333 334 331 328 328 329 339 341 341 354 353 345 337 342 341 340 337 341 344 347 349 348 345 341 338 334 332 328 326 324 321 320 323 322 322 320
320 323 325 324 325 325 326 326 326 326 325 325 327 331 332 331 328 327 328 332 343 340 353 354 347 345 347 347 343 337 335 337 341 344 342 341 340 338 334 331 333 332 326 324 322 322 323 325 325
320 322 323 323 324 325 326 325 327 327 325 326 326 327 330 331 329 328 327 329 336 342 343 351 345 345 346 344 346 340 340 336 335 335 335 335 336 342 343 341 339 334 333 333 326 326 326 326 326
319 321 321 323 324 324 324 324 325 327 327 327 327 328 329 331 329 328 326 326 333 337 341 347 344 344 344 343 344 343 346 342 341 339 342 342 339 340 342 343 343 341 340 338 337 333 331 328 333
318 319 321 322 322 322 323 324 324 326 328 328 328 329 327 328 330 327 325 325 329 333 341 343 344 345 344 342 345 347 343 344 345 343 343 346 345 344 342 344 344 346 347 345 341 340 341 339 338
318 319 319 319 320 320 320 321 323 324 326 328 327 327 325 325 326 327 325 324 326 333 338 339 344 348 349 348 350 349 343 343 344 345 343 345 350 345 346 344 346 347 346 344 344 343 341 341 340
318 318 319 319 319 319 319 319 320 323 325 325 327 327 325 324 324 329 326 323 325 334 332 335 341 341 344 346 347 347 347 343 343 343 346 345 346 349 345 347 345 342 341 339 342 341 339 339 338
317 317 317 318 318 318 319 319 319 319 320 320 321 325 325 323 322 327 326 326 325 329 331 336 342 340 341 344 348 348 346 344 345 343 345 347 346 348 348 347 344 342 341 338 336 336 338 338 339
315 316 316 317 317 317 318 318 318 319 320 320 320 322 323 322 322 321 324 327 326 326 332 329 332 344 341 345 343 346 345 345 343 341 342 345 349 345 346 346 343 342 340 338 336 336 337 337 339
316 315 315 315 317 317 317 317 318 318 319 320 321 322 322 322 322 321 320 323 325 326 330 333 332 344 344 349 348 344 348 345 341 341 340 341 343 347 345 347 343 341 338 337 336 337 338 339 341
315 316 317 317 317 317 316 316 317 318 318 320 320 320 321 322 322 321 320 322 324 326 327 324 331 335 346 341 343 346 345 345 345 345 340 340 341 343 346 343 346 341 340 337 336 338 339 339 344
318 318 317 317 318 318 317 317 317 318 318 318 320 322 322 322 323 320 321 322 320 324 328 330 329 331 333 332 332 336 339 346 344 345 344 342 342 339 343 346 341 342 343 338 337 338 337 345 346
317 317 316 315 316 316 316 317 317 317 318 319 319 320 321 322 322 323 321 320 323 325 325 327 329 330 329 329 328 329 330 328 333 340 345 344 343 341 340 342 343 342 340 339 340 339 341 345 345
316 316 315 315 316 316 317 318 318 317 318 319 319 319 320 321 321 323 323 322 323 324 324 323 322 325 327 327 324 324 326 327 327 327 329 336 346 346 343 341 342 341 341 338 340 343 344 347 351
314 315 315 316 316 316 316 318 318 318 319 319 319 319 320 319 320 322 323 324 323 322 321 321 323 321 321 327 327 325 326 327 326 328 329 331 337 345 347 343 341 342 341 341 339 341 344 350 351
315 315 315 315 316 316 316 317 317 318 318 318 320 320 318 318 319 320 320 319 320 320 319 321 322 321 320 321 325 328 328 329 327 327 325 328 336 337 349 348 346 345 344 342 347 345 348 352 352
315 315 315 315 315 317 316 317 318 318 319 319 319 318 318 318 319 320 319 320 320 319 319 319 321 323 323 322 323 324 327 329 328 326 331 332 331 333 331 335 350 347 346 347 346 344 346 354 350
315 315 317 318 319 319 318 319 321 321 317 318 319 318 317 315 317 318 320 322 321 320 320 320 320 322 325 325 324 324 324 326 329 329 330 329 326 331 340 335 350 349 349 348 351 350 347 350 351
317 317 318 320 323 321 319 321 319 319 319 317 317 318 316 315 316 318 319 322 320 319 320 320 320 322 323 324 324 324 324 325 326 327 327 326 326 325 329 336 335 334 347 346 347 349 351 348 351
318 319 317 318 320 323 321 317 317 319 320 318 316 316 316 316 318 317 318 318 318 318 319 320 320 320 322 321 321 323 323 323 325 326 327 329 333 333 332 326 334 341 340 341 335 332 336 350 349
317 317 317 318 323 323 317 316 317 319 319 317 315 315 316 317 317 317 319 319 317 316 316 320 320 322 320 322 321 320 320 324 324 325 327 326 327 328 328 331 336 335 347 349 349 343 345 351 350
317 319 318 317 319 322 321 317 320 319 319 318 318 316 317 317 316 316 318 318 317 316 317 319 321 321 321 319 319 320 319 319 322 324 325 327 328 329 329 325 326 331 343 350 353 353 353 353 353
317 318 319 323 322 322 320 321 319 318 319 319 319 316 316 318 318 317 318 318 317 317 317 317 319 319 319 318 317 317 319 320 323 322 324 326 329 330 331 331 331 329 336 346 353 353 354 354 355

GFSSGP_925_thetae_087.txt.gz
Theta_e
319 318 322 325 329 331 336 334 332 333 327 324 325 324 332 335 344 347 345 347 332 330 334 340 343 344 345 344 340 339 338 338 336 337 332 336 337 337 334 332 330 328 325 323 321 319 317 315 315
318 320 325 320 332 337 338 340 339 338 329 325 326 326 332 335 336 337 340 348 338 326 331 336 342 343 343 343 343 341 339 339 338 339 334 332 333 332 330 329 328 326 324 321 318 317 317 316 316
319 323 323 320 324 336 339 340 337 337 334 324 325 327 330 334 335 336 342 346 345 329 328 331 339 341 341 341 344 344 340 340 339 340 338 334 332 330 329 329 326 323 321 318 317 318 317 317 317
319 321 322 322 323 323 333 336 336 337 334 329 325 327 331 331 332 336 340 345 347 333 329 330 335 340 340 340 343 345 343 342 341 341 340 337 335 332 330 330 326 322 319 317 317 317 318 318 319
318 319 322 325 324 324 322 333 335 336 333 332 330 327 331 328 328 329 341 340 347 343 330 329 332 338 341 337 341 345 345 344 343 343 342 340 335 333 332 330 327 323 319 318 318 318 318 319 319
316 319 323 324 323 324 323 328 334 332 331 332 331 330 329 328 327 328 329 341 342 347 337 329 329 336 339 340 340 345 346 346 346 345 343 341 337 335 333 332 328 325 320 318 318 318 318 318 319
316 317 321 324 325 324 324 323 327 331 331 327 328 331 330 327 327 327 328 342 344 347 343 332 328 334 338 342 340 344 346 346 347 346 346 342 340 337 335 333 329 326 324 320 319 318 319 318 319
315 316 319 320 322 324 324 323 323 327 328 325 325 330 329 327 327 328 327 339 346 347 345 337 328 331 338 342 343 343 345 345 345 346 346 344 340 338 335 333 330 327 326 324 322 321 320 321 320
315 315 318 320 321 321 321 321 322 322 323 324 325 325 328 328 327 328 327 326 348 351 347 344 334 329 335 341 346 344 345 345 345 344 344 343 339 335 333 331 329 327 326 325 324 323 323 323 321
313 313 315 318 320 320 319 320 321 323 322 323 323 324 325 326 327 326 325 324 336 354 352 347 339 331 332 337 340 345 343 343 341 341 340 338 334 332 330 333 330 330 331 331 329 325 323 323 322
312 314 315 317 318 319 320 320 320 321 323 323 323 324 326 326 327 325 325 324 328 336 347 349 343 335 335 343 343 339 338 337 338 337 335 331 329 329 336 342 343 342 341 340 339 335 328 329 330
312 314 316 316 318 318 319 317 318 319 323 325 324 325 326 325 323 325 324 324 331 336 348 346 345 342 338 345 344 342 338 333 334 335 333 331 330 329 338 342 343 343 343 344 343 340 337 338 339
313 313 315 315 314 315 316 317 317 317 319 326 325 325 325 323 322 325 324 324 333 334 342 348 345 344 344 344 347 345 343 340 333 334 337 337 337 336 340 341 344 344 345 346 345 342 341 340 341
313 313 314 314 314 315 316 316 315 317 317 319 325 324 322 321 321 323 327 323 329 333 335 340 348 347 346 348 349 348 349 344 342 341 338 338 340 345 341 345 344 347 346 346 346 343 342 341 341
312 312 313 313 314 314 316 316 316 316 317 317 317 318 322 321 322 320 326 324 327 326 331 337 342 340 339 343 348 347 345 348 345 344 343 342 341 343 348 344 346 344 342 341 340 343 343 344 342
311 311 311 312 315 315 314 315 316 316 316 316 317 317 317 320 320 321 323 323 325 328 326 326 337 335 335 340 342 347 347 345 344 344 346 346 344 344 344 348 348 345 341 340 339 337 336 336 337
311 310 311 312 313 314 313 314 316 316 316 316 316 316 317 316 318 320 320 319 320 330 328 329 333 335 338 335 336 336 340 343 343 343 341 344 348 346 345 344 347 345 344 342 340 339 337 337 337
311 312 312 313 315 314 313 314 314 315 315 315 315 317 319 319 318 320 320 321 324 330 332 331 334 340 335 331 331 337 340 335 337 340 340 339 343 350 346 344 345 345 343 342 340 338 337 338 337
314 315 316 316 315 313 313 313 314 315 315 314 314 315 316 317 317 320 323 325 326 325 326 324 330 344 337 335 333 330 331 344 344 342 343 341 338 343 346 345 344 344 345 343 340 339 338 339 337
314 314 314 315 314 314 312 313 313 314 315 315 314 314 314 316 317 320 322 322 325 327 328 330 330 331 341 341 340 337 332 329 343 342 346 345 344 341 340 340 341 342 341 341 342 340 339 339 338
313 313 314 315 314 314 313 314 314 315 315 314 315 314 315 314 317 318 320 322 324 324 323 325 328 329 327 328 332 332 334 331 331 342 338 343 345 343 342 342 339 339 342 341 340 339 339 339 340
313 313 314 315 314 313 314 314 314 314 315 315 314 315 315 315 316 317 319 323 325 324 322 322 322 321 322 326 327 325 325 326 326 326 326 325 326 334 344 341 341 340 341 341 341 339 338 342 344
313 314 313 314 313 311 312 312 313 313 315 315 315 315 314 314 313 318 320 323 323 322 320 319 319 321 320 318 325 327 327 327 329 328 326 325 329 336 343 343 345 344 343 341 341 341 341 344 342
315 314 312 313 311 313 312 313 314 314 316 318 316 316 316 314 316 317 318 321 321 320 319 319 320 320 320 322 321 322 324 327 327 325 327 330 328 326 327 335 344 343 346 345 344 343 345 345 348
314 312 313 313 313 315 313 315 314 317 318 317 317 316 315 313 314 314 315 317 318 319 319 319 320 320 320 322 323 323 323 324 325 327 325 321 323 324 324 331 332 332 333 344 346 345 344 345 346
316 315 316 319 317 317 316 319 317 317 317 317 317 316 314 311 311 313 317 317 318 319 319 320 320 319 320 322 324 324 325 323 323 325 327 327 324 318 321 325 331 333 335 340 346 348 348 346 345
316 316 315 318 319 320 316 317 317 317 317 317 316 316 313 312 313 315 314 316 318 319 319 320 319 320 320 325 325 322 320 324 322 321 322 324 327 331 333 332 332 329 331 336 344 346 349 350 349
314 315 316 318 325 325 319 318 316 318 318 317 317 315 314 314 314 314 313 314 316 316 318 319 319 319 319 321 321 320 320 319 319 323 324 323 324 326 325 325 328 329 331 334 337 344 347 347 348
315 314 316 321 319 323 321 315 317 319 317 316 316 316 314 314 312 312 311 314 316 316 315 315 320 319 319 320 320 320 321 319 318 318 318 321 322 324 326 327 327 326 325 323 329 343 343 338 340
314 317 318 324 325 322 324 322 317 317 317 316 316 317 315 315 314 313 311 312 315 316 316 315 318 321 321 320 320 321 319 319 320 320 318 318 323 324 324 328 329 330 330 330 327 329 345 347 350

GFSSGP_925_thetae_093.txt.gz
Theta_e
319 319 323 321 328 328 333 333 332 336 335 330 327 334 338 338 342 342 344 346 342 338 341 346 345 337 336 336 335 332 331 330 334 334 335 336 336 335 333 329 326 321 320 320 319 316 315 315 314
318 319 322 316 328 335 336 335 336 335 334 330 325 329 333 340 338 345 346 341 340 335 339 345 345 338 336 336 335 333 332 330 333 334 335 335 334 331 327 325 322 320 319 317 317 316 316 316 316
317 321 319 316 324 333 335 336 326 324 329 331 327 328 332 335 335 344 343 342 337 334 337 344 345 340 337 337 335 333 332 330 333 334 334 333 331 327 325 323 321 319 318 317 317 317 317 317 317
315 317 316 320 322 321 330 322 323 323 329 327 327 329 326 326 329 340 343 345 337 336 340 343 346 341 339 337 336 334 333 329 331 333 333 332 329 327 325 322 321 319 318 317 318 318 318 318 319
316 314 319 322 322 321 322 322 321 324 329 329 327 328 327 325 331 343 342 336 332 335 341 344 346 343 339 338 337 336 334 332 327 328 329 329 328 327 326 323 321 320 318 318 318 318 318 319 319
313 315 319 322 321 321 321 321 321 323 328 329 327 327 326 325 327 342 342 333 334 335 340 343 346 344 340 339 338 337 336 334 331 328 329 329 329 328 327 325 322 321 319 318 318 318 318 318 318
313 313 319 321 322 321 322 319 321 321 321 324 326 327 325 324 331 338 344 340 336 339 345 347 347 345 342 341 339 339 338 337 333 330 327 329 328 328 328 327 325 322 320 319 318 318 318 317 317
311 311 316 317 318 319 319 318 318 318 320 321 326 328 325 322 337 339 344 345 339 339 342 347 350 346 344 343 342 340 340 339 336 332 329 327 327 327 327 327 326 324 322 321 320 319 318 318 318
310 311 313 316 317 317 316 317 318 318 320 320 324 326 326 324 339 343 344 345 342 343 342 344 348 351 346 344 345 343 341 341 340 338 333 331 327 327 326 326 325 323 322 322 322 322 322 321 321
309 309 311 312 314 314 314 316 315 317 317 318 319 321 325 324 331 343 346 346 346 346 343 343 345 348 347 347 347 345 344 344 343 343 341 335 331 328 326 326 326 324 323 324 325 327 328 327 325
309 310 310 312 312 312 313 315 315 317 317 316 317 319 322 323 321 330 345 347 348 347 344 341 342 345 347 348 352 350 347 346 346 345 344 341 337 333 330 328 327 326 326 331 334 337 337 336 334
310 309 310 311 312 312 312 313 315 315 315 315 317 319 323 323 319 320 327 347 348 348 346 341 339 338 339 342 346 350 351 346 345 345 345 344 343 338 333 330 326 332 337 339 340 340 340 340 338
309 309 310 310 309 309 311 311 312 313 313 313 318 321 322 320 320 321 331 341 348 348 346 343 338 339 339 341 341 343 344 345 344 344 344 342 342 341 334 330 327 333 338 341 342 342 342 343 342
310 309 309 309 310 310 311 311 312 313 313 314 314 315 316 320 319 320 325 337 341 346 347 346 343 337 337 336 336 336 337 340 342 341 338 338 337 336 333 328 327 330 335 340 342 343 343 344 345
310 310 308 309 311 311 311 311 312 312 313 313 313 313 314 316 319 319 325 334 339 339 344 348 347 344 338 336 335 335 334 338 340 335 333 333 335 332 331 328 326 329 335 339 344 345 345 345 342
308 307 308 308 310 310 311 310 312 311 311 312 312 312 314 314 318 320 322 328 335 340 344 346 348 344 341 338 337 339 340 333 336 340 337 334 331 334 331 333 332 332 338 344 345 345 344 342 340
305 306 308 309 309 310 310 310 311 310 310 310 310 310 312 311 311 314 319 322 328 339 341 346 346 344 341 338 339 342 345 346 344 338 343 342 340 340 338 336 336 339 343 341 345 345 343 341 340
307 309 309 310 311 311 310 309 309 310 310 310 309 309 310 311 312 314 316 317 321 329 344 344 344 344 344 346 346 348 348 347 343 336 336 336 345 346 345 343 342 342 347 348 347 345 344 342 340
310 309 310 310 311 312 310 310 309 309 309 309 309 309 309 310 311 315 317 317 320 322 332 344 345 345 346 349 351 349 347 345 345 345 344 343 341 338 339 340 343 345 344 345 346 346 344 342 341
310 311 311 311 310 310 310 310 309 310 311 311 311 311 310 309 309 311 316 318 320 323 327 333 343 344 342 342 343 343 344 345 345 343 342 340 334 329 332 334 337 338 341 345 346 345 344 342 341
311 312 312 312 311 311 311 311 310 310 310 310 310 310 309 309 309 308 311 318 321 323 326 328 336 340 340 340 341 337 334 334 339 340 343 341 339 337 332 331 330 332 340 339 342 344 343 342 341
310 310 311 312 311 311 310 312 310 310 309 310 309 308 308 308 308 308 310 315 320 323 325 327 329 335 340 342 342 339 334 333 332 332 332 337 343 342 339 330 328 334 341 342 342 342 342 342 340
311 311 311 312 310 309 310 308 309 309 310 310 309 308 308 308 308 309 309 312 317 321 324 328 328 330 334 337 336 333 331 330 330 330 330 329 326 332 335 338 338 336 338 332 333 332 341 341 341
312 312 310 307 307 311 310 309 311 309 310 309 310 310 311 311 310 311 313 311 316 321 325 326 325 324 324 323 322 324 325 327 326 326 325 326 326 325 326 328 328 331 328 327 331 336 339 337 340
312 309 311 312 312 316 312 310 311 310 310 310 310 310 311 310 311 316 313 315 319 319 323 322 320 318 317 315 315 314 315 317 320 321 322 323 322 321 323 326 329 329 331 333 330 331 331 333 337
311 310 312 317 316 316 314 317 314 311 310 310 311 311 311 310 311 316 318 317 318 317 316 318 318 317 317 317 316 317 317 316 315 315 317 318 320 320 320 321 323 323 323 325 333 333 333 332 333
313 313 311 314 317 317 316 316 315 314 313 314 314 313 310 310 310 313 313 315 317 317 318 319 318 318 318 317 317 317 318 318 319 320 320 320 319 318 318 320 321 323 328 329 328 327 329 330 334
314 314 315 314 324 323 320 320 318 315 315 315 314 313 312 311 310 310 311 314 316 317 315 315 317 317 317 317 318 318 319 320 321 322 321 320 319 321 322 322 322 323 324 325 326 326 328 329 330
315 317 319 319 320 326 325 319 311 315 314 315 313 313 314 312 311 310 311 312 313 314 316 316 316 317 317 318 318 318 319 321 322 322 321 320 318 319 320 321 320 320 321 323 325 328 329 329 329
315 316 318 323 323 322 322 317 313 312 315 313 313 314 314 314 312 311 310 312 314 314 314 313 315 316 317 316 318 318 319 319 322 322 321 320 318 317 317 317 319 320 322 319 323 330 330 330 330

GFSSGP_925_thetae_096.txt.gz
Theta_e
319 318 322 320 327 327 332 331 330 334 334 332 329 333 338 337 341 340 344 343 338 338 346 343 337 335 335 334 333 338 344 346 346 346 345 343 340 335 335 333 330 324 320 319 318 316 315 315 314
318 319 321 316 328 335 335 333 334 333 328 330 326 328 334 339 338 343 345 344 339 336 345 344 337 335 335 334 332 332 338 342 343 343 341 337 335 333 332 327 323 319 319 318 316 316 315 315 313
317 321 318 316 324 333 335 331 322 322 328 330 327 327 330 333 334 343 343 345 341 337 344 345 338 336 335 334 332 330 331 335 335 334 334 334 333 331 326 322 320 319 318 317 317 316 317 317 315
316 316 314 320 321 321 330 322 321 322 329 325 326 328 325 325 327 336 342 340 340 338 343 345 340 336 336 334 332 331 329 333 333 334 334 332 330 327 323 321 320 319 318 318 318 317 318 318 318
315 313 319 322 322 320 320 321 319 322 326 328 326 327 325 324 330 340 344 342 338 338 341 346 342 337 336 335 333 331 330 333 334 334 333 330 326 324 322 321 320 319 318 318 318 318 319 319 319
312 313 318 321 321 321 320 320 319 320 321 327 327 326 324 326 327 342 343 343 339 338 341 345 345 338 337 335 334 332 331 334 333 332 329 326 325 324 322 321 320 319 318 318 318 318 318 319 319
313 313 318 319 321 321 321 319 320 317 317 320 324 327 324 323 327 341 341 337 337 335 340 345 347 341 338 336 335 334 333 330 331 329 325 323 323 324 323 321 320 320 318 318 318 318 317 318 317
310 311 315 316 318 319 319 317 317 316 317 318 322 326 325 321 329 342 341 338 337 337 341 346 351 345 340 338 337 336 335 333 328 326 324 323 322 323 323 323 322 321 320 320 319 319 319 319 319
309 311 313 315 316 316 314 315 314 316 316 316 319 323 324 323 336 341 343 342 342 343 344 347 351 350 343 340 339 338 337 336 335 331 329 327 326 325 324 324 323 323 323 323 323 323 323 322 322
309 309 312 312 314 315 314 314 314 315 315 315 316 316 322 331 342 342 343 343 344 345 346 345 348 350 347 343 342 339 339 339 339 336 334 332 331 329 327 326 326 325 325 325 325 325 328 330 330
307 310 310 311 311 311 312 313 313 315 314 314 315 315 317 322 324 340 343 344 344 344 344 345 346 349 348 345 344 343 341 341 341 340 338 335 334 334 333 331 329 327 327 327 327 330 336 338 337
310 309 309 310 311 310 311 312 312 313 314 313 313 314 317 319 318 328 341 344 344 344 345 346 346 347 348 347 346 347 345 343 343 342 342 339 337 334 333 334 332 330 328 330 334 337 340 341 341
308 308 309 309 307 308 308 309 310 311 311 311 311 314 320 319 319 320 331 342 345 346 345 342 341 342 340 343 344 347 345 346 343 342 342 342 340 338 335 333 331 331 329 336 340 341 341 342 342
308 309 308 307 308 308 310 310 310 312 312 312 312 311 312 319 319 320 321 337 345 346 347 345 342 341 340 338 340 340 342 345 347 345 344 344 344 341 339 337 331 329 329 334 338 341 342 343 343
308 308 307 308 310 310 309 310 311 312 313 312 311 311 311 312 318 319 323 331 340 344 346 346 344 342 339 338 342 341 342 344 343 341 346 346 344 343 342 340 334 330 327 330 336 340 343 344 344
307 304 307 306 309 309 310 310 310 309 310 310 310 310 310 310 313 318 321 325 335 339 343 343 344 342 339 337 337 339 340 340 337 328 327 338 339 337 339 338 334 331 330 330 337 343 345 344 343
303 304 306 307 307 309 310 309 310 310 309 309 309 308 308 309 309 312 317 321 328 335 339 342 344 344 344 340 339 338 338 339 339 337 331 332 337 335 335 335 335 332 336 340 343 342 344 344 342
306 308 308 308 310 309 309 307 307 308 309 308 307 307 307 308 309 311 314 315 315 322 335 341 340 344 346 343 341 342 341 338 336 334 333 336 339 340 339 339 339 339 341 342 345 347 345 343 342
309 309 309 309 310 310 309 309 309 308 308 307 308 308 309 308 309 311 312 315 316 316 322 337 342 344 345 342 342 344 344 342 341 338 334 340 339 339 341 345 344 344 343 344 344 344 345 344 343
309 309 309 309 309 309 309 309 308 307 308 308 309 309 309 308 308 308 311 313 316 318 319 323 340 343 344 343 343 344 344 345 347 346 342 338 333 339 339 341 339 340 339 339 337 338 339 342 343
309 310 310 311 311 309 309 309 309 310 309 309 308 307 308 308 308 308 307 310 313 317 319 321 328 342 343 344 345 345 344 344 345 344 344 343 342 341 340 330 326 331 337 334 333 333 332 341 341
309 309 311 311 310 310 309 312 309 309 308 308 308 307 306 307 306 306 306 307 311 314 317 320 324 334 343 343 345 345 341 339 342 344 343 342 341 340 339 335 334 334 332 333 333 332 334 335 340
310 310 310 310 310 309 310 308 308 308 309 308 308 307 307 306 306 306 307 309 312 313 315 316 321 326 337 342 342 341 337 335 335 339 339 341 341 341 340 339 337 334 329 338 334 332 335 340 339
311 311 309 306 306 309 309 309 311 309 309 309 309 308 307 307 308 308 310 313 316 316 313 315 319 323 330 338 339 338 335 332 329 328 328 328 327 328 334 335 335 335 337 332 333 332 331 332 338
311 309 310 312 312 315 311 310 310 309 309 309 308 309 310 309 307 308 311 314 314 314 314 317 321 324 328 335 335 335 335 333 331 328 327 325 324 325 325 325 326 328 329 334 332 330 329 329 330
309 308 311 316 314 314 312 315 313 309 311 312 312 312 311 310 309 307 312 315 316 318 318 319 321 321 325 328 328 327 324 319 316 315 315 316 318 319 320 322 324 326 327 327 328 333 335 335 333
313 312 311 313 313 315 314 313 314 314 314 313 313 312 311 310 310 307 308 312 315 316 316 318 318 320 321 319 317 315 315 315 315 315 315 315 315 317 319 321 322 322 325 328 327 327 329 332 336
313 314 316 316 324 322 316 317 316 315 314 314 312 311 310 310 310 310 309 309 313 315 315 317 317 316 317 316 316 316 316 316 315 316 316 318 319 319 318 320 321 321 322 323 325 326 327 326 327
315 319 318 318 320 323 322 318 313 313 313 314 310 309 308 309 310 310 309 310 312 311 315 316 316 317 317 316 317 317 317 316 317 317 317 318 320 319 318 319 320 321 320 320 324 324 325 326 327
317 318 317 323 323 324 323 318 312 312 313 312 310 309 308 309 310 311 311 310 310 312 313 310 316 318 318 317 316 316 318 318 319 318 318 319 320 319 318 319 320 320 319 319 321 319 325 330 328

GFSSGP_925_thetae_099.txt.gz
Theta_e
317 318 321 323 330 334 337 337 334 332 334 333 334 338 342 341 344 348 346 343 344 352 354 340 339 339 342 344 346 346 347 347 345 343 343 343 339 336 334 333 332 329 325 320 320 319 316 316 318
317 319 321 324 331 334 336 335 329 328 327 329 331 332 339 344 341 346 348 345 345 352 353 349 337 337 339 343 346 347 347 346 345 345 345 342 338 334 332 330 328 323 320 320 318 316 316 315 316
317 320 324 325 330 334 337 326 326 325 327 332 330 330 333 338 337 345 346 347 348 352 353 348 336 336 335 338 344 346 346 346 346 345 343 339 335 332 329 326 323 320 319 318 317 317 317 315 314
316 321 321 326 326 327 334 325 324 325 328 329 329 331 328 327 330 338 347 349 349 350 352 344 336 335 335 334 336 343 346 346 345 344 339 334 332 329 326 323 320 319 318 318 317 318 318 317 316
316 320 324 326 324 323 323 323 323 324 324 326 329 331 332 327 335 345 350 350 348 349 352 349 337 336 335 334 331 333 341 343 343 339 334 332 330 326 323 321 320 319 318 318 318 318 319 319 319
319 320 322 324 324 323 323 323 323 322 322 323 324 327 330 327 340 348 349 349 347 348 352 353 338 336 335 334 332 330 332 335 335 334 333 330 326 323 322 321 320 319 318 319 319 319 319 320 320
319 321 319 321 322 323 323 321 322 321 321 321 321 325 329 328 326 347 349 350 348 348 351 353 347 337 336 335 333 330 329 333 333 334 333 329 324 322 321 320 320 319 318 319 319 319 318 319 319
316 319 320 320 319 319 320 320 319 319 320 319 321 327 327 327 329 345 346 349 348 348 348 352 352 347 345 340 334 332 330 333 334 333 332 328 325 324 322 320 320 320 319 319 320 320 320 319 319
313 318 318 318 319 318 318 318 317 317 317 318 319 319 320 324 337 344 344 345 347 347 349 350 351 350 348 346 339 334 332 332 334 334 332 329 337 337 338 332 324 322 322 322 323 323 323 324 323
316 317 317 316 317 317 316 316 316 317 318 318 318 319 318 325 340 344 345 344 344 346 348 349 351 351 349 346 346 341 339 340 340 341 336 337 341 338 341 339 330 328 327 327 326 326 327 330 338
312 316 315 315 316 316 315 315 315 315 316 317 317 318 318 318 334 342 346 345 345 344 346 349 351 352 350 347 347 347 345 345 345 337 332 339 341 335 337 341 340 342 337 341 337 338 340 342 342
313 313 313 313 313 313 314 314 314 315 316 317 316 316 317 320 324 334 344 345 345 346 347 349 351 352 351 349 349 348 346 347 346 345 336 335 335 333 338 342 341 336 341 340 338 340 341 341 341
312 312 311 312 311 311 312 313 314 314 316 315 315 315 318 320 325 324 332 343 345 346 348 348 349 350 350 348 349 349 348 348 347 348 344 344 341 337 339 341 342 341 340 336 338 341 343 344 344
312 312 312 312 312 311 312 314 313 315 315 316 316 317 316 317 322 324 323 329 341 346 348 349 349 349 350 347 348 349 349 349 349 348 348 344 345 342 341 339 338 338 338 338 334 337 339 343 344
311 312 311 312 314 314 313 314 314 315 315 316 316 316 316 316 315 320 325 327 337 345 348 348 349 349 349 348 347 349 349 349 349 347 344 344 343 341 341 342 341 339 336 333 332 332 338 341 344
311 310 313 312 311 312 313 315 314 313 314 315 315 315 315 316 316 316 319 324 326 341 345 347 348 348 347 346 346 346 347 348 346 341 339 337 338 340 338 339 339 339 335 331 332 341 345 345 346
310 312 311 311 312 311 312 314 316 314 314 316 316 315 315 316 318 317 315 318 322 325 336 346 347 348 348 345 345 346 346 346 346 339 329 330 329 340 333 328 334 336 333 332 336 342 344 345 344
310 310 312 313 314 314 315 315 315 316 315 315 316 316 316 317 318 317 316 314 315 316 321 334 344 346 346 347 346 345 345 344 344 340 337 330 336 337 333 336 333 333 334 337 341 346 346 345 345
312 312 313 314 314 313 315 315 316 316 316 315 316 317 317 318 318 316 316 315 313 315 316 317 334 342 346 345 345 345 345 344 344 343 339 342 339 333 336 337 337 337 344 344 343 343 344 344 339
312 313 314 314 314 314 315 316 315 315 315 316 316 317 317 318 317 318 317 317 316 316 316 317 318 335 343 344 345 346 346 346 345 343 337 335 333 335 338 341 343 342 341 341 337 336 341 342 341
313 314 314 314 315 314 314 315 315 315 314 315 315 316 317 317 317 318 318 317 316 317 314 315 318 320 337 344 346 343 345 344 344 344 344 339 338 339 343 345 346 340 331 330 329 335 338 338 340
314 313 313 314 315 315 313 316 316 316 316 316 316 317 316 316 317 317 316 316 317 316 316 315 316 320 328 341 343 343 344 345 345 345 346 347 345 344 344 344 341 331 330 329 336 333 334 336 339
313 312 313 314 315 315 315 316 316 315 315 316 317 317 317 315 314 315 315 315 316 316 316 315 315 318 325 338 342 343 344 345 345 346 346 346 345 344 343 342 339 333 334 336 340 338 335 334 338
313 314 315 312 313 316 316 316 317 317 317 317 316 315 317 317 317 317 315 315 316 318 319 318 318 317 320 332 338 343 344 343 338 339 342 342 342 343 343 343 340 338 337 338 336 337 335 336 339
314 315 317 317 318 318 317 317 317 317 316 316 316 318 317 317 316 317 316 316 317 320 321 321 320 321 322 326 332 338 342 340 338 337 338 336 335 334 334 338 338 339 340 341 339 340 335 335 338
315 316 317 323 321 320 317 318 318 317 315 316 317 317 315 315 315 316 317 317 317 318 321 321 321 322 323 324 327 333 337 335 334 332 332 332 331 331 329 328 328 328 332 336 339 338 337 336 337
316 316 316 317 318 319 319 318 317 317 317 317 317 315 314 314 315 315 316 316 317 316 317 319 320 321 322 323 327 332 333 333 332 331 329 328 326 325 322 323 324 327 328 329 332 333 337 338 339
316 316 318 319 322 324 320 320 320 319 318 317 316 315 314 314 314 315 316 316 316 316 315 317 318 319 320 322 325 327 326 325 320 317 316 316 316 319 322 320 322 325 327 329 332 331 332 334 335
318 319 320 319 321 325 324 321 319 319 316 315 313 313 314 315 316 316 317 316 315 315 315 315 316 318 319 319 320 320 319 318 317 318 317 316 317 320 321 324 325 325 326 327 329 330 330 332 332
316 318 318 327 327 324 325 323 316 316 314 314 314 315 315 314 316 317 316 315 314 313 313 314 314 314 315 319 320 318 319 317 317 320 317 322 324 318 319 322 323 324 325 325 326 327 325 328 330

GFSSGP_925_thetae_102.txt.gz
Theta_e
320 319 323 326 335 338 342 344 338 339 338 336 336 340 344 345 347 354 349 344 342 347 353 347 343 344 344 345 345 346 346 346 337 336 336 335 335 334 334 334 334 334 332 328 322 321 318 316 319
318 320 324 327 335 342 344 340 341 335 334 334 335 336 342 347 346 351 349 344 345 349 352 349 343 343 343 345 345 346 346 347 338 337 338 338 336 334 332 332 333 330 325 320 320 317 316 316 321
317 320 325 327 332 340 341 335 332 332 334 334 333 334 338 343 341 347 349 345 347 350 350 349 341 340 342 345 346 347 347 347 341 340 342 340 336 333 332 331 329 323 320 320 318 317 317 315 318
319 323 325 326 330 332 338 332 330 332 333 334 333 334 334 335 336 343 348 347 349 349 349 351 338 338 341 345 347 347 347 347 344 343 344 340 335 333 331 328 323 320 320 318 318 318 317 316 315
319 322 326 327 327 326 330 331 329 330 330 332 332 334 335 335 344 347 350 349 349 348 348 353 337 336 337 341 346 347 347 346 346 345 344 339 333 331 328 325 321 320 319 319 318 319 319 318 318
321 321 325 327 326 325 325 327 327 328 327 330 330 330 334 333 344 349 351 350 347 347 348 352 337 336 335 336 341 345 346 346 346 346 343 336 332 329 324 321 321 320 319 319 319 319 320 320 320
319 320 319 321 323 326 326 325 325 326 326 327 326 330 333 332 332 349 350 350 347 346 348 352 347 340 335 334 334 338 342 345 345 344 338 334 333 329 324 321 320 320 319 320 319 319 320 321 321
320 320 319 320 320 321 323 324 324 323 324 323 324 332 333 325 329 342 350 350 348 347 347 352 350 346 345 343 334 331 333 338 339 337 334 334 332 330 326 323 322 321 320 321 321 320 320 320 321
319 319 319 319 319 318 320 320 321 320 320 321 323 324 323 321 334 341 347 349 348 346 345 349 350 348 346 346 343 333 330 330 334 335 335 335 338 338 339 335 338 324 325 325 323 324 324 324 325
319 320 319 319 319 319 319 319 319 318 319 320 322 323 321 321 331 338 345 347 347 346 345 347 350 349 347 345 346 343 341 339 341 342 344 341 337 338 338 339 335 331 331 331 327 327 327 328 339
318 319 319 319 319 319 318 317 318 317 318 320 321 322 322 322 325 336 339 343 345 346 346 347 350 352 349 346 346 344 341 339 342 343 344 342 339 341 340 339 339 339 338 338 339 340 342 344 345
316 317 318 318 317 317 317 317 317 318 318 319 318 319 321 322 324 326 335 338 344 345 346 347 350 352 352 347 346 344 342 341 341 340 344 342 342 343 339 337 338 342 340 340 341 339 344 347 348
315 316 316 316 315 315 316 316 317 317 318 319 319 319 320 320 321 325 327 331 340 345 347 348 350 353 353 352 347 346 345 344 343 344 345 343 342 342 342 341 340 338 338 338 338 342 346 348 348
316 316 316 316 316 316 316 317 316 317 318 318 319 320 320 320 320 321 326 329 332 344 347 349 351 353 353 352 350 349 348 345 346 345 345 347 345 344 343 344 344 341 339 337 337 339 343 345 347
315 315 316 316 317 317 317 317 317 318 318 318 318 319 319 319 319 320 320 325 330 333 344 348 352 353 353 353 352 352 349 348 347 346 348 350 348 348 348 345 345 345 344 342 340 339 340 343 345
315 315 316 317 316 316 315 316 318 318 317 318 318 318 318 319 320 320 320 321 325 333 340 348 349 351 354 353 352 351 349 349 348 349 345 350 347 346 346 346 346 346 345 343 338 337 337 342 344
316 316 316 315 315 315 314 316 317 317 318 318 319 319 319 319 320 320 321 320 321 325 335 348 351 351 353 353 352 351 350 349 348 349 349 348 337 341 349 343 346 347 345 342 339 338 342 345 349
315 315 314 314 316 316 316 316 316 317 318 319 319 319 319 319 319 319 321 321 321 322 325 333 344 351 352 353 352 351 350 349 347 347 346 347 349 348 349 347 348 346 342 340 339 341 348 349 348
314 314 315 316 317 317 318 318 318 319 318 319 319 319 319 319 320 319 319 321 320 321 324 328 328 344 351 351 351 350 349 348 348 347 346 344 341 342 347 345 344 344 340 339 341 347 350 348 346
314 315 316 317 317 317 318 318 318 319 319 319 319 319 319 319 320 320 319 319 321 322 323 325 329 331 343 348 348 347 346 346 348 348 348 345 344 343 342 342 340 345 341 345 350 349 346 344 345
315 316 317 317 317 317 318 319 318 318 319 318 319 319 319 319 320 320 320 320 320 321 322 324 327 331 334 338 342 347 347 349 349 349 348 347 345 345 343 344 346 348 346 348 349 344 338 337 337
316 316 316 317 317 318 318 319 319 319 319 319 319 319 319 319 320 320 320 319 319 320 320 322 324 327 330 335 338 344 347 345 345 347 347 347 345 343 344 345 347 348 347 346 344 344 339 337 335
315 315 316 316 318 319 319 321 321 321 319 319 320 320 320 320 320 321 321 320 320 320 320 321 323 327 329 331 337 339 344 340 340 342 344 346 346 344 344 347 348 349 348 344 342 339 340 335 334
316 316 318 319 320 321 320 321 321 321 321 321 320 320 320 321 320 320 320 320 319 320 321 324 325 326 327 330 332 338 340 341 339 340 344 346 350 350 349 348 349 348 344 341 342 344 344 342 337
317 319 321 322 323 324 322 322 322 321 321 320 320 320 321 319 319 319 319 320 320 320 322 324 325 326 327 328 328 331 336 342 346 346 343 346 347 346 347 348 348 347 347 345 344 343 343 343 343
319 320 322 324 325 326 323 324 323 320 319 319 320 320 319 319 318 318 318 318 319 320 320 320 323 325 326 327 328 328 329 332 338 341 341 343 343 343 344 348 347 347 345 345 344 344 343 342 343
320 322 320 322 323 324 323 323 321 320 320 320 320 319 319 318 318 317 317 317 318 318 319 320 321 323 326 327 328 328 329 330 334 339 342 343 342 339 339 340 340 340 339 339 340 341 341 341 340
318 319 322 322 329 328 324 323 323 322 320 320 320 318 317 317 317 317 317 317 317 317 317 319 320 320 323 324 326 328 331 332 335 337 340 339 337 334 330 334 334 335 334 334 335 335 335 337 338
319 321 321 323 326 329 328 324 322 321 321 320 319 317 317 317 316 316 317 316 317 317 317 318 319 319 319 320 323 325 328 330 333 334 335 331 328 325 321 322 322 324 325 327 329 330 329 330 334
319 320 319 327 328 327 329 328 321 321 319 318 318 317 316 316 316 316 317 317 317 317 317 317 317 316 317 318 319 322 323 323 324 325 326 326 327 326 325 324 323 323 323 324 327 327 325 327 329

GFSSGP_925_thetae_105.txt.gz
Theta_e
321 322 323 327 335 340 343 339 342 341 339 338 338 337 341 347 352 360 350 344 344 351 352 348 345 347 348 347 346 344 343 338 335 337 336 334 335 335 336 338 341 340 338 333 323 322 319 317 321
320 321 324 330 337 344 344 341 344 342 339 337 337 335 338 347 349 351 347 344 345 352 353 351 344 345 346 346 347 347 345 342 335 337 336 335 335 335 336 337 336 334 331 323 322 319 316 317 322
321 321 326 331 335 341 344 344 341 337 336 337 337 335 340 345 345 350 348 345 346 350 351 353 343 344 344 344 345 347 347 346 337 337 337 336 336 335 335 334 332 329 322 321 319 317 316 317 323
320 323 326 329 334 336 340 341 335 336 337 337 336 336 336 339 341 347 346 346 348 347 348 353 342 342 342 343 344 347 347 347 339 337 338 339 337 335 334 332 329 323 321 320 318 317 317 315 317
319 323 327 330 331 332 333 337 334 335 336 335 335 337 338 340 343 347 347 347 349 347 346 353 342 341 340 342 344 345 348 347 343 339 340 342 338 335 333 330 325 322 321 319 318 318 318 318 316
322 323 324 328 330 330 329 332 333 334 334 334 335 335 338 339 344 346 347 347 348 347 347 354 341 340 340 342 344 347 347 347 345 343 344 343 339 336 335 331 324 323 322 320 319 319 320 319 320
320 323 324 325 326 328 328 328 329 332 333 332 331 333 336 335 339 346 347 348 347 348 348 353 347 342 339 340 344 347 348 347 346 345 345 343 338 335 332 329 326 325 324 323 322 320 321 321 321
320 321 322 322 322 323 326 327 327 328 329 327 327 332 336 329 331 344 346 346 346 347 349 352 348 345 345 345 341 344 347 347 347 346 346 342 337 334 329 325 325 325 325 323 322 321 321 321 321
320 321 321 321 321 322 323 323 325 326 324 325 326 328 330 325 331 337 344 345 345 346 348 352 349 347 345 344 344 337 341 344 346 346 344 339 341 340 338 331 337 327 323 323 322 323 323 324 323
320 320 320 321 321 321 321 322 322 322 322 323 324 325 326 326 327 336 342 344 344 344 345 349 350 349 347 345 347 343 342 343 345 345 345 342 340 338 336 337 329 331 323 322 323 324 325 326 337
320 320 321 321 321 321 321 321 320 320 319 321 323 325 327 326 327 332 338 340 342 343 343 346 351 351 349 346 347 345 340 339 340 341 344 343 339 338 338 341 341 337 324 335 334 340 340 342 345
319 320 320 321 321 320 320 320 320 320 320 320 321 322 323 325 326 330 334 337 341 342 344 345 350 353 352 348 346 346 339 339 339 341 345 345 342 339 341 339 340 339 339 339 339 339 340 346 349
319 319 319 319 319 319 319 319 319 319 320 320 321 320 321 322 325 326 329 331 335 342 344 345 348 354 355 352 348 346 342 340 339 340 344 344 342 341 343 340 338 339 339 340 340 338 342 347 349
320 319 319 319 318 319 318 318 319 319 320 320 320 321 322 323 323 322 324 327 329 331 344 346 348 354 356 355 351 348 346 342 341 341 342 344 343 343 342 342 342 340 339 338 338 338 342 347 346
318 318 318 319 319 319 319 319 319 320 320 320 320 321 322 322 322 323 323 324 329 331 339 347 349 352 356 357 355 353 348 347 344 343 344 347 345 345 344 343 343 341 340 339 338 338 341 341 340
318 318 318 319 319 319 319 318 320 321 320 320 320 320 321 321 322 322 322 322 323 327 332 338 344 348 356 357 357 354 351 350 347 346 340 347 349 346 347 345 344 343 343 343 342 340 338 338 339
318 318 319 318 319 318 317 318 319 320 320 320 321 321 321 321 322 321 321 322 322 323 328 337 344 347 351 357 357 356 353 352 350 347 345 349 350 349 350 345 344 344 345 345 344 340 338 338 341
318 319 319 319 319 318 318 317 318 320 320 321 321 321 321 321 321 321 321 322 322 324 326 329 338 350 352 355 357 355 354 353 352 350 350 350 350 346 349 347 347 349 348 346 344 341 339 341 345
318 317 318 319 318 318 319 320 320 320 320 321 321 321 321 321 322 321 320 321 322 323 324 327 330 334 349 352 352 352 352 351 351 351 350 351 351 350 349 346 347 351 350 346 343 342 343 345 348
317 317 318 318 319 319 320 320 320 320 321 321 321 321 322 322 322 322 321 321 321 322 324 326 327 331 336 341 349 349 349 347 348 348 349 350 350 350 351 349 347 348 348 345 344 344 344 347 349
318 318 319 319 319 320 320 321 321 320 321 321 321 321 321 321 322 322 322 321 321 322 322 323 326 329 333 334 339 349 349 348 345 344 347 350 350 349 346 348 347 346 346 344 345 346 348 346 347
319 318 318 317 319 319 320 321 322 322 322 322 321 322 322 321 321 321 322 322 322 322 321 321 323 327 329 333 334 335 343 344 341 341 341 346 351 351 348 346 348 345 345 344 348 349 350 346 342
317 318 318 318 320 320 320 321 322 323 323 323 323 322 322 322 323 323 323 323 322 322 322 322 323 325 329 332 334 334 336 335 337 340 340 343 347 351 350 349 346 347 350 348 350 350 350 345 343
318 318 319 320 321 324 323 324 324 324 324 324 324 324 323 323 323 322 322 322 322 322 322 323 325 327 330 331 332 335 339 340 339 337 339 341 345 348 350 348 348 351 353 351 349 348 346 347 342
319 320 323 324 324 325 324 325 326 325 324 324 324 323 324 323 322 321 321 321 320 322 322 323 324 326 328 329 330 331 333 337 342 342 338 335 340 345 350 348 346 350 352 351 349 346 346 346 346
320 321 321 325 327 326 325 327 328 326 324 323 322 322 323 322 321 321 320 320 320 320 321 321 322 322 324 327 329 331 331 332 331 334 336 339 335 338 341 347 346 347 348 350 348 345 347 347 347
321 322 321 327 327 328 325 325 325 325 325 323 322 322 322 322 321 321 320 319 319 319 320 320 320 322 321 323 327 330 332 333 332 332 334 337 340 340 344 343 341 338 336 346 347 347 345 344 344
321 321 324 326 336 332 326 327 327 327 326 324 323 322 322 321 320 320 320 319 319 319 319 319 320 320 320 321 323 325 328 331 333 335 336 337 341 342 343 337 337 328 338 341 343 343 341 341 341
322 323 323 323 326 332 331 327 324 325 325 325 323 321 320 319 320 319 319 318 317 317 318 318 319 318 319 320 321 322 325 328 330 334 335 338 341 340 340 340 337 334 339 336 336 337 337 335 338
322 323 322 331 330 328 330 333 324 324 324 323 322 320 319 319 318 318 317 316 316 316 317 318 318 318 318 318 318 320 323 326 326 329 332 334 337 337 335 331 329 326 324 321 324 324 325 328 330

GFSSGP_925_thetae_108.txt.gz
Theta_e
318 322 323 325 331 336 341 337 335 342 342 339 338 337 337 351 354 365 349 346 352 352 348 346 348 349 348 345 338 339 338 334 336 336 335 336 335 336 338 341 343 344 340 332 323 321 317 319 322
317 321 323 327 334 340 342 340 344 343 339 338 337 336 334 352 351 350 344 349 352 352 348 347 348 349 348 346 341 341 342 335 336 337 335 335 335 335 337 339 339 336 330 322 321 318 316 318 323
319 323 324 328 333 337 341 344 344 341 339 338 338 336 339 346 350 349 344 349 352 352 352 347 346 347 348 347 346 344 344 338 335 337 336 335 335 336 336 338 336 331 322 321 319 317 316 319 325
321 323 324 327 331 334 336 339 341 338 338 337 337 337 338 340 345 349 346 347 352 351 352 347 344 345 346 346 346 346 345 344 336 337 337 336 337 337 337 337 332 326 323 321 318 318 317 316 320
319 322 325 328 330 332 334 339 336 336 337 337 336 337 341 343 345 347 346 347 348 349 354 348 343 344 344 344 345 346 346 346 340 337 338 338 338 337 337 336 332 326 323 320 318 318 318 317 316
320 323 324 327 329 331 332 332 336 336 335 335 335 336 342 342 345 347 346 348 347 350 353 347 342 342 342 342 343 344 347 346 345 338 339 341 339 336 334 332 326 325 325 323 320 319 319 319 319
319 322 324 326 326 327 328 330 330 331 333 334 333 334 337 340 345 346 346 347 347 351 356 349 341 342 341 341 342 344 346 347 346 341 340 344 340 336 333 328 324 323 322 322 321 320 320 320 319
319 319 320 323 325 325 327 329 328 328 329 329 329 331 332 331 335 346 346 346 347 347 357 352 348 345 340 341 342 345 347 347 347 344 343 345 341 336 333 326 322 321 321 321 321 319 319 319 318
320 319 319 320 321 323 324 323 327 328 328 328 327 328 329 327 331 337 343 344 344 346 354 351 348 348 347 348 341 344 347 348 347 346 345 345 341 335 332 326 326 321 320 319 319 319 319 319 320
320 320 320 321 322 321 322 323 323 323 324 325 325 325 326 327 328 333 340 343 343 345 350 352 348 347 346 345 347 341 346 347 347 347 347 346 343 343 341 335 332 336 323 320 319 320 321 323 326
320 320 320 321 322 322 322 321 322 322 322 322 323 325 326 327 329 330 335 340 344 343 344 352 350 348 347 345 346 343 346 346 348 350 350 345 342 341 339 338 336 331 331 323 322 323 324 337 343
319 320 320 320 322 321 321 321 321 321 321 321 321 322 323 324 327 328 330 336 341 342 343 352 354 350 349 347 348 348 343 343 344 344 345 346 342 339 340 342 341 339 336 327 336 339 342 343 347
319 319 320 320 320 321 320 320 320 320 321 320 320 321 321 322 324 324 326 328 330 337 342 342 347 356 351 351 349 349 343 342 341 341 343 347 342 343 341 340 344 343 338 338 338 341 342 342 347
320 320 320 320 320 320 319 319 319 319 320 320 321 321 321 322 323 324 324 325 328 330 341 343 340 331 356 352 353 349 346 342 340 341 344 344 347 341 342 342 342 342 340 342 340 340 338 342 348
320 319 319 320 319 319 319 319 319 320 320 320 321 322 322 322 322 325 324 325 325 331 341 343 340 333 338 356 351 353 351 343 342 342 343 345 345 343 343 343 342 341 343 340 342 340 338 345 347
319 319 318 319 320 319 319 318 320 321 321 320 321 321 322 323 323 323 323 323 324 325 325 344 348 355 356 359 358 355 356 349 347 343 343 344 342 345 346 345 342 341 340 340 339 338 339 339 339
320 319 319 319 320 320 319 319 320 321 321 321 321 321 322 322 325 322 322 323 323 324 326 328 335 343 357 357 358 358 355 354 352 349 345 349 347 343 347 345 346 345 342 341 339 341 339 340 340
318 319 319 319 320 320 319 318 319 319 321 321 321 321 322 323 324 323 322 322 323 324 326 328 329 337 353 358 358 359 359 356 354 353 350 346 346 351 343 352 346 347 346 347 346 346 343 341 340
318 319 319 320 320 320 319 320 320 320 320 321 322 323 324 324 324 323 322 322 323 323 325 326 329 328 331 354 355 358 357 357 355 354 354 352 351 352 352 350 351 350 350 349 348 347 344 340 341
319 319 319 319 319 319 319 319 320 321 322 322 322 324 324 325 325 325 323 323 323 323 324 326 326 330 330 327 350 354 355 353 356 354 352 353 352 351 351 350 350 348 351 352 349 347 345 343 342
319 319 319 319 319 320 320 320 321 321 321 322 323 324 324 324 325 327 328 326 324 325 325 323 323 328 331 335 331 336 347 348 352 353 352 351 352 353 352 351 351 351 350 352 351 350 345 345 346
319 319 319 319 319 319 320 321 323 323 323 324 324 324 323 323 324 325 326 328 323 323 323 324 324 327 328 329 336 336 338 347 348 348 349 352 350 351 353 352 353 353 350 351 350 348 347 344 348
319 318 318 318 319 320 320 321 320 322 322 324 325 325 325 325 325 326 326 325 324 323 323 324 327 326 326 331 331 334 337 337 337 339 346 343 349 352 351 352 351 351 351 350 349 348 347 346 348
319 318 319 319 319 322 320 321 322 324 325 326 327 326 325 324 325 324 323 322 322 323 323 324 324 326 329 331 333 332 335 338 340 341 344 346 342 350 354 353 352 348 350 349 350 348 349 349 350
319 320 321 323 324 325 323 324 326 327 327 326 325 325 326 325 324 323 322 322 322 321 322 322 324 323 324 326 329 331 333 335 337 337 340 341 341 341 345 352 352 351 347 349 347 346 346 351 351
320 321 322 325 326 324 326 328 327 327 326 327 326 325 325 324 323 322 322 321 321 320 321 322 322 322 324 323 325 328 331 334 334 334 334 336 337 336 338 339 341 337 337 329 339 339 341 341 347
320 321 321 325 328 329 326 326 326 328 327 327 325 324 325 325 324 322 321 320 320 320 320 321 320 321 322 322 322 324 328 331 333 335 333 333 335 337 338 336 338 340 333 326 320 328 328 321 331
323 323 325 327 337 331 326 327 327 328 327 327 325 324 323 323 322 321 321 321 320 320 320 320 320 320 320 319 321 323 323 324 330 331 334 336 338 338 336 339 344 336 329 326 324 333 332 325 324
323 325 326 327 326 332 330 327 326 327 328 328 326 324 323 322 321 321 320 319 318 317 317 317 319 319 319 319 319 318 320 322 325 329 329 334 336 338 339 342 342 341 333 331 331 332 329 330 322
322 323 324 332 330 329 331 333 326 326 324 325 324 323 322 321 319 318 318 318 316 316 316 317 318 318 318 318 318 319 319 319 321 324 328 330 332 333 336 339 339 337 333 331 329 328 323 321 319

GFSSGP_925_thetae_111.txt.gz
Theta_e
318 317 319 321 323 326 331 334 333 337 340 335 333 334 350 353 359 362 351 352 344 347 349 348 348 347 341 334 336 334 333 335 336 334 335 333 335 336 337 340 341 340 337 327 321 318 318 321 326
317 316 322 319 324 329 332 336 343 341 337 334 334 334 352 355 350 351 352 350 339 345 348 349 348 347 343 336 338 337 333 335 336 334 335 334 334 335 338 340 339 335 327 321 319 317 318 321 325
316 319 320 319 323 328 331 340 338 340 337 337 335 335 342 349 345 344 351 350 340 345 347 349 348 347 345 340 339 340 334 335 336 335 334 334 334 334 336 336 333 329 321 319 317 316 317 322 326
319 316 317 319 321 325 331 333 339 340 337 336 335 339 340 349 349 351 351 350 340 347 348 349 349 347 347 344 341 342 340 334 336 336 334 334 335 335 336 335 332 327 321 319 317 316 315 317 324
318 314 317 321 322 326 328 330 338 340 334 335 334 341 344 346 345 352 352 351 348 350 350 346 348 348 347 346 345 344 344 338 336 337 336 335 335 334 333 331 327 322 321 318 318 318 317 316 316
314 315 318 319 321 325 325 324 333 335 333 332 334 342 343 346 345 346 351 351 350 349 349 344 344 345 346 346 346 345 345 344 337 337 338 337 336 333 331 328 324 322 320 318 318 318 318 318 318
315 315 317 319 321 323 324 324 325 330 331 329 329 334 330 338 346 346 348 350 349 351 345 343 342 343 343 343 343 344 345 346 342 337 338 340 338 334 331 326 322 320 320 319 318 318 319 318 318
315 314 316 317 320 321 322 324 325 326 328 327 327 331 330 329 340 346 348 348 350 352 350 341 341 342 342 343 343 343 345 347 346 339 339 342 340 335 331 327 322 320 319 319 319 318 318 318 317
315 313 313 315 316 318 319 320 322 326 327 325 325 327 327 328 330 334 345 351 355 355 353 345 340 342 342 342 343 344 345 347 347 343 341 343 342 337 332 326 322 320 320 320 319 318 318 318 318
312 314 315 317 317 317 318 318 319 322 323 324 324 324 325 327 327 329 334 342 351 355 354 349 340 341 342 343 341 344 348 348 348 346 343 344 344 339 333 329 324 321 320 320 319 319 318 319 321
314 314 317 318 318 318 318 319 318 320 321 321 321 322 320 321 324 325 329 336 345 352 352 349 341 341 342 347 344 341 345 348 348 347 346 346 345 341 339 332 326 331 331 321 320 320 320 321 325
313 315 317 317 318 317 319 319 319 319 320 320 319 319 320 320 319 320 323 328 338 347 351 348 347 347 344 345 345 344 339 341 346 348 347 346 345 342 342 339 337 332 329 326 320 320 322 329 341
314 315 317 318 317 315 318 318 318 317 319 318 318 319 317 319 318 320 321 326 335 349 352 350 348 347 348 346 347 345 344 340 339 341 349 347 345 341 342 340 338 337 337 333 324 325 337 341 342
314 315 316 316 316 317 317 317 318 317 318 318 318 317 317 317 317 319 320 323 330 342 349 351 349 348 347 347 352 348 347 345 341 339 338 347 343 341 339 340 339 340 341 339 332 332 338 343 343
315 315 315 316 317 316 317 316 317 317 317 317 317 318 317 317 319 318 320 322 324 339 344 353 350 345 335 334 350 353 349 344 343 341 339 338 341 342 342 341 340 342 343 341 339 338 339 340 344
315 315 314 315 317 317 315 315 317 317 317 317 317 318 318 317 317 320 321 322 327 335 344 345 344 338 335 351 355 351 354 349 344 341 339 340 339 342 342 343 341 340 343 342 341 341 340 339 338
314 315 316 316 316 317 317 315 317 317 316 318 317 318 319 318 318 321 321 323 324 329 340 343 340 338 339 340 338 354 351 352 350 343 340 341 341 342 344 341 344 341 340 341 343 343 341 340 343
315 316 316 317 317 316 316 316 316 316 317 319 318 318 319 318 317 321 320 320 324 324 325 329 329 329 347 349 353 355 354 352 353 352 350 345 344 343 345 342 343 344 342 340 340 341 340 341 340
315 316 316 316 317 317 315 316 316 316 316 317 316 317 317 317 318 321 323 321 322 324 324 323 322 322 330 334 353 352 355 354 354 353 352 352 348 347 344 343 344 345 347 346 343 342 341 340 340
316 316 316 317 318 317 315 316 317 317 317 317 317 317 317 318 319 319 322 322 325 324 323 324 324 324 325 328 329 346 352 352 352 353 353 351 351 348 347 347 345 349 349 346 348 347 346 344 343
317 317 318 318 318 317 316 316 317 319 319 318 317 317 318 318 319 319 319 323 324 325 328 326 325 325 326 330 328 331 331 332 346 351 350 351 349 349 350 349 349 347 348 350 349 350 348 346 344
317 317 317 318 318 317 317 316 316 319 318 318 318 317 316 318 319 320 321 321 324 324 324 327 328 332 328 327 332 334 335 338 337 337 341 345 349 344 333 330 340 344 347 348 347 349 350 346 343
317 318 317 318 316 316 316 315 315 318 318 318 318 319 318 316 317 322 321 322 322 323 324 323 324 326 330 331 330 330 330 329 331 332 333 336 343 344 334 329 337 343 332 341 347 349 350 347 344
319 318 317 317 315 316 316 316 316 317 318 320 324 322 321 322 320 319 320 321 322 323 323 323 323 323 323 324 325 328 333 333 332 331 333 334 333 338 341 344 344 340 327 345 345 345 343 342 342
317 316 318 318 318 318 317 319 317 321 324 326 324 322 321 320 319 318 317 317 320 321 321 322 321 321 322 323 322 323 327 330 332 332 332 333 334 335 334 336 339 343 343 342 341 339 338 337 339
321 319 319 323 322 324 324 325 324 323 326 323 323 321 320 319 318 317 317 317 319 321 321 321 321 321 321 321 322 321 323 328 329 329 329 332 333 332 332 332 334 339 338 339 339 338 337 326 325
323 322 322 325 325 325 324 323 322 325 325 325 324 324 322 320 317 317 317 318 319 320 321 320 320 320 321 321 320 320 321 321 322 323 325 332 333 334 335 335 336 338 335 339 337 335 331 329 328
322 321 327 328 333 331 325 324 327 328 327 326 325 323 322 319 318 317 316 318 319 317 316 318 319 320 321 320 320 319 318 318 319 320 321 322 327 330 332 334 335 337 339 341 338 336 333 326 327
320 320 324 324 326 332 326 323 326 326 324 324 322 322 321 319 318 318 316 317 316 316 315 316 316 320 320 320 319 320 319 318 318 318 318 320 321 325 327 332 334 335 339 339 335 330 327 326 326
317 319 325 329 331 327 328 327 322 323 321 321 320 320 320 319 316 315 314 316 316 316 316 315 315 316 317 316 315 315 315 318 319 319 318 319 319 319 321 325 327 331 334 336 329 326 324 327 329

GFSSGP_925_thetae_114.txt.gz
Theta_e
317 317 317 319 320 322 326 330 332 338 338 334 332 350 353 352 355 356 349 351 346 347 349 349 344 336 333 332 332 332 334 334 334 333 332 333 336 337 336 336 336 336 334 326 321 317 320 325 329
317 315 321 317 321 325 326 328 338 339 337 333 342 349 352 353 351 354 354 352 343 345 347 348 344 337 334 334 332 332 335 334 334 333 332 334 335 337 338 338 338 334 325 320 318 317 320 324 329
314 318 318 317 318 323 326 329 332 336 337 335 334 340 345 350 352 351 353 350 348 346 346 348 345 339 335 337 333 332 335 334 333 333 332 333 335 336 337 336 332 326 320 319 317 317 320 323 326
316 314 314 317 319 320 327 326 327 337 338 332 337 343 345 346 347 352 349 345 346 347 346 347 346 342 337 338 338 333 335 335 333 333 333 332 332 331 331 330 327 321 319 317 316 316 318 323 326
316 310 315 317 319 320 323 324 323 336 335 332 333 343 347 349 350 350 346 343 342 346 347 347 347 345 340 339 340 337 334 336 335 333 332 332 331 330 329 327 324 319 319 317 317 316 316 316 319
313 311 316 317 319 321 320 320 322 330 334 331 338 342 342 351 350 351 344 341 339 342 346 347 347 347 344 341 341 341 337 335 336 335 333 333 331 329 327 324 321 319 318 318 317 318 318 317 317
314 311 315 317 318 319 320 321 321 325 329 327 330 333 332 340 351 351 349 341 338 341 344 347 347 347 346 345 344 343 343 337 336 337 336 334 333 331 329 325 321 319 318 318 318 318 318 318 318
313 312 314 314 316 317 319 317 318 321 326 326 328 331 331 329 348 350 350 347 343 343 343 344 345 347 346 346 345 345 345 344 339 337 338 338 335 332 329 326 323 320 319 318 318 318 318 318 318
313 311 312 314 316 316 317 317 317 320 325 324 325 327 327 328 343 349 352 353 352 350 342 341 342 343 343 344 344 345 345 345 345 339 338 340 339 336 332 329 325 321 320 319 319 318 318 318 318
310 310 313 314 316 316 316 317 318 320 319 322 323 324 325 325 326 347 351 353 353 351 345 342 341 341 342 342 343 345 346 348 347 344 339 339 342 340 334 330 326 322 320 320 320 319 319 318 318
310 311 313 315 316 316 316 316 317 319 319 320 320 321 319 319 319 320 336 352 353 352 349 345 340 340 340 341 342 342 346 348 348 347 343 340 342 343 339 333 329 325 322 321 321 320 320 319 319
312 312 313 315 316 316 315 317 318 318 318 319 318 319 318 317 319 319 322 336 352 354 351 347 341 339 338 337 337 337 341 343 347 347 347 344 343 344 342 337 332 327 323 323 321 319 319 319 320
311 311 313 314 315 314 314 315 317 317 317 317 317 317 317 318 318 318 319 336 344 353 352 348 341 336 338 338 339 340 338 339 339 344 346 346 346 345 344 341 339 333 326 326 327 323 320 320 327
311 311 312 313 314 313 315 315 316 317 316 316 317 316 315 315 316 318 317 331 346 350 350 348 342 340 341 341 343 344 343 339 338 338 341 343 345 346 345 343 341 339 336 334 334 329 324 321 336
311 312 312 313 313 313 315 315 316 316 316 315 314 314 316 315 316 316 319 320 340 344 348 349 348 347 346 344 346 346 345 344 343 341 338 338 338 341 343 343 341 342 339 337 338 338 332 324 334
315 312 313 312 315 315 314 315 315 315 315 315 315 314 315 315 316 318 319 319 324 343 347 349 349 347 347 347 350 350 349 346 346 346 342 339 338 335 340 341 341 341 340 338 340 341 337 333 334
311 313 314 315 315 315 314 314 314 314 314 315 314 314 315 315 315 318 319 322 329 336 346 348 348 347 348 340 340 353 353 352 350 347 343 342 340 339 340 339 338 342 341 340 342 342 341 339 339
314 314 314 314 315 315 313 313 315 314 313 313 315 314 315 315 315 317 319 323 327 333 340 347 349 348 342 340 339 349 340 350 354 352 345 343 341 340 340 340 341 341 342 342 342 343 343 343 342
313 313 313 314 314 315 313 313 313 313 313 312 314 314 314 315 316 318 320 320 330 334 340 343 342 336 344 346 345 341 349 352 350 352 350 352 349 342 342 342 344 344 342 342 342 340 341 342 341
314 313 313 313 315 314 316 315 315 315 314 314 314 314 314 314 314 315 318 319 326 337 339 338 333 329 327 327 339 351 351 350 350 349 347 348 348 349 347 345 345 346 346 344 343 343 342 342 341
316 314 315 316 316 316 316 314 314 314 317 316 314 313 314 314 314 314 315 318 322 322 322 324 326 326 326 325 325 327 331 333 332 330 334 337 344 345 346 346 346 344 343 342 343 343 343 343 343
317 316 316 316 316 314 315 314 314 314 314 315 315 313 312 313 315 314 318 321 324 326 326 326 326 326 328 331 331 331 330 330 330 330 330 330 331 333 340 344 344 342 336 331 337 343 343 342 344
316 316 316 317 315 314 313 313 313 314 314 314 314 314 316 315 314 318 318 320 325 326 327 329 331 331 331 330 330 330 330 331 330 330 331 332 332 332 332 335 341 340 334 335 337 336 340 341 341
317 316 314 313 312 314 314 313 313 313 314 315 316 320 318 316 318 316 317 321 323 323 323 323 323 323 324 324 324 324 325 327 330 330 330 328 328 330 332 334 336 338 336 332 328 331 334 339 340
316 313 315 315 315 317 319 321 314 316 324 323 322 319 317 315 314 315 314 314 320 322 322 322 321 322 322 322 322 322 322 322 326 329 327 329 330 331 333 333 334 333 335 338 337 330 333 336 336
320 317 315 320 319 319 321 322 321 323 323 322 321 317 317 315 314 314 314 314 318 319 321 321 320 321 321 320 320 320 321 321 322 321 321 321 322 323 328 334 334 334 335 335 335 337 334 338 338
322 323 320 321 323 322 321 320 319 324 324 323 321 319 316 316 315 314 314 314 316 318 319 320 320 320 320 320 319 320 320 319 319 319 319 319 319 318 321 325 327 330 332 334 336 336 336 338 337
320 319 323 320 323 325 324 322 322 326 325 324 324 321 318 315 314 315 314 315 314 315 315 315 316 316 318 320 320 320 319 318 318 318 318 317 318 318 318 318 320 325 328 333 334 337 338 336 333
317 317 320 321 327 330 327 322 322 322 322 322 321 321 320 320 317 314 313 315 315 315 315 315 315 316 318 320 320 319 319 319 318 318 318 318 317 318 318 317 318 322 322 327 332 334 336 335 332
316 320 322 324 328 328 329 326 320 320 318 319 318 318 318 319 319 316 314 314 316 316 315 315 314 315 317 318 318 317 316 315 315 316 318 315 315 315 314 314 316 320 319 319 323 329 332 330 328

GFSSGP_925_thetae_117.txt.gz
Theta_e
317 316 317 318 320 320 325 328 329 333 338 333 334 346 350 350 352 350 350 351 345 348 348 345 337 332 331 330 331 335 335 334 333 332 331 331 335 337 337 336 334 334 335 333 323 318 322 326 331
318 315 319 314 319 323 325 325 328 328 336 335 347 350 351 352 353 353 351 353 347 347 347 344 336 332 331 331 332 334 333 333 332 330 329 330 331 331 331 332 333 334 330 323 318 319 323 329 331
314 318 315 315 316 322 325 325 329 328 325 333 336 340 347 353 353 351 351 351 348 348 347 344 336 333 332 331 332 334 333 333 331 330 331 334 336 336 334 334 333 328 321 319 316 318 321 326 330
314 313 311 316 318 319 323 322 322 322 328 331 341 346 345 347 350 351 353 350 346 347 347 344 337 333 333 332 332 334 332 332 332 330 331 332 333 334 334 333 329 322 319 318 317 318 321 323 326
314 309 314 316 317 318 320 320 320 320 330 330 337 346 347 350 350 353 352 349 346 348 348 345 339 334 336 333 332 334 334 332 331 330 330 330 330 330 330 326 324 320 319 318 316 316 318 322 325
311 309 315 316 317 320 319 319 319 319 326 343 345 342 343 352 352 351 346 345 345 346 348 346 342 336 336 338 334 333 335 334 331 330 330 329 328 328 327 325 322 319 319 318 317 317 316 316 317
312 311 315 316 318 318 320 318 318 319 318 327 335 344 341 349 351 345 343 344 344 345 346 346 344 340 337 339 340 336 334 336 335 332 331 330 329 329 327 326 323 320 319 318 318 318 318 318 318
311 310 313 314 317 318 318 315 315 316 318 325 332 337 340 339 350 348 348 348 346 346 345 345 345 345 341 340 341 341 338 335 336 336 334 333 332 331 329 327 324 321 320 319 318 318 318 319 318
311 310 312 313 314 316 314 314 315 316 321 322 323 330 330 340 350 349 348 351 349 348 347 346 346 346 345 344 343 343 343 341 336 336 337 336 335 334 331 329 326 323 320 320 319 319 319 319 319
310 309 312 313 315 316 315 315 315 318 318 321 323 320 332 347 348 350 351 351 351 349 348 347 347 346 346 345 345 345 345 345 343 339 338 338 339 337 335 332 330 327 324 322 321 320 319 319 318
310 311 313 314 315 315 314 315 316 316 318 319 321 319 317 326 342 350 350 351 350 350 348 347 347 346 345 345 344 345 346 346 346 345 341 338 339 340 339 336 332 328 325 322 321 320 320 319 318
311 311 312 314 314 315 315 315 316 316 317 318 317 318 317 316 321 335 347 351 352 351 348 346 346 344 344 343 343 343 344 344 345 346 345 342 339 340 342 341 337 332 328 324 322 321 320 319 319
310 311 311 312 312 312 313 313 314 315 315 316 315 315 315 315 315 328 337 341 350 352 351 346 344 343 343 346 343 342 341 344 343 343 345 345 343 341 342 343 342 339 334 329 324 322 322 321 320
310 310 311 311 311 311 313 313 312 315 315 315 315 315 314 312 313 315 323 334 336 348 352 351 346 343 342 344 342 341 339 341 339 340 342 345 346 344 343 344 344 343 339 336 330 326 327 327 324
311 312 311 312 312 312 311 313 314 315 315 314 314 312 313 313 314 314 316 324 335 342 348 351 350 346 341 341 342 340 339 339 340 339 339 342 345 346 346 345 345 344 343 340 338 335 334 335 333
314 311 313 312 313 313 313 314 315 314 314 313 313 313 312 312 314 316 317 316 329 338 344 348 349 346 341 340 340 342 343 343 342 341 340 340 342 342 342 342 342 343 344 341 340 339 337 337 338
310 313 313 314 313 314 314 313 313 313 313 313 313 312 312 312 313 316 317 315 318 327 338 345 348 344 341 342 343 345 346 346 346 345 344 343 343 342 340 339 340 342 342 340 339 340 338 339 341
314 313 313 314 314 314 313 312 312 313 312 312 312 312 312 312 312 315 318 318 320 322 335 343 348 347 346 346 346 346 351 352 352 348 346 345 344 342 342 341 341 342 341 341 341 341 340 340 342
314 313 313 313 313 314 312 312 313 312 312 309 310 311 312 312 313 315 317 318 328 328 338 343 348 347 347 346 344 337 344 347 344 352 351 349 348 348 346 343 341 342 342 341 341 342 342 342 342
313 313 313 312 312 311 313 313 312 314 314 310 310 311 311 312 313 313 315 316 326 332 336 341 344 345 346 343 342 339 338 340 349 349 342 339 342 346 347 347 345 343 342 343 343 341 341 340 340
314 313 313 313 315 314 314 313 313 314 314 313 314 312 312 312 311 311 312 316 323 331 337 340 343 347 342 335 341 348 349 344 339 334 332 331 331 332 332 337 344 345 342 342 342 339 338 340 341
314 314 316 315 314 313 313 313 312 313 313 313 312 311 310 310 311 311 311 313 321 326 334 339 341 335 328 325 328 331 327 327 330 329 329 330 329 327 327 330 333 339 343 342 340 339 329 332 340
314 315 315 315 313 313 313 311 310 312 313 312 314 313 313 315 314 311 311 316 320 323 328 332 330 328 328 330 331 330 329 330 329 329 329 328 328 329 329 330 333 335 338 339 339 338 334 338 340
317 315 311 310 310 313 313 312 311 313 314 319 319 317 316 315 314 314 317 321 322 325 327 329 330 331 330 329 327 326 325 325 326 329 329 327 327 327 329 331 332 334 333 333 334 334 335 336 334
314 311 313 314 313 314 317 317 315 317 323 322 319 316 314 314 315 316 317 317 320 321 323 324 325 323 323 323 322 322 321 321 322 324 324 322 322 321 322 324 329 330 331 333 332 334 335 334 332
319 313 313 317 316 316 319 319 319 322 321 318 317 315 314 313 311 311 312 315 318 320 320 321 321 321 321 321 320 320 320 320 320 321 321 320 319 318 317 317 319 324 327 328 330 332 334 335 335
321 321 316 319 319 322 319 318 318 322 322 322 321 318 317 314 312 312 312 313 316 318 319 318 319 319 320 320 320 319 319 319 319 319 318 318 318 317 317 317 316 316 319 323 326 328 329 332 334
318 319 322 319 324 323 320 321 319 325 323 322 321 321 319 318 317 312 310 313 313 317 317 316 316 316 316 317 318 319 319 319 318 318 317 317 318 318 317 317 316 314 315 318 319 321 326 329 332
316 316 317 317 320 321 324 321 317 321 321 320 318 318 319 320 322 319 315 314 315 313 313 312 312 313 314 316 318 319 319 319 318 318 318 318 318 318 317 316 314 313 314 315 316 317 319 322 326
315 319 317 315 321 326 329 325 319 318 316 315 314 314 314 314 315 316 315 313 312 311 311 311 311 312 312 313 314 317 317 317 317 318 318 318 317 317 316 314 313 313 312 312 312 314 317 319 323

GFSSGP_925_thetae_120.txt.gz
Theta_e
317 317 317 317 321 319 324 327 327 331 334 333 338 342 344 345 349 348 349 351 347 348 347 344 336 331 332 334 335 337 336 337 343 345 346 345 340 337 336 337 336 333 330 331 326 317 320 323 327
316 316 318 313 320 324 326 323 328 327 329 328 334 348 349 352 353 351 352 350 347 347 347 342 334 331 332 332 335 335 334 333 333 333 334 333 334 335 336 336 333 331 332 329 320 319 323 327 331
313 318 314 315 316 324 327 324 326 323 320 322 337 341 347 351 353 350 350 348 347 348 346 340 333 331 331 331 334 334 334 333 331 329 328 329 332 334 333 331 332 332 329 322 318 320 325 330 331
313 312 310 316 318 319 322 322 320 319 320 329 338 347 345 348 351 350 350 349 348 348 345 339 332 331 331 331 333 333 333 332 330 328 328 328 328 328 330 332 332 328 321 319 318 320 323 328 331
313 308 313 316 317 317 319 319 318 319 319 330 337 347 347 350 349 351 350 350 347 347 346 339 333 332 331 331 333 332 332 332 330 330 332 333 334 333 332 332 329 323 319 318 317 318 320 323 326
310 309 314 317 316 318 318 318 319 317 317 319 344 345 345 352 353 354 352 350 346 346 346 341 334 333 332 331 332 332 330 331 330 330 331 331 332 333 333 330 326 322 320 319 318 317 318 320 323
311 311 314 315 317 317 319 317 317 317 314 319 339 347 344 351 352 353 352 350 347 347 346 342 335 334 335 332 332 333 333 330 330 330 329 329 328 329 329 327 325 322 320 320 319 318 318 317 317
309 309 313 314 317 317 317 314 314 314 317 320 334 343 346 346 351 351 350 349 348 348 347 344 339 335 336 337 334 333 334 334 332 330 329 329 329 328 328 328 326 323 321 321 320 319 319 319 319
309 310 312 314 315 316 314 314 315 315 318 321 321 330 333 350 349 348 349 350 349 348 348 346 343 338 336 338 339 337 334 335 336 335 333 332 331 331 329 329 328 326 323 320 320 319 319 319 319
311 309 312 312 313 315 314 314 315 315 315 322 322 325 347 349 348 347 349 349 350 349 348 347 345 344 340 339 339 340 340 337 336 336 336 336 335 334 333 332 330 327 325 323 322 321 321 320 319
309 311 312 314 314 314 314 313 315 316 316 318 320 320 332 343 347 347 347 348 348 348 349 348 347 345 345 343 342 342 343 343 341 339 337 337 337 338 338 336 333 330 328 326 324 322 321 321 320
310 310 313 313 314 313 314 314 314 315 315 314 316 317 319 339 344 347 348 348 347 347 347 348 348 347 346 346 345 345 345 346 345 344 342 340 338 338 339 340 339 336 332 329 326 323 322 322 321
310 311 311 312 312 311 311 312 312 313 313 313 313 315 314 318 327 342 349 349 349 348 346 344 346 347 347 347 347 346 346 345 345 344 345 345 342 340 339 340 341 341 340 336 333 329 325 323 322
310 310 311 311 311 311 312 312 312 313 313 314 314 313 312 311 313 322 330 341 345 349 349 348 344 344 346 346 347 345 345 343 345 344 344 344 344 344 342 341 341 342 343 342 340 336 333 329 326
310 312 311 310 311 311 310 313 312 313 314 314 313 312 311 311 311 314 323 325 328 329 341 349 349 344 344 343 344 344 344 343 341 341 340 340 342 345 345 344 344 343 344 344 343 342 340 337 334
313 311 313 313 312 313 313 314 314 313 314 313 312 311 311 311 311 313 314 319 325 330 333 345 349 348 345 343 342 343 342 341 341 340 340 338 343 342 345 345 345 344 344 343 343 343 341 340 339
310 313 312 314 312 313 313 313 313 312 312 311 311 311 311 311 311 313 315 315 316 322 330 339 347 349 348 345 342 341 341 341 341 342 342 342 342 343 343 343 342 343 342 342 341 341 340 339 339
312 312 313 314 313 313 312 311 311 312 313 312 310 310 310 311 311 314 315 315 315 318 328 334 343 346 348 346 342 341 340 342 345 345 346 347 345 345 345 344 343 342 342 342 341 340 340 339 340
312 313 313 313 312 313 312 311 311 311 312 311 311 309 309 310 311 313 314 315 316 316 319 330 340 345 346 344 341 343 345 347 349 350 350 348 348 347 345 343 344 342 342 341 341 341 340 340 340
313 313 313 312 312 311 312 313 311 312 312 312 311 310 308 309 310 311 313 314 319 321 321 331 334 343 346 344 342 343 344 345 349 348 350 346 343 344 345 345 345 345 343 342 341 340 340 339 339
313 312 313 313 313 312 313 312 313 313 312 312 312 311 310 310 310 310 311 313 315 322 327 327 333 340 346 346 343 342 341 342 343 339 336 331 330 330 329 329 332 338 343 344 343 342 341 339 335
314 312 314 315 313 314 311 313 311 312 312 311 312 313 312 311 310 310 310 311 313 316 324 333 340 343 343 342 340 344 342 333 331 329 329 329 327 326 327 329 332 335 337 340 342 342 341 339 335
314 314 314 314 312 312 312 311 311 310 313 313 317 316 314 313 313 313 312 311 313 314 319 330 336 338 337 328 328 330 327 328 329 328 328 327 326 326 326 327 328 329 330 331 333 334 337 339 334
315 312 310 309 309 312 312 311 311 311 315 320 318 314 313 312 314 316 318 319 320 321 323 327 330 329 329 330 329 328 327 327 326 327 327 326 325 323 321 321 324 327 330 329 329 331 332 333 334
312 310 312 314 313 314 314 316 312 314 321 319 316 314 312 311 310 311 314 316 320 324 327 328 329 328 328 327 326 324 322 321 322 323 324 323 322 320 319 318 317 317 321 326 328 328 329 330 333
318 311 311 315 314 313 316 318 316 321 318 317 317 316 315 312 310 311 310 312 315 317 320 321 322 322 321 321 321 321 321 320 320 320 320 320 319 318 317 317 316 316 315 316 323 326 327 328 330
320 319 313 316 317 321 317 317 320 321 321 320 320 319 318 317 315 312 311 311 313 315 316 316 317 318 319 319 319 319 319 320 320 320 321 319 318 317 317 317 317 316 315 314 313 316 322 322 328
318 317 321 317 321 324 318 320 317 323 321 317 315 314 315 316 316 316 315 315 315 314 314 314 314 314 314 314 315 316 317 317 318 319 319 318 318 318 318 318 317 316 315 313 313 313 315 318 319
315 316 316 316 316 319 322 319 314 320 319 317 313 312 312 313 314 315 316 315 315 313 314 312 313 313 313 313 314 315 317 318 317 317 317 317 317 317 318 318 317 316 315 313 313 311 311 313 316
314 318 314 315 319 320 323 322 318 316 316 314 312 312 311 311 311 311 308 310 310 310 310 309 308 308 309 309 309 310 310 311 312 312 313 314 315 316 316 317 318 317 314 313 314 312 311 311 313

GFSSGP_925_thetae_123.txt.gz
Theta_e
315 316 317 319 328 329 336 336 329 334 332 333 328 340 347 349 351 354 351 354 352 354 352 345 338 336 339 342 343 345 345 345 345 345 346 344 339 337 335 338 340 339 338 331 326 318 320 323 326
315 315 318 321 333 338 338 331 333 329 326 325 332 346 351 353 354 355 353 353 352 353 351 349 336 334 337 339 340 343 345 345 345 346 345 343 339 336 335 337 334 331 329 330 320 319 322 326 330
314 317 321 324 329 340 341 330 327 325 323 326 336 345 350 352 354 352 351 353 353 353 353 349 334 332 334 336 337 337 340 344 344 345 344 340 335 333 334 333 330 329 330 325 318 320 324 330 332
314 317 318 324 329 329 333 329 323 325 322 326 339 349 348 351 351 351 353 353 352 353 353 343 333 331 333 334 335 334 333 334 335 335 333 331 332 332 332 330 330 331 327 321 318 321 326 330 332
313 316 321 322 325 323 323 323 323 324 321 322 340 349 351 354 354 355 353 352 352 353 352 347 332 331 332 334 334 333 333 331 329 328 328 329 329 329 329 331 332 329 323 320 319 320 323 328 332
316 316 321 322 322 322 322 322 322 321 320 321 338 349 351 354 355 356 353 352 351 352 352 350 333 332 331 333 333 333 332 331 328 327 328 329 330 331 332 333 333 327 321 322 320 320 321 324 327
315 318 321 320 321 322 322 321 320 320 320 323 342 351 348 355 355 356 354 353 352 352 352 350 343 333 331 332 333 332 331 331 329 329 330 332 332 333 334 333 330 326 322 321 320 318 318 318 319
314 316 318 319 322 323 319 319 318 318 321 321 338 350 350 352 355 355 354 353 352 352 351 350 347 345 344 337 333 333 331 330 329 329 329 330 331 332 331 331 329 327 323 321 320 319 319 319 318
311 315 317 318 319 321 317 319 318 318 319 322 326 331 338 352 352 352 353 352 351 352 352 351 348 347 347 345 339 334 334 332 330 330 329 329 339 339 338 335 330 327 324 322 322 321 320 320 320
313 315 317 317 318 320 318 317 317 319 320 325 327 346 350 351 350 350 350 350 350 350 351 351 350 348 347 346 346 344 344 342 340 338 334 338 340 337 337 336 329 328 327 325 324 323 322 321 332
313 314 318 316 317 317 317 317 317 318 320 320 323 338 351 351 350 348 347 347 347 349 350 351 352 350 348 346 348 348 346 347 346 343 339 343 343 343 341 343 340 339 334 338 334 336 335 334 333
315 315 313 316 315 316 316 316 316 317 319 318 318 319 346 352 352 349 347 347 347 348 349 351 352 352 351 348 348 349 348 349 348 347 343 345 344 344 344 344 344 340 341 339 338 337 334 325 323
318 317 319 314 316 315 315 315 316 317 318 318 317 318 321 347 350 351 350 349 348 347 347 349 351 351 351 351 350 350 350 349 349 349 349 347 346 346 344 344 344 344 344 342 341 337 336 335 331
312 312 315 314 313 314 314 315 315 317 318 318 318 319 319 322 337 340 344 350 350 350 349 348 349 348 349 349 352 350 351 350 349 349 349 343 346 347 345 345 345 345 344 344 344 344 343 341 339
312 312 312 312 313 314 314 315 315 317 318 318 319 319 318 318 317 320 330 337 346 349 352 351 350 350 351 350 351 350 351 350 349 349 348 344 339 342 342 345 346 345 345 344 345 345 344 343 342
312 313 316 316 313 315 315 316 318 317 317 318 318 318 319 320 318 318 319 321 327 331 334 348 348 350 347 349 351 350 350 349 348 348 344 342 338 338 346 346 346 345 345 345 345 344 344 343 342
314 315 315 316 314 314 315 316 317 317 317 318 320 319 319 320 320 318 317 316 317 318 326 336 342 348 349 348 348 349 349 348 348 345 345 342 342 343 348 348 345 347 346 345 344 344 343 343 342
315 315 314 316 315 315 315 317 317 317 317 319 319 319 318 318 319 320 319 315 315 315 318 322 334 348 348 349 347 347 347 347 346 343 341 342 344 346 344 345 346 347 346 345 345 344 344 343 342
315 316 316 315 315 316 316 317 319 317 317 319 319 318 318 317 318 316 317 317 315 314 315 321 335 341 347 348 347 347 347 346 345 344 344 344 345 345 345 348 348 347 345 346 345 345 345 344 343
316 316 317 316 315 316 317 318 318 318 318 317 317 318 319 321 321 320 318 318 320 320 315 324 338 339 342 347 348 347 347 347 347 348 347 347 346 345 345 345 346 346 346 346 346 345 344 343 342
316 317 317 316 315 315 316 318 318 317 316 316 318 321 322 322 322 323 322 319 318 320 324 323 335 344 345 345 345 342 342 344 347 349 349 348 343 340 339 337 339 339 341 344 345 346 344 344 344
317 316 316 317 318 318 315 317 318 318 318 317 324 323 322 322 323 324 325 324 320 317 318 327 337 341 342 342 344 343 344 343 342 343 337 331 329 328 326 327 329 332 338 336 339 342 342 342 342
317 316 317 317 318 317 316 318 318 315 318 323 323 322 322 322 324 326 326 324 323 323 322 326 334 336 338 340 341 342 341 337 335 332 331 333 328 327 327 326 326 327 333 332 336 337 338 338 340
315 316 315 315 316 320 319 319 318 317 321 325 321 321 320 321 322 323 323 325 327 327 328 330 333 333 331 331 330 334 331 332 332 332 332 330 330 329 324 326 322 321 324 325 329 333 334 334 334
316 318 319 319 319 319 317 317 318 319 322 322 322 321 320 320 321 322 322 322 322 324 327 331 332 331 331 330 328 327 326 325 327 328 329 329 328 328 323 319 318 322 316 314 315 322 330 332 333
321 320 319 319 319 318 319 321 322 323 321 321 322 323 323 324 322 321 320 319 320 320 320 322 323 323 324 324 323 321 321 326 327 326 327 326 325 325 319 318 317 316 315 315 314 322 323 329 331
321 321 317 321 322 323 320 321 325 324 324 321 319 318 319 320 321 322 322 319 318 317 317 318 319 319 317 316 317 318 318 319 319 320 320 325 324 324 319 318 317 316 316 317 316 321 320 323 325
322 320 325 325 327 324 323 323 322 327 324 320 319 318 317 318 319 319 320 321 320 317 316 316 316 315 315 316 316 316 315 316 317 319 321 323 322 322 323 325 325 324 320 317 317 319 318 320 320
322 323 323 323 324 326 323 322 321 327 324 321 319 316 316 317 318 318 318 316 315 314 313 312 311 311 311 311 311 312 312 313 315 317 318 317 318 318 320 321 323 323 323 323 323 320 318 319 318
317 320 323 329 327 328 328 327 322 324 321 318 317 316 317 318 317 316 315 314 313 311 311 310 310 309 309 309 309 310 310 310 309 311 311 310 314 315 316 317 319 320 321 321 321 320 317 316 317